[[{"header":{"parameterUnit":"m.s-1","parameterCategory":1,"la1":30.6,"la2":29.2853,"lo1":-89.7004,"lo2":-87.6739,"dy":0.0162,"dx":0.0183,"nx":112,"ny":82,"refTime":"2023-08-23T18:00:00:Z","depth":0,"parameterNumber":2,"parameterNumberName":"U-component_of_WINDS"},"data":[0.0,0.0,0.0,0.0,0.0,0.0,0.0,0.0,0.0,0.0,0.0,0.0,0.0,0.0,0.0,0.0,0.0,0.0,0.0,0.0,0.0,0.0,0.0,0.0,0.0,0.0,0.0,0.0,0.0,0.0,0.0,0.0,0.0,0.0,0.0,0.0,0.0,0.0,0.0,0.0,0.0,0.0,0.0,0.0,0.0,0.0,0.0,0.0,0.0,0.0,0.0,0.0,0.0,0.0,0.0,0.0,0.0,0.0,0.0,0.0,0.0,0.0,0.0,0.0,0.0,0.0,0.0,0.0,0.0,0.0,0.0,0.0,0.0,0.0,0.0,0.0,0.0,0.0,0.0,0.0,0.0,0.0,0.0,0.0,0.0,0.0,0.0,0.0,0.0,0.0,-0.5947,-0.6587,-0.7423,-0.8003,-0.8129,-0.8107,-0.7569,-0.6403,0.0,0.0,0.0,0.0,0.0,0.0,0.0,0.0,0.0,0.0,0.0,0.0,0.0,0.0,0.0,0.0,0.0,0.0,0.0,0.0,0.0,0.0,0.0,0.0,0.0,0.0,0.0,0.0,0.0,0.0,0.0,0.0,0.0,0.0,0.0,0.0,0.0,0.0,0.0,0.0,0.0,0.0,0.0,0.0,0.0,0.0,0.0,0.0,0.0,0.0,0.0,0.0,0.0,0.0,0.0,0.0,0.0,0.0,0.0,0.0,0.0,0.0,0.0,0.0,0.0,0.0,0.0,0.0,0.0,0.0,0.0,0.0,0.0,0.0,0.0,0.0,0.0,0.0,0.0,0.0,0.0,0.0,0.0,0.0,0.0,0.0,0.0,0.0,0.0,0.0,0.0,0.0,0.0,0.0,0.0,0.0,0.0,0.0,0.0,0.0,0.0,0.0,0.0,0.0,-0.5661,-0.6799,-0.7081,-0.7227,-0.737,-0.7701,-0.7401,-0.6152,0.0,0.0,0.0,0.0,0.0,0.0,0.0,0.0,0.0,0.0,0.0,0.0,0.0,0.0,0.0,0.0,0.0,0.0,0.0,0.0,0.0,0.0,0.0,0.0,0.0,0.0,0.0,0.0,0.0,0.0,0.0,0.0,0.0,0.0,0.0,0.0,0.0,0.0,0.0,0.0,0.0,0.0,0.0,0.0,0.0,0.0,0.0,0.0,0.0,0.0,0.0,0.0,0.0,0.0,0.0,0.0,0.0,0.0,0.0,0.0,0.0,0.0,0.0,0.0,0.0,0.0,0.0,0.0,0.0,0.0,0.0,0.0,0.0,0.0,0.0,0.0,0.0,0.0,0.0,0.0,0.0,0.0,0.0,0.0,0.0,0.0,0.0,0.0,0.0,0.0,0.0,0.0,0.0,0.0,0.0,0.0,0.0,0.0,0.0,0.0,0.0,0.0,0.0,-0.5923,-0.6463,-0.7408,-0.7553,-0.7711,-0.7967,-0.7989,-0.7499,-0.6355,-0.5871,0.0,0.0,0.0,0.0,0.0,0.0,0.0,0.0,0.0,0.0,0.0,0.0,0.0,0.0,0.0,0.0,0.0,0.0,0.0,0.0,0.0,0.0,0.0,0.0,0.0,0.0,0.0,0.0,0.0,0.0,0.0,0.0,0.0,0.0,0.0,0.0,0.0,0.0,0.0,0.0,0.0,0.0,0.0,0.0,0.0,0.0,0.0,0.0,0.0,0.0,0.0,0.0,0.0,0.0,0.0,0.0,0.0,0.0,0.0,0.0,0.0,0.0,0.0,0.0,0.0,0.0,0.0,0.0,0.0,0.0,0.0,0.0,0.0,0.0,0.0,0.0,0.0,0.0,0.0,0.0,0.0,0.0,0.0,0.0,0.0,0.0,0.0,0.0,0.0,0.0,0.0,0.0,0.0,0.0,0.0,0.0,0.0,0.0,0.0,0.0,0.0,0.0,-0.6484,-0.7162,-0.7782,-0.7855,-0.8063,-0.8456,-0.8037,-0.7321,-0.6453,-0.5601,0.0,0.0,0.0,0.0,0.0,0.0,0.0,0.0,0.0,0.0,0.0,0.0,0.0,0.0,0.0,0.0,0.0,0.0,0.0,0.0,0.0,0.0,0.0,0.0,0.0,0.0,0.0,0.0,0.0,0.0,0.0,0.0,0.0,0.0,0.0,0.0,0.0,0.0,0.0,0.0,0.0,0.0,0.0,0.0,0.0,0.0,0.0,0.0,0.0,0.0,0.0,0.0,0.0,0.0,0.0,0.0,0.0,0.0,0.0,0.0,0.0,0.0,0.0,0.0,0.0,0.0,0.0,0.0,0.0,0.0,0.0,0.0,0.0,0.0,0.0,0.0,0.0,0.0,0.0,0.0,0.0,0.0,0.0,0.0,0.0,0.0,0.0,0.0,0.0,0.0,0.0,0.0,0.0,0.0,0.0,0.0,0.0,0.0,0.0,0.0,0.0,0.0,-0.6181,-0.6956,-0.7633,-0.7449,-0.7444,-0.7926,-0.711,-0.6449,-0.6074,-0.4766,0.0,0.0,0.0,0.0,0.0,0.0,0.0,0.0,0.0,0.0,0.0,0.0,0.0,0.0,0.0,0.0,0.0,0.0,0.0,0.0,0.0,0.0,0.0,0.0,0.0,0.0,0.0,0.0,0.0,0.0,0.0,0.0,0.0,0.0,0.0,0.0,0.0,0.0,0.0,0.0,0.0,0.0,0.0,0.0,0.0,0.0,0.0,0.0,0.0,0.0,0.0,0.0,0.0,0.0,0.0,0.0,0.0,0.0,0.0,0.0,0.0,0.0,0.0,0.0,0.0,0.0,0.0,0.0,0.0,0.0,0.0,0.0,0.0,0.0,0.0,0.0,0.0,0.0,0.0,0.0,0.0,0.0,0.0,0.0,0.0,0.0,0.0,0.0,0.0,0.0,0.0,0.0,0.0,0.0,0.0,0.0,0.0,0.0,0.0,0.0,0.0,0.0,-0.6314,-0.714,-0.7704,-0.7552,-0.7609,-0.8123,-0.7581,-0.6912,-0.6164,0.0,0.0,0.0,0.0,0.0,0.0,0.0,0.0,0.0,0.0,0.0,0.0,0.0,0.0,0.0,0.0,0.0,0.0,0.0,0.0,0.0,0.0,0.0,0.0,0.0,0.0,0.0,0.0,0.0,0.0,0.0,0.0,0.0,0.0,0.0,0.0,0.0,0.0,0.0,0.0,0.0,0.0,0.0,0.0,0.0,0.0,0.0,0.0,0.0,0.0,0.0,0.0,0.0,0.0,0.0,0.0,0.0,0.0,0.0,0.0,0.0,0.0,0.0,0.0,0.0,0.0,0.0,0.0,0.0,0.0,0.0,0.0,0.0,0.0,0.0,0.0,0.0,0.0,0.0,0.0,0.0,0.0,0.0,0.0,0.0,0.0,0.0,0.0,0.0,0.0,0.0,0.0,0.0,0.0,0.0,0.0,0.0,0.0,0.0,0.0,0.0,0.0,-0.5476,-0.6501,-0.7392,-0.7917,-0.7766,-0.7831,-0.8328,-0.7699,-0.6929,-0.622,0.0,0.0,0.0,0.0,0.0,0.0,0.0,0.0,0.0,0.0,0.0,0.0,0.0,0.0,0.0,0.0,0.0,0.0,0.0,0.0,0.0,0.0,0.0,0.0,0.0,0.0,0.0,0.0,0.0,0.0,0.0,0.0,0.0,0.0,0.0,0.0,0.0,0.0,0.0,0.0,0.0,0.0,0.0,0.0,0.0,0.0,0.0,0.0,0.0,0.0,0.0,0.0,0.0,0.0,0.0,0.0,0.0,0.0,0.0,0.0,0.0,0.0,0.0,0.0,0.0,0.0,0.0,0.0,0.0,0.0,0.0,0.0,0.0,0.0,0.0,0.0,0.0,0.0,0.0,0.0,0.0,0.0,0.0,0.0,0.0,0.0,0.0,0.0,0.0,0.0,0.0,0.0,0.0,0.0,0.0,0.0,0.0,0.0,0.0,0.0,0.0,0.0,-0.5698,-0.6693,-0.7671,-0.834,-0.8115,-0.804,-0.8443,-0.716,-0.6238,0.0,0.0,0.0,0.0,0.0,0.0,0.0,0.0,0.0,0.0,0.0,0.0,0.0,0.0,0.0,0.0,0.0,0.0,0.0,0.0,0.0,0.0,0.0,0.0,0.0,0.0,0.0,0.0,0.0,0.0,0.0,0.0,0.0,0.0,0.0,0.0,0.0,0.0,0.0,0.0,0.0,0.0,0.0,0.0,0.0,0.0,0.0,0.0,0.0,0.0,0.0,0.0,0.0,0.0,0.0,0.0,0.0,0.0,0.0,0.0,0.0,0.0,0.0,0.0,0.0,0.0,0.0,0.0,0.0,0.0,0.0,0.0,0.0,0.0,0.0,0.0,0.0,0.0,0.0,0.0,0.0,0.0,0.0,0.0,0.0,0.0,0.0,0.0,0.0,0.0,0.0,0.0,0.0,0.0,0.0,0.0,0.0,0.0,0.0,0.0,0.0,0.0,0.0,-0.5698,-0.6893,-0.7803,-0.7878,-0.7812,-0.7736,-0.7716,-0.731,-0.6687,-0.5805,0.0,0.0,0.0,0.0,0.0,0.0,0.0,0.0,0.0,0.0,0.0,0.0,0.0,0.0,0.0,0.0,0.0,0.0,0.0,0.0,0.0,0.0,0.0,0.0,0.0,0.0,0.0,0.0,0.0,0.0,0.0,0.0,0.0,0.0,0.0,0.0,0.0,0.0,0.0,0.0,0.0,0.0,0.0,0.0,0.0,0.0,0.0,0.0,0.0,0.0,0.0,0.0,0.0,0.0,0.0,0.0,0.0,0.0,0.0,0.0,0.0,0.0,0.0,0.0,0.0,0.0,0.0,0.0,0.0,0.0,0.0,0.0,0.0,0.0,0.0,0.0,0.0,0.0,0.0,0.0,0.0,0.0,0.0,0.0,0.0,0.0,0.0,0.0,0.0,0.0,0.0,0.0,0.0,0.0,0.0,0.0,0.0,0.0,0.0,0.0,0.0,0.0,-0.5698,-0.6863,-0.7728,-0.778,-0.7795,-0.7788,-0.7666,-0.7479,-0.6957,-0.6021,0.0,0.0,0.0,0.0,0.0,0.0,0.0,0.0,0.0,0.0,0.0,0.0,0.0,0.0,0.0,0.0,0.0,0.0,0.0,0.0,0.0,0.0,0.0,0.0,0.0,0.0,0.0,0.0,0.0,0.0,0.0,0.0,0.0,0.0,0.0,0.0,0.0,0.0,0.0,0.0,0.0,0.0,0.0,0.0,0.0,0.0,0.0,0.0,0.0,0.0,0.0,0.0,0.0,0.0,0.0,0.0,0.0,0.0,0.0,0.0,0.0,0.0,0.0,0.0,0.0,0.0,0.0,0.0,0.0,0.0,0.0,0.0,0.0,0.0,0.0,0.0,0.0,0.0,0.0,0.0,0.0,0.0,0.0,0.0,0.0,0.0,0.0,0.0,0.0,0.0,0.0,0.0,0.0,0.0,0.0,0.0,0.0,0.0,0.0,0.0,0.0,0.0,-0.5698,-0.6751,-0.7581,-0.7882,-0.7946,-0.8005,-0.7975,-0.7562,-0.7076,-0.651,0.0,0.0,0.0,0.0,0.0,0.0,0.0,0.0,0.0,0.0,0.0,0.0,0.0,0.0,0.0,0.0,0.0,0.0,0.0,0.0,0.0,0.0,0.0,0.0,0.0,0.0,0.0,0.0,0.0,0.0,0.0,0.0,0.0,0.0,0.0,0.0,0.0,0.0,0.0,0.0,0.0,0.0,0.0,0.0,0.0,0.0,0.0,0.0,0.0,0.0,0.0,0.0,0.0,0.0,0.0,0.0,0.0,0.0,0.0,0.0,-0.9379,-0.8707,0.0,0.0,0.0,0.0,0.0,0.0,0.0,0.0,0.0,0.0,0.0,0.0,0.0,0.0,0.0,0.0,0.0,0.0,0.0,0.0,0.0,0.0,0.0,0.0,0.0,0.0,0.0,0.0,0.0,0.0,0.0,0.0,0.0,0.0,0.0,0.0,0.0,0.0,0.0,0.0,-0.5921,-0.7143,-0.8,-0.7972,-0.7979,-0.7881,-0.763,-0.7517,-0.7103,-0.6229,-0.5428,0.0,0.0,0.0,0.0,0.0,0.0,0.0,0.0,0.0,0.0,0.0,0.0,0.0,0.0,0.0,0.0,0.0,0.0,0.0,0.0,0.0,0.0,0.0,0.0,0.0,0.0,0.0,0.0,0.0,0.0,0.0,0.0,0.0,0.0,0.0,0.0,0.0,0.0,0.0,0.0,0.0,0.0,0.0,0.0,0.0,0.0,0.0,0.0,0.0,0.0,0.0,0.0,0.0,0.0,0.0,0.0,0.0,0.0,0.0,-1.0984,-1.0494,0.0,0.0,0.0,0.0,0.0,0.0,0.0,0.0,0.0,0.0,0.0,0.0,0.0,0.0,0.0,0.0,0.0,0.0,0.0,0.0,0.0,0.0,0.0,0.0,0.0,0.0,0.0,0.0,0.0,0.0,0.0,0.0,0.0,0.0,0.0,0.0,0.0,0.0,0.0,0.0,-0.6324,-0.7305,-0.8022,-0.8177,-0.8193,-0.8061,-0.7679,-0.7648,-0.7284,-0.6456,-0.5814,0.0,0.0,0.0,0.0,0.0,0.0,0.0,0.0,0.0,0.0,0.0,0.0,0.0,0.0,0.0,0.0,0.0,0.0,0.0,0.0,0.0,0.0,0.0,0.0,0.0,0.0,0.0,0.0,0.0,0.0,0.0,0.0,0.0,0.0,0.0,0.0,0.0,0.0,0.0,0.0,0.0,0.0,0.0,0.0,0.0,0.0,0.0,0.0,0.0,0.0,0.0,0.0,0.0,-1.255,-1.2517,-1.2263,-1.2813,-1.3094,-1.3121,-1.2619,-1.2347,-1.2148,-1.0897,0.0,0.0,0.0,0.0,0.0,0.0,0.0,0.0,0.0,0.0,0.0,0.0,0.0,0.0,0.0,0.0,0.0,0.0,0.0,0.0,0.0,0.0,-0.8725,-0.9473,-0.9401,-0.8766,-0.7403,0.0,0.0,0.0,0.0,0.0,0.0,0.0,0.0,0.0,0.0,0.0,-0.6851,-0.7499,-0.8055,-0.8423,-0.8414,-0.8294,-0.7952,-0.7889,-0.7575,-0.6911,-0.6319,-0.5642,0.0,0.0,0.0,0.0,0.0,0.0,0.0,0.0,0.0,0.0,0.0,0.0,0.0,0.0,0.0,0.0,0.0,0.0,0.0,0.0,0.0,0.0,0.0,0.0,0.0,0.0,0.0,0.0,0.0,0.0,0.0,0.0,-0.7904,-0.8469,0.0,0.0,0.0,0.0,0.0,0.0,0.0,0.0,0.0,0.0,0.0,0.0,0.0,-1.2609,-1.3641,-1.474,-1.537,-1.5494,-1.612,-1.6413,-1.6492,-1.6532,-1.6543,-1.6514,-1.5799,0.0,-1.2854,-1.2471,0.0,0.0,0.0,0.0,0.0,0.0,0.0,0.0,0.0,0.0,0.0,0.0,0.0,0.0,0.0,0.0,0.0,0.0,0.0,0.0,0.0,0.0,-0.9782,-0.9925,-1.0041,-1.0089,-0.9986,-0.8756,-0.7494,-0.6993,-0.6498,-0.5996,0.0,0.0,0.0,0.0,0.0,0.0,-0.747,-0.8218,-0.8731,-0.8683,-0.8561,-0.8423,-0.835,-0.8228,-0.7975,-0.7494,-0.685,-0.6209,-0.5597,-0.4837,0.0,0.0,0.0,0.0,0.0,0.0,0.0,0.0,0.0,0.0,0.0,0.0,0.0,0.0,0.0,0.0,0.0,0.0,0.0,0.0,0.0,0.0,0.0,0.0,0.0,0.0,0.0,0.0,0.0,-0.7702,-0.8554,-0.8931,-0.9471,-0.9647,0.0,0.0,0.0,0.0,0.0,0.0,0.0,0.0,0.0,-1.3543,-1.4086,-1.4687,-1.5399,-1.6282,-1.6764,-1.6764,-1.7188,-1.7368,-1.7349,-1.7315,-1.7315,-1.7334,-1.6909,-1.6218,-1.5272,-1.4015,-1.351,-1.3466,0.0,0.0,0.0,0.0,-1.1724,-1.1025,-1.2486,-1.2893,-1.268,-1.2246,0.0,0.0,0.0,0.0,0.0,0.0,0.0,-1.0155,-1.0345,-1.0532,-1.0815,-1.1338,-1.1276,-1.1201,-1.165,-1.0658,-0.9458,-0.8711,-0.8228,-0.768,-0.6895,-0.649,0.0,0.0,0.0,-0.7635,-0.8086,-0.8613,-0.8975,-0.9039,-0.8886,-0.8649,-0.8372,-0.8343,-0.7976,-0.7157,-0.6841,-0.6361,-0.5613,-0.5024,-0.4336,0.0,0.0,0.0,0.0,0.0,0.0,0.0,0.0,0.0,0.0,0.0,0.0,0.0,0.0,0.0,0.0,0.0,0.0,0.0,0.0,0.0,0.0,0.0,0.0,0.0,0.0,0.0,0.0,-0.8484,-0.934,-0.9741,-1.0443,-1.0816,0.0,0.0,0.0,0.0,0.0,0.0,-1.3953,-1.4671,-1.5328,-1.577,-1.626,-1.669,-1.7129,-1.7718,-1.7954,-1.7837,-1.8041,-1.8056,-1.7934,-1.7969,-1.8017,-1.8037,-1.7705,-1.7617,-1.7543,-1.5577,-1.5026,-1.5366,-1.4454,-1.367,-1.3177,-1.4201,-1.3899,-1.3155,-1.4724,-1.5184,-1.498,-1.415,-1.379,-1.3298,-1.1387,0.0,0.0,0.0,0.0,-1.1439,-1.1795,-1.1716,-1.1713,-1.2448,-1.2243,-1.2088,-1.2619,-1.2119,-1.1233,-1.0279,-0.9746,-0.9208,-0.8366,-0.787,0.0,-0.7657,-0.7904,-0.8285,-0.8863,-0.9024,-0.9128,-0.9279,-0.9128,-0.8865,-0.8467,-0.8423,-0.8,-0.7048,-0.6909,-0.6525,-0.5748,-0.5347,-0.4747,-0.3907,0.0,0.0,0.0,0.0,0.0,0.0,0.0,0.0,0.0,0.0,0.0,0.0,0.0,0.0,0.0,0.0,0.0,0.0,0.0,0.0,0.0,0.0,0.0,0.0,0.0,0.0,0.0,0.0,0.0,-1.1257,-1.1918,0.0,0.0,0.0,0.0,-1.3151,-1.4232,-1.506,-1.5557,-1.6267,-1.7063,-1.7913,-1.8042,-1.8418,-1.9156,-1.9259,-1.931,-1.9288,-1.9492,-1.9513,-1.939,-1.9513,-1.9585,-1.9555,-1.8767,-1.8699,-1.898,-1.7185,-1.6459,-1.6403,-1.6162,-1.5991,-1.5906,-1.5891,-1.5814,-1.5728,-1.6114,-1.588,-1.5479,-1.6115,-1.5286,-1.3923,-1.3035,-1.2324,0.0,0.0,-1.2313,-1.2138,-1.2623,-1.2573,-1.2444,-1.2584,-1.2594,-1.2613,-1.2831,-1.2647,-1.2168,-1.1299,-1.0661,-1.015,-0.9922,0.0,-0.9643,-0.9893,-0.9627,-0.9524,-0.9783,-0.9509,-0.9279,-0.9279,-0.9128,-0.8975,-0.8886,-0.857,-0.8206,-0.7763,-0.727,-0.6798,-0.6387,-0.6022,-0.5469,-0.4649,-0.4202,0.0,0.0,0.0,0.0,0.0,0.0,0.0,0.0,0.0,0.0,0.0,0.0,0.0,0.0,0.0,0.0,0.0,0.0,0.0,0.0,0.0,0.0,0.0,0.0,0.0,0.0,0.0,0.0,-1.2518,-1.3365,0.0,-1.3531,-1.4099,-1.4922,-1.6066,-1.6368,-1.7033,-1.8257,-1.819,-1.8338,-1.8877,-1.8929,-1.9177,-1.9545,-1.9705,-1.9726,-1.966,-1.9833,-2.0074,-2.0385,-1.9972,-2.0002,-2.0429,-1.9681,-1.9373,-1.9406,-1.8702,-1.8075,-1.7578,-1.7435,-1.6935,-1.6359,-1.6823,-1.6546,-1.6023,-1.654,-1.6278,-1.5707,-1.5691,-1.5086,-1.4325,-1.421,-1.3719,-1.3247,-1.3696,-1.3766,-1.3696,-1.3682,-1.3408,-1.3011,-1.2797,-1.2816,-1.2865,-1.2537,-1.2628,-1.2638,-1.2244,-1.1694,-1.1135,-1.0766,-1.0648,-1.0442,-0.9908,-0.9996,-1.0052,-0.9817,-0.9821,-0.9744,-0.9572,-0.9435,-0.9234,-0.8984,-0.8556,-0.8073,-0.7449,-0.7033,-0.6589,-0.6099,-0.5979,-0.5634,-0.5032,-0.4816,-0.4234,0.0,0.0,0.0,0.0,0.0,0.0,0.0,0.0,0.0,0.0,0.0,0.0,0.0,0.0,0.0,0.0,0.0,0.0,0.0,0.0,0.0,0.0,0.0,0.0,0.0,-1.2181,-1.3421,-1.4029,-1.4853,-1.5482,-1.5774,-1.6022,-1.6744,-1.8153,-1.7938,-1.8261,-1.9516,-1.9219,-1.924,-1.9685,-1.9775,-2.0028,-2.0385,-2.06,-2.0658,-2.0591,-2.0502,-2.0655,-2.0992,-2.0294,-2.0248,-2.0695,-2.0137,-1.9848,-1.972,-1.9581,-1.9124,-1.8411,-1.8201,-1.7597,-1.689,-1.7396,-1.7114,-1.6515,-1.6682,-1.6419,-1.5898,-1.5237,-1.4955,-1.4813,-1.4863,-1.4553,-1.4252,-1.4661,-1.4619,-1.445,-1.4376,-1.4035,-1.3575,-1.3191,-1.3084,-1.3024,-1.2641,-1.2714,-1.2871,-1.2861,-1.2436,-1.1969,-1.1639,-1.1546,-1.123,-1.0474,-1.0531,-1.0496,-0.9999,-0.9985,-0.9926,-0.971,-0.9554,-0.9346,-0.9096,-0.8548,-0.7953,-0.7348,-0.6914,-0.6478,-0.6028,-0.5838,-0.5628,-0.5385,-0.5012,-0.4368,-0.3428,0.0,0.0,0.0,0.0,0.0,0.0,0.0,0.0,0.0,0.0,0.0,0.0,0.0,0.0,0.0,0.0,0.0,0.0,0.0,0.0,0.0,0.0,0.0,-1.2371,-1.3545,-1.4719,-1.5749,-1.6363,-1.7183,-1.8286,-1.807,-1.8276,-1.9293,-1.8894,-1.8774,-1.9159,-1.9346,-1.9775,-2.0548,-2.0669,-2.106,-2.1807,-2.1909,-2.2026,-2.2171,-2.1541,-2.1291,-2.1291,-2.0613,-2.0354,-2.0419,-2.02,-2.008,-2.0005,-1.9884,-1.9472,-1.886,-1.8461,-1.8095,-1.772,-1.772,-1.7611,-1.7369,-1.6639,-1.6283,-1.5994,-1.5001,-1.5002,-1.5323,-1.4947,-1.4778,-1.4853,-1.536,-1.4896,-1.4325,-1.4631,-1.4466,-1.4082,-1.3684,-1.3399,-1.3208,-1.3198,-1.3035,-1.2968,-1.317,-1.2949,-1.2676,-1.2529,-1.2382,-1.2134,-1.1677,-1.1278,0.0,-1.0494,-1.0084,-0.9802,-0.9741,-0.9466,-0.9288,-0.9217,-0.8454,-0.7862,-0.75,-0.6906,-0.6463,-0.6191,-0.5745,-0.5568,-0.5703,-0.4787,-0.3922,-0.3114,0.0,0.0,0.0,0.0,0.0,0.0,0.0,0.0,0.0,0.0,0.0,0.0,0.0,0.0,0.0,0.0,0.0,0.0,0.0,0.0,0.0,-1.4277,-1.5138,-1.5006,-1.5296,-1.597,-1.7162,-1.73,-1.7659,-1.8613,-1.8865,-1.9321,-2.0175,-1.9947,-2.0079,-2.0784,-2.0601,-2.0873,-2.1705,-2.1235,-2.1408,-2.2301,-2.1332,-2.1106,-2.1605,-2.0996,-2.0934,-2.1291,-2.0663,-2.0617,-2.1013,-2.0485,-2.0166,-2.0005,-2.0131,-1.9797,-1.9265,-1.9101,-1.8553,-1.7922,-1.8082,-1.761,-1.6731,-1.597,-1.5607,-1.5414,-1.4513,-1.4651,-1.5203,-1.5295,-1.5252,-1.529,-1.5604,-1.5463,-1.507,-1.472,-1.4477,-1.4147,-1.3426,-1.3372,-1.3375,-1.3047,-1.3138,-1.3228,-1.3218,-1.3122,-1.2987,-1.2822,-1.2676,-1.2387,-1.1818,-1.1528,-1.126,-1.1001,-1.0512,-1.0187,-1.0279,-0.9848,-0.9426,-0.9096,-0.8492,-0.7881,-0.7332,-0.6719,-0.6285,-0.6067,-0.5884,-0.5723,-0.5554,-0.4962,-0.4322,0.0,0.0,0.0,0.0,0.0,0.0,0.0,0.0,0.0,0.0,0.0,0.0,0.0,0.0,0.0,0.0,0.0,0.0,0.0,0.0,0.0,0.0,-1.5898,-1.6837,-1.7413,-1.7336,-1.754,-1.8393,-1.8518,-1.8832,-1.972,-1.9753,-1.9898,-2.0433,-2.0172,-2.0197,-2.075,-2.0669,-2.0944,-2.1705,-2.136,-2.1556,-2.2452,-2.1641,-2.1461,-2.1921,-2.1272,-2.1113,-2.1414,-2.0717,-2.0624,-2.093,-2.0543,-2.0304,-2.0181,-2.027,-2.0061,-1.9632,0.0,0.0,0.0,0.0,-1.7735,-1.6788,-1.5872,-1.5378,-1.5026,-1.4133,-1.4292,-1.484,-1.4888,-1.494,-1.5127,-1.541,-1.5282,-1.501,-1.4778,-1.4558,-1.4261,-1.3694,-1.3564,-1.349,-1.3372,-1.3377,-1.3409,-1.342,-1.342,0.0,-1.3152,-1.292,-1.258,-1.2052,-1.1808,-1.1611,-1.1303,-1.0993,-1.07,-1.0498,-1.015,-0.9736,-0.9114,-0.8581,0.0,0.0,0.0,-0.6301,-0.5823,-0.5937,0.0,0.0,0.0,-0.4722,-0.4019,-0.3916,0.0,0.0,-0.3232,-0.326,0.0,0.0,0.0,0.0,0.0,0.0,0.0,0.0,0.0,0.0,0.0,0.0,0.0,0.0,0.0,0.0,-1.6973,-1.7869,-1.9524,-1.944,-1.929,-1.936,-1.968,-2.0224,-2.1102,-2.0538,-2.0225,-2.0553,-2.0102,-1.9912,-2.0023,-2.0162,0.0,0.0,0.0,-2.1639,-2.2561,-2.2344,-2.2335,-2.2618,-2.1853,-2.1514,-2.1499,-2.0824,-2.0527,-2.0527,-2.0494,-2.0441,-2.0388,-2.0388,-2.025,-1.999,-1.9566,-1.9207,-1.8907,-1.8486,-1.7991,-1.733,-1.6349,0.0,0.0,-1.417,-1.4245,-1.4653,-1.4323,-1.4486,-1.482,-1.5049,-1.486,-1.4653,-1.4835,-1.4686,-1.4373,-1.4269,-1.3847,-1.361,-1.3962,-1.3805,-1.3625,-1.3784,-1.3757,-1.3625,-1.3467,-1.3152,-1.2754,-1.2363,-1.2117,-1.1916,-1.157,-1.1489,-1.1219,-1.07,-1.0452,0.0,-0.9313,-0.8699,-0.8307,-0.8163,-0.7308,-0.6456,-0.565,-0.6021,-0.5797,-0.4864,-0.5262,-0.5106,-0.4427,-0.4676,-0.4657,-0.4316,-0.3735,-0.3889,0.0,0.0,0.0,0.0,0.0,0.0,0.0,0.0,0.0,0.0,0.0,0.0,0.0,0.0,0.0,-1.8948,-1.9804,-2.036,-2.0629,-2.0685,-2.046,-1.9847,-1.9768,-2.0059,-2.0952,-2.0549,-2.0789,-2.1999,-2.121,-2.091,-2.1531,-2.1289,-2.1523,-2.2294,-2.1678,-2.2077,-2.3505,-2.1862,-2.1565,-2.2666,-2.1497,0.0,-2.0933,-2.074,-2.0644,-2.0644,-2.0491,-2.0373,-2.0304,-2.0388,-2.0354,-2.02,-1.9632,-1.9362,-1.925,-1.886,-1.8384,-1.7877,-1.7376,-1.672,-1.6068,-1.5681,-1.5764,-1.5984,-1.5631,-1.5711,0.0,-1.57,-1.5492,-1.5239,-1.4971,-1.4777,-1.4605,-1.4419,-1.428,-1.4233,-1.4291,-1.4488,-1.4494,-1.4037,-1.4173,-1.4164,-1.3635,-1.3238,-1.2939,-1.2764,-1.2347,-1.2165,-1.2445,-1.1875,-1.1503,-1.1599,-1.0839,-1.0149,-0.9723,-0.8972,-0.8383,-0.7964,-0.7269,-0.6727,-0.6418,-0.642,-0.6215,-0.5763,-0.5851,-0.5625,-0.5116,-0.5309,-0.5369,-0.5252,-0.4698,-0.451,0.0,0.0,0.0,0.0,0.0,0.0,0.0,0.0,0.0,0.0,0.0,-1.6494,0.0,0.0,-1.8737,-1.9977,-2.0524,-2.0817,-2.1094,-2.1316,-2.1189,-2.0584,-2.0599,-2.0896,-2.148,-2.1536,-2.1774,-2.237,-2.1538,-2.1225,-2.1763,-2.16,-2.1748,-2.2236,-2.218,-2.2389,-2.2896,-2.2201,-2.2011,-2.2359,-2.2115,-2.2009,-2.2009,-2.1956,-2.1766,-2.1399,-2.1264,-2.0939,-2.0475,-2.0373,-2.0373,-2.0357,-1.9884,-1.9632,-1.9508,-1.9213,-1.8695,-1.8086,-1.7687,-1.7118,-1.6501,-1.6172,-1.6157,-1.6173,-1.5711,-1.579,-1.5952,-1.5599,-1.5545,-1.5513,-1.5198,-1.4971,-1.4777,-1.4686,-1.4512,-1.443,-1.4569,-1.457,-1.4467,-1.4146,-1.4344,-1.4317,-1.3799,-1.3614,-1.3451,-1.3085,-1.2724,-1.2579,-1.2754,-1.2311,-1.1909,-1.1617,-1.0988,-1.0313,-0.9573,-0.8987,-0.8423,-0.7887,-0.7591,-0.727,-0.6819,-0.6811,-0.6636,-0.6166,-0.6196,-0.5968,-0.5553,-0.573,-0.5746,-0.5596,-0.5354,-0.5233,0.0,0.0,0.0,0.0,0.0,0.0,0.0,0.0,-1.6471,-1.8172,-1.8616,-1.8846,-1.9586,-1.9796,-2.0077,-2.0711,-2.0883,-2.1081,-2.1674,-2.1872,-2.1844,-2.1685,-2.1652,-2.1845,-2.2175,-2.2423,-2.2596,-2.2663,-2.1756,-2.143,-2.1983,-2.1784,-2.1796,-2.2112,-2.2667,-2.2762,-2.2439,-2.2837,-2.2837,-2.2474,-2.2975,-2.3218,-2.3253,-2.3109,-2.2689,-2.2095,-2.1866,-2.1365,-2.0711,-2.0475,-2.046,-2.0527,-2.0235,-1.9975,-1.9782,-1.9523,-1.9053,-1.8439,-1.8063,-1.759,-1.7107,-1.6747,-1.6528,-1.6366,-1.5864,-1.5839,-1.5885,-1.5524,-1.5543,-1.5671,-1.5447,-1.5198,-1.496,-1.496,-1.4743,-1.4616,-1.4765,-1.4636,-1.4424,-1.4291,-1.443,-1.4416,-1.3894,-1.3921,-1.3838,-1.3364,-1.3094,-1.292,-1.2929,-1.2725,-1.2292,-1.1474,-1.109,-1.0449,-0.9246,-0.8926,-0.8511,-0.7991,-0.8014,-0.7771,-0.7205,-0.7264,-0.7048,-0.6491,-0.6553,-0.6395,-0.5939,-0.6086,-0.6029,-0.5792,-0.5831,-0.5836,-1.7288,-1.6663,-1.671,-1.8569,-1.8062,-1.8135,0.0,0.0,-2.0524,-2.1622,-2.1936,-2.1867,-2.1189,-2.169,-2.2269,-2.2341,-2.2507,-2.2814,-2.3339,-2.2819,-2.2658,-2.3496,-2.2643,-2.2217,-2.2584,-2.2305,-2.2635,-2.3953,-2.2514,-2.2134,-2.3488,-2.2497,-2.2207,-2.2948,-2.306,-2.3367,-2.3951,-2.3439,-2.349,-2.4128,-2.351,-2.3288,-2.3446,-2.273,-2.2341,-2.2163,-2.1357,-2.0923,-2.0794,-2.0761,-2.0761,-2.0761,-2.0527,-2.0376,-2.0273,-1.9777,-1.9551,-1.9498,-1.9222,-1.8993,-1.8772,-1.8498,-1.8138,-1.7717,-1.7276,-1.6905,-1.6549,-1.6176,-1.592,-1.5748,-1.5671,-1.5447,-1.521,-1.5108,-1.5165,-1.5119,-1.4915,-1.5161,-1.5258,-1.4658,-1.4718,-1.465,-1.4095,-1.3815,-1.3625,-1.3573,-1.3314,-1.3084,-1.2929,-1.2881,-1.2551,-1.1752,-1.1222,-1.0397,-0.9125,-0.8975,-0.8797,-0.8456,-0.8269,-0.809,-0.7914,-0.7717,-0.7486,-0.7114,-0.7258,-0.7045,-0.6433,-0.6681,-0.6567,-0.6137,-0.6044,-0.589,-2.0886,-2.0146,0.0,0.0,-2.1353,-2.1466,-2.2802,-2.2849,-2.2786,-2.3276,-2.3587,-2.355,-2.2933,-2.3126,-2.3392,0.0,-2.3211,-2.3257,-2.3992,-2.3496,-2.3258,-2.3792,-2.3405,-2.3163,-2.3305,-2.334,-2.3492,-2.3863,-2.3257,-2.3001,-2.3307,-2.3258,-2.3399,-2.3847,-2.4227,-2.4409,-2.4374,-2.4576,-2.4628,-2.4567,-2.4717,-2.4818,-2.4889,-2.4544,-2.4153,-2.3598,-2.1843,-2.1311,-2.1681,-2.1051,-2.0876,-2.0957,-2.0711,-2.061,-2.0509,-2.0041,-1.9777,-1.9654,-1.9398,-1.9213,-1.9078,-1.8788,-1.845,-1.8108,-1.772,-1.731,-1.6905,-1.6577,-1.6318,-1.6144,-1.6088,-1.5925,-1.5647,-1.548,-1.5435,-1.5334,-1.5051,-1.5311,-1.5426,-1.5093,-1.5192,-1.5157,-1.4585,-1.422,-1.3931,-1.3757,-1.3382,-1.3045,-1.2929,-1.2783,-1.2224,-1.1095,-1.0284,-0.9517,-0.8871,-0.8805,-0.8732,-0.8447,-0.8406,-0.8283,-0.8118,-0.7946,-0.7746,-0.7503,-0.7454,-0.7321,-0.7034,-0.6872,-0.6742,-0.6623,-0.6452,-0.6271,-2.2567,0.0,0.0,-2.3096,-2.3728,-2.3908,-2.3657,-2.3908,-2.4276,-2.4575,-2.4694,-2.4583,-2.4116,-2.4031,-2.4019,-2.3935,-2.3585,-2.357,-2.4403,-2.4029,-2.3829,-2.4139,-2.4073,-2.4009,-2.4009,-2.4177,-2.4225,-2.4006,-2.3934,-2.3834,-2.3722,-2.4083,-2.445,-2.4843,-2.5308,-2.5324,-2.4935,-2.5477,-2.5566,-2.5127,-2.5707,-2.599,-2.601,-2.5793,-2.5299,-2.4511,-2.2508,-2.1972,-2.2394,-2.144,-2.1071,-2.1151,-2.0941,-2.0843,-2.0744,-2.0354,-2.0025,-1.9762,-1.9508,-1.9325,-1.9139,-1.8889,-1.8644,-1.8344,-1.7962,-1.7639,-1.7365,-1.696,-1.6705,-1.6534,-1.6491,-1.6262,-1.6001,-1.5893,-1.5748,-1.5558,-1.5334,-1.5395,-1.547,-1.535,-1.529,-1.5213,-1.4903,-1.4461,-1.4101,-1.3958,-1.3478,-1.3104,-1.2978,-1.258,-1.1883,-1.075,-0.9907,-0.928,-0.8822,-0.8897,-0.8791,-0.8422,-0.8502,-0.8468,-0.8224,-0.812,-0.7997,-0.7801,-0.7588,-0.7504,-0.7543,-0.7078,-0.6919,-0.7034,-0.681,-0.6677,-2.074,0.0,-2.2816,-2.3897,-2.4483,-2.5032,-2.6069,-2.5585,-2.5141,-2.5818,-2.5418,-2.4853,-2.4349,-2.4354,-2.4178,-2.3599,-2.364,-2.4038,-2.4687,-2.4493,-2.4464,-2.5009,-2.4786,-2.4549,0.0,-2.4359,-2.4467,-2.4934,-2.4411,-2.4505,-2.5481,-2.4977,-2.5056,-2.5924,-2.5901,-2.5917,-2.5941,-2.5974,-2.6063,-2.6134,-2.617,-2.6225,-2.6262,-2.5476,-2.4796,-2.4163,-2.319,-2.2733,-2.2636,-2.1868,-2.1511,-2.1386,-2.1309,-2.1183,-2.1071,-2.0793,-2.0388,-1.9955,-1.9839,-1.9603,-1.9376,-1.9139,-1.8936,-1.8707,-1.8307,-1.8095,-1.7868,-1.7323,-1.7044,-1.6833,-1.6718,-1.6461,-1.6188,-1.62,-1.6088,-1.5913,-1.5715,-1.5582,-1.5447,-1.5335,-1.4937,-1.4671,-1.4684,-1.4208,-1.3926,-1.4129,-1.3847,-1.343,-1.3055,-1.2368,-1.1667,-1.0947,-1.0749,-1.0196,-0.9076,-0.935,-0.9232,-0.8438,-0.8571,-0.8567,-0.8232,-0.8313,-0.8312,-0.8084,-0.783,-0.7766,-0.7903,-0.7465,-0.7334,-0.7373,-0.7098,-0.7051,-2.3936,0.0,-2.4611,-2.6019,-2.6473,-2.6673,-2.6896,-2.6913,-2.6688,-2.5983,-2.5494,-2.4864,-2.4015,-2.3851,-2.3865,-2.3829,-2.3912,-2.4447,-2.5841,-2.5481,-2.5268,-2.5754,-2.5597,0.0,0.0,0.0,-2.4077,-2.4225,-2.427,-2.4441,-2.4798,-2.5155,-2.5582,-2.5974,-2.6079,-2.6115,-2.6189,-2.6293,-2.6329,-2.638,-2.6415,-2.6434,-2.6453,-2.5113,-2.5061,-2.588,-2.3827,-2.3564,-2.4461,-2.3008,-2.234,-2.2212,-2.1613,-2.1198,-2.099,-2.1367,-2.1268,-2.0819,-2.0162,-1.9797,-1.956,-1.9362,-1.9339,-1.9358,-1.9093,-1.8769,-1.8452,-1.8171,-1.7542,-1.696,-1.6918,-1.6663,-1.6392,-1.6293,-1.6219,-1.6057,-1.5836,-1.616,-1.6397,-1.5963,-1.5829,-1.5665,-1.5292,-1.458,-1.4046,-1.3952,-1.3658,-1.3324,-1.3055,-1.2291,-1.1491,-1.0858,-1.0268,-0.9658,-0.8994,-0.9062,-0.8997,-0.861,-0.8733,-0.8822,-0.8808,-0.8442,-0.8468,-0.8868,-0.8335,-0.8164,-0.845,-0.8003,-0.7814,-0.7852,-0.7716,-0.7613,-2.5655,-2.5948,-2.5994,-2.7238,-2.7643,-2.7639,-2.7592,-2.7637,-2.7425,-2.6294,-2.5506,-2.4712,-2.3908,-2.3351,-2.3194,-2.366,-2.4013,-2.4702,-2.6115,-2.5983,-2.5905,-2.6506,-2.6233,-2.5996,0.0,0.0,0.0,-2.4379,-2.4681,-2.4903,-2.496,-2.5546,-2.5974,-2.6206,-2.6222,-2.6312,-2.6418,-2.6503,-2.6554,-2.6572,-2.664,-2.6691,-2.6691,-2.5646,-2.5828,-2.6824,-2.4789,-2.4523,-2.5409,-2.3929,-2.3107,-2.2716,-2.213,-2.1551,-2.1119,-2.1655,-2.1717,-2.1455,-2.0983,-2.0667,-2.043,-2.022,-2.0177,-2.0136,-1.985,-1.9559,-1.9235,-1.8733,-1.8259,-1.7777,-1.7287,-1.7059,-1.6891,-1.6602,-1.6349,-1.6156,-1.5969,-1.6429,-1.6693,-1.6173,-1.6195,-1.609,-1.5446,-1.4711,-1.414,-1.3915,-1.3668,-1.3467,-1.319,-1.256,-1.1846,-1.1113,-1.0659,-1.0072,-0.9436,-0.9427,-0.9349,-0.908,-0.913,-0.9195,-0.925,-0.8866,-0.8884,-0.9353,-0.8708,-0.8536,-0.8875,-0.8421,-0.8223,-0.8293,-0.8248,-0.8092,-2.5911,-2.6509,-2.6938,-2.7593,-2.7904,-2.8039,-2.814,-2.7849,-2.731,-2.6576,-2.5345,-2.4267,0.0,0.0,-2.2239,-2.3132,-2.3977,-2.4787,-2.5654,-2.5973,-2.6376,0.0,0.0,0.0,0.0,0.0,0.0,-2.5529,-2.5605,-2.5742,-2.601,-2.6115,-2.631,-2.6572,-2.6417,-2.6435,-2.6691,-2.6674,-2.6691,-2.6775,-2.696,-2.701,-2.6977,-2.6943,-2.6942,-2.694,-2.5947,-2.5561,-2.5607,-2.4721,-2.3811,-2.2957,-2.283,-2.2196,-2.1391,-2.1734,-2.1846,-2.1862,-2.2276,-2.2156,-2.1768,-2.1555,-2.1289,-2.1005,-2.0656,-2.0429,-2.0146,-1.9179,-1.9195,-1.9168,-1.7818,-1.7626,-1.7655,-1.7059,-1.6534,-1.6244,-1.6244,-1.6463,-1.651,-1.5981,-1.5985,-1.5892,-1.5234,-1.4627,-1.4161,-1.402,-1.3868,-1.3668,-1.342,-1.3104,-1.2609,-1.178,-1.1801,-1.1438,-1.0306,-1.0369,-1.027,-0.9752,-0.9727,-0.9644,-0.953,-0.946,-0.9432,-0.9562,-0.8989,-0.8895,-0.9211,-0.8823,-0.8626,-0.8626,-0.8626,-0.8474,-2.7834,-2.81,-2.8056,-2.848,-2.8639,-2.8466,-2.775,-2.718,-2.6259,-2.4444,-2.296,-2.1668,0.0,0.0,0.0,-2.2705,-2.3826,0.0,-2.6745,-2.7003,0.0,-2.7688,0.0,-2.8266,-2.7972,-2.713,0.0,-2.7421,-2.5905,-2.5307,-2.6101,-2.6187,-2.631,-2.6572,-2.6537,-2.664,-2.6842,-2.6809,-2.7114,-2.7743,-2.7726,-2.7811,-2.7928,-2.7279,-2.7006,-2.7036,-2.6043,-2.5995,-2.6503,-2.5578,-2.4627,-2.3668,-2.3043,-2.2475,-2.2084,-2.255,-2.2923,-2.3324,-2.3778,-2.3069,-2.1864,-2.125,-2.1391,-2.1711,-2.1051,-2.0969,-2.0946,-2.0481,-1.9966,-1.9306,-1.8369,-1.7987,-1.7655,-1.7089,-1.6693,-1.6436,-1.6436,-1.6971,-1.73,-1.6684,-1.642,-1.606,-1.5237,-1.4812,-1.4392,-1.3815,-1.3515,-1.3314,-1.3266,-1.3094,-1.2695,-1.1921,-1.1592,-1.1172,-1.0498,-1.036,-1.024,-1.001,-1.0001,-0.9981,-0.997,-0.958,-0.9597,-1.0074,-0.9395,-0.9233,-0.9636,-0.9238,-0.8985,-0.8903,-0.8903,-0.8738,-2.9046,-2.9081,-2.8914,-2.9041,-2.8793,-2.8168,-2.7063,-2.6168,-2.4905,-2.2401,-2.1237,0.0,-1.8989,-1.9983,0.0,0.0,0.0,0.0,-2.6839,-2.7372,-2.7883,0.0,-2.8631,0.0,-2.9228,-2.8582,-2.8395,-2.8948,-2.6766,-2.5837,-2.6816,-2.6601,-2.6537,-2.6775,-2.6708,-2.6877,-2.7369,-2.7827,-2.8237,-2.863,-2.8648,-2.8545,-2.8286,-2.7887,-2.7508,-2.7166,-2.6656,-2.6646,-2.6892,-2.6351,-2.5496,-2.4497,-2.4017,-2.344,-2.2927,-2.3339,-2.3719,-2.3973,-2.4411,-2.381,-2.2823,-2.2339,-2.2334,-2.244,-2.196,-2.1799,-2.1654,-2.1206,-2.0795,-2.0275,-1.9229,-1.8937,-1.8675,-1.8026,-1.765,-1.7308,-1.6948,-1.7533,-1.7971,-1.7424,-1.6912,-1.6359,-1.5802,-1.54,-1.5064,-1.4549,-1.421,-1.3962,-1.3912,-1.3283,-1.2725,-1.2282,-1.192,-1.1588,-1.1219,-1.1013,-1.0871,-1.0824,-1.0582,-1.0462,-1.0541,-1.0067,-0.9955,-1.0308,-0.9723,-0.9511,-0.9732,-0.9472,-0.9256,-0.9113,-0.9113,-0.8956,-2.9864,-2.981,-2.9589,-2.9358,-2.8656,-2.7655,-2.6198,-2.5049,-2.3483,-2.0582,0.0,-1.9439,-1.8115,-1.9248,-2.0711,-2.1763,0.0,-2.6149,-2.6615,-2.7378,-2.8237,-2.9147,-2.8738,-2.9026,-3.0694,-3.0068,-2.9727,-3.018,-2.8053,-2.7041,-2.7737,-2.7199,-2.6961,-2.7161,-2.7097,-2.7437,-2.8186,-2.9076,-2.9506,-2.9487,-2.961,-2.9265,-2.8525,-2.8791,-2.8337,-2.7313,-2.7463,-2.7351,-2.7007,-2.6926,-2.6252,-2.5213,-2.5162,-2.4578,-2.3846,-2.4144,-2.4265,-2.4328,-2.4547,-2.4426,-2.4063,-2.3776,-2.3463,-2.3113,-2.2892,-2.2651,-2.2303,-2.1629,-2.1569,-2.1434,-2.0161,-2.0003,-1.9927,-1.9252,-1.8845,-1.8426,-1.7726,-1.8101,-1.8483,-1.8175,-1.7463,-1.6885,-1.6514,-1.6209,-1.5891,-1.562,-1.5247,-1.4997,-1.4777,-1.3599,-1.2812,-1.2812,-1.2508,-1.2274,-1.2175,-1.1927,-1.1778,-1.1728,-1.1261,-1.104,-1.1057,-1.0623,-1.0359,-1.0316,-1.0007,-0.9792,-0.9666,-0.971,-0.9561,-0.9263,-0.9306,-0.9148,-3.0781,-3.0651,-3.0278,-2.9428,-2.8974,-2.8107,-2.587,-2.422,0.0,0.0,-1.8449,-1.759,-1.6375,-1.7789,-1.9812,-2.1906,0.0,0.0,0.0,0.0,-2.7828,0.0,0.0,0.0,-3.1065,-3.0017,0.0,0.0,-2.9793,-2.863,-2.8066,-2.7862,-2.7862,-2.8081,-2.8698,-2.9111,-2.9248,-2.9403,-2.9851,-3.0525,-3.0507,-3.0179,-2.965,-3.0244,-2.9393,-2.75,-2.8016,-2.7801,-2.707,-2.6942,-2.6335,-2.5445,-2.538,-2.513,-2.4827,-2.4661,-2.4867,-2.5141,-2.4855,-2.4564,-2.4127,-2.3371,-2.3275,-2.3318,-2.2584,-2.2527,-2.2603,-2.2275,-2.1735,-2.1143,-2.0799,-2.0184,-1.9602,-1.9463,-1.9061,-1.8747,-1.861,-1.8591,-1.8592,-1.8495,-1.8147,-1.763,-1.6841,-1.6574,-1.6232,-1.5467,-1.5299,-1.5091,-1.4661,-1.3908,-1.3348,-1.3348,-1.2828,-1.248,-1.2421,-1.2283,-1.2076,-1.1728,-1.1616,-1.1358,-1.0972,-1.0864,-1.0712,-1.047,-1.0154,-1.0051,-1.0162,-1.0219,-0.9991,-0.9517,-0.9846,-0.9617,-3.1015,-3.0878,-3.0516,-2.9606,-2.8685,-2.7312,-2.4522,0.0,0.0,0.0,-1.6638,-1.6225,-1.4943,0.0,0.0,0.0,0.0,0.0,0.0,0.0,0.0,0.0,0.0,0.0,0.0,-3.0585,-3.0332,-3.1163,-3.0595,-3.0024,-2.9541,-2.9145,-2.8921,-2.8904,-2.9765,-3.0214,-3.0179,-3.063,-3.0855,-3.0803,-3.1237,-3.0855,-2.981,-3.0677,-3.0206,-2.8697,-2.903,-2.8639,-2.7703,-2.7672,-2.7028,-2.6101,-2.5967,-2.5865,-2.5728,-2.5445,-2.5403,-2.5454,-2.5162,-2.4766,-2.4313,-2.3753,-2.3541,-2.3406,-2.295,-2.2775,-2.2706,-2.2629,-2.2126,-2.1551,-2.1597,-2.1112,-2.0568,-2.0535,-1.9907,-1.9339,-1.941,-1.9119,-1.8832,-1.8785,-1.8625,-1.8221,-1.7591,-1.7288,-1.7004,-1.6547,-1.6245,-1.5974,-1.5745,-1.4975,-1.4304,-1.3972,-1.3355,-1.2903,-1.2903,-1.2603,-1.2323,-1.2126,-1.1927,-1.1678,-1.1418,-1.1226,-1.1023,-1.082,-1.0514,-1.0454,-1.0643,-1.0461,-1.0242,-1.003,-0.9909,-0.9669,-3.1014,-3.1021,-3.0819,-2.9923,-2.8557,-2.6628,-2.3719,-2.146,0.0,0.0,-1.5326,-1.5259,-1.4092,0.0,-1.8062,0.0,-2.1532,0.0,0.0,0.0,0.0,0.0,0.0,0.0,-3.1424,-3.0855,0.0,-3.127,-3.1198,-3.0989,-3.0612,-3.0089,-2.9845,-2.9851,-3.0716,-3.115,-3.1098,-3.1603,-3.1603,-3.1116,-3.162,-3.1237,-3.0122,-3.1024,-3.0795,-2.9662,-2.9819,-2.9236,-2.8176,-2.8144,-2.7619,-2.6825,-2.6624,-2.6521,-2.6453,-2.5936,-2.575,-2.5626,-2.5255,-2.4784,-2.4337,-2.4214,-2.3925,-2.3523,-2.32,-2.2965,-2.2857,-2.2622,-2.2232,-2.1969,-2.2203,-2.1852,-2.1452,-2.1396,-2.0673,-2.0074,-2.0092,-1.9649,-1.917,-1.9073,-1.8946,-1.8679,-1.8247,-1.792,-1.7755,-1.759,-1.7256,-1.6987,-1.6931,-1.62,-1.5461,-1.4908,-1.3972,-1.3394,-1.3445,-1.2966,-1.2578,-1.2529,-1.2175,-1.1977,-1.1877,-1.1628,-1.1368,-1.1175,-1.0996,-1.0978,-1.1048,-1.0814,-1.0632,-1.0591,-1.0232,-0.9945,-3.0924,-3.1339,-3.1558,-3.0619,-2.9194,-2.7318,-2.4725,0.0,0.0,-1.6607,-1.5538,-1.4811,-1.4272,-1.4903,-1.6238,-1.8507,0.0,-2.1661,0.0,0.0,0.0,0.0,0.0,0.0,-3.0975,-2.9934,-3.0123,-3.2441,-3.2009,-3.1154,-3.0047,-2.9924,-3.0239,-3.0939,-3.169,-3.2074,-3.2074,-3.1481,-3.1481,-3.2074,-3.1463,-3.1231,-3.1356,-3.1999,-3.1155,-2.92,-2.9688,-2.9082,-2.7747,-2.7613,-2.7487,-2.731,-2.7117,-2.6957,-2.6724,-2.5732,-2.5592,-2.5803,-2.4843,-2.4249,-2.3997,-2.4362,-2.4151,-2.3591,-2.2653,-2.2717,-2.2936,-2.2105,-2.177,-2.1751,-2.2275,-2.1763,-2.1162,-2.1191,-2.1042,-2.0769,-2.0459,-2.0144,-1.9761,-1.9279,-1.9093,-1.8827,-1.8422,-1.8193,-1.803,-1.7909,-1.77,-1.7545,-1.7278,-1.6989,-1.6711,-1.6455,-1.4742,-1.373,-1.3831,-1.3362,-1.2881,-1.2529,-1.2323,-1.2175,-1.1927,-1.1877,-1.1728,-1.1477,-1.1619,-1.1542,-1.1156,-1.1647,-1.161,-1.1223,-1.1453,-1.1183,-3.0595,-3.1375,-3.1617,-3.037,-2.885,-2.6894,-2.403,0.0,-1.846,-1.622,-1.5122,-1.4354,-1.3777,-1.4338,-1.5361,-1.6823,-1.8138,0.0,0.0,0.0,0.0,0.0,0.0,0.0,0.0,0.0,-3.026,-3.1385,-3.0814,-3.0624,-3.1018,-3.0977,-3.1009,-3.1194,-3.1577,-3.159,-3.1129,-3.0783,-3.0536,-3.0328,-3.0536,-3.0409,-3.0092,-3.0889,-3.0792,-2.9947,-2.9619,-2.9074,-2.8386,-2.7809,-2.7496,-2.7373,-2.723,-2.7103,-2.6939,-2.632,-2.608,-2.5983,-2.4938,-2.4643,-2.4576,-2.3716,-2.3776,-2.4013,-2.2903,-2.2381,-2.2079,-2.1566,-2.131,-2.1269,-2.1782,-2.1721,-2.1503,-2.1452,-2.1277,-2.0983,-2.0523,-2.0321,-2.0016,-1.9344,-1.9198,-1.9105,-1.8614,-1.8452,-1.8356,-1.8247,-1.7931,-1.7656,-1.7545,-1.7245,-1.6955,-1.6751,-1.5306,-1.4346,-1.4336,-1.3591,-1.3055,-1.2881,-1.2735,-1.2578,-1.2382,-1.2365,-1.2238,-1.2032,-1.2192,-1.2231,-1.2124,-1.202,-1.1799,-1.1465,-1.1395,-1.1115,-2.9236,-3.0472,-3.1133,-3.0087,-2.8296,-2.6033,0.0,0.0,-1.7648,-1.5546,-1.4534,-1.3845,-1.3447,-1.3905,-1.4624,-1.5488,-1.6759,-1.8365,-2.0455,0.0,0.0,0.0,0.0,-2.7906,0.0,-3.0125,-3.0617,-3.0725,-3.0351,-3.0621,-3.1887,-3.1828,-3.1676,-3.1441,-3.1473,-3.1182,-3.0427,-3.0135,-2.9791,-2.9503,-2.9839,-2.9958,-2.9869,-3.0297,-3.0517,-3.054,-2.9632,-2.9083,-2.8688,-2.8111,-2.7719,-2.7557,-2.74,-2.7244,-2.7036,-2.6505,-2.6267,-2.609,-2.5097,-2.4745,-2.458,-2.3449,-2.3365,-2.3506,-2.258,-2.2129,-2.1864,-2.1336,-2.1307,-2.1513,-2.1783,-2.1861,-2.1841,-2.1664,-2.1423,-2.1082,-2.0623,-2.0422,-2.0118,-1.9302,-1.9297,-1.9254,-1.8637,-1.8626,-1.8679,-1.853,-1.8193,-1.792,-1.7931,-1.7634,-1.7357,-1.72,-1.5967,-1.5091,-1.4872,-1.394,-1.3385,-1.3449,-1.3312,-1.3214,-1.3192,-1.3124,-1.2915,-1.2629,-1.2744,-1.2689,-1.2516,-1.2239,-1.2003,-1.1842,-1.1651,-1.1406,-2.6531,-2.8393,-3.0124,-3.0021,-2.7672,-2.4935,0.0,0.0,-1.6453,-1.4836,-1.3816,-1.3278,-1.3462,-1.3512,-1.385,-1.4851,-1.5757,-1.74,-2.0484,0.0,0.0,0.0,0.0,-2.711,-2.812,-2.9954,-3.1084,-3.1084,-3.1146,-3.151,-3.2264,-3.2226,-3.2054,-3.1693,-3.1631,-3.1258,-3.0505,-2.9645,-2.9615,-3.0361,-2.9668,-3.0125,-3.1653,-3.0856,-3.0606,-3.0733,-2.9804,-2.9016,-2.8398,-2.8398,-2.8219,-2.7968,-2.776,-2.7461,-2.6967,-2.5976,-2.5916,-2.6144,-2.524,-2.4307,-2.3573,-2.3941,-2.3006,-2.1674,-2.1409,-2.1995,-2.2585,-2.151,-2.1975,-2.2735,-2.2463,-2.2278,-2.2091,-2.1712,-2.1423,-2.1131,-2.0858,-2.0472,-1.9965,-1.9133,-1.9307,-1.9339,-1.8529,-1.8702,-1.8946,-1.8798,-1.8679,-1.8518,-1.8422,-1.8367,-1.8313,-1.8096,-1.6879,-1.5877,-1.5444,-1.4395,-1.3962,-1.4273,-1.4043,-1.4022,-1.4357,-1.4247,-1.384,-1.3096,-1.3173,-1.2815,-1.2017,-1.2247,-1.2414,-1.2372,-1.2506,-1.2428,-2.3425,-2.4916,-2.603,-2.4984,-2.3519,-2.1935,-2.0442,-1.8191,-1.5993,-1.4469,-1.3872,-1.3482,-1.3017,-1.3368,-1.4023,-1.4993,-1.5869,-1.6985,0.0,0.0,0.0,0.0,-2.6954,-2.9179,0.0,-3.0775,-3.1164,-3.1164,-3.0732,-3.0768,-3.151,-3.1045,-3.0929,-3.1207,-3.1099,-3.0481,-2.9295,-2.8865,-2.8829,-2.917,-2.8892,-2.8774,-2.8765,-2.9176,-2.875,-2.7737,-2.799,-2.789,-2.752,-2.745,-2.7665,-2.7986,-2.7871,-2.7647,-2.7289,-2.6796,-2.6572,-2.6351,-2.5394,-2.4775,-2.429,-2.3282,-2.278,-2.2359,-2.1136,-2.1157,-2.1515,-2.1004,-2.1208,-2.1672,-2.2047,-2.215,-2.2137,-2.1949,-2.1616,-2.1215,-2.0858,-2.026,-1.9654,-1.9107,-1.8808,-1.8635,-1.8534,-1.8655,-1.8836,-1.9162,-1.8786,-1.8464,-1.8518,-1.8236,-1.803,-1.781,-1.6983,-1.6272,-1.5895,-1.4688,-1.3979,-1.4089,-1.4128,-1.4165,-1.4195,-1.3975,-1.3698,-1.3396,-1.3095,-1.2777,-1.2436,-1.2658,-1.2739,-1.2696,-1.2749,-1.256,0.0,-2.2038,-2.2975,-2.2086,-2.0933,-1.9737,-1.8627,-1.7026,-1.5382,-1.3886,-1.3506,-1.3282,-1.2829,-1.312,-1.3733,-1.4627,-1.5264,0.0,0.0,0.0,0.0,0.0,0.0,0.0,0.0,-3.038,-3.0558,-3.0801,-3.0461,-3.043,-3.0851,-3.0754,-3.0711,-3.0768,-3.0577,-2.9908,-2.8785,-2.8637,-2.8587,-2.8662,-2.8662,-2.8578,-2.8421,-2.867,-2.8427,-2.7835,-2.7953,-2.7925,0.0,-2.7677,-2.7834,-2.8081,-2.7986,-2.7959,-2.7927,-2.7333,-2.7095,-2.6944,-2.5913,-2.5258,-2.4671,-2.3582,-2.3093,-2.2726,-2.1435,-2.1023,-2.0903,-2.073,-2.0858,-2.1133,-2.144,-2.1785,-2.1971,-2.1741,-2.1594,-2.1361,-2.1019,-2.0227,-1.9433,-1.8938,-1.8526,-1.8304,-1.8497,-1.8586,-1.8794,-1.9386,-1.8999,-1.8679,-1.8786,-1.8506,-1.829,-1.8247,-1.756,-1.6949,-1.6735,-1.527,-1.4403,-1.4588,-1.459,-1.466,-1.479,-1.454,-1.4311,-1.4093,-1.3709,-1.336,-1.3059,-1.3107,-1.2957,-1.2783,-1.2801,-1.2671,0.0,-1.9573,0.0,-2.0642,-1.9442,-1.8126,-1.7435,-1.607,0.0,-1.3147,-1.2788,-1.2756,-1.2756,-1.2743,-1.3058,-1.4056,-1.4257,0.0,0.0,0.0,0.0,0.0,-2.6753,0.0,-2.8929,-2.9185,-2.9562,-3.016,-3.0341,-3.0368,-3.0236,-3.0996,-3.1075,-3.0341,-3.0021,-2.9557,-2.8929,-2.8858,-2.881,-2.8828,-2.8881,-2.9271,-2.9887,-2.9144,-2.9271,-2.9982,-2.9227,-2.8868,-2.879,-2.8725,-2.8554,-2.8389,-2.817,-2.8417,-2.8753,-2.7624,-2.7536,-2.7775,-2.6686,-2.5673,-2.4783,-2.4457,-2.3651,-2.2713,-2.2094,-2.1356,-2.0707,-2.0586,-2.0853,-2.1085,-2.0867,-2.1284,-2.1685,-2.1268,-2.1365,-2.1513,-2.1264,-2.0312,-1.9413,-1.8802,-1.8546,-1.8439,-1.8431,-1.8571,-1.8844,-1.953,-1.9251,-1.9052,-1.9223,-1.9105,-1.9052,-1.9182,-1.8374,-1.7784,-1.7784,-1.6099,-1.5164,-1.5581,-1.5337,-1.5387,-1.5935,-1.5696,-1.5389,-1.5124,-1.4736,-1.4275,-1.3812,-1.3568,-1.3252,-1.2772,-1.286,-1.2707,-1.503,0.0,-1.6673,-1.6182,-1.5677,-1.5278,0.0,-1.4405,-1.3443,0.0,0.0,0.0,-1.2333,-1.2222,-1.2805,-1.4907,0.0,0.0,0.0,0.0,0.0,-2.6225,-2.8418,-2.9835,-3.0091,-3.0154,-3.0268,-3.0409,-2.9941,-2.9609,-2.9548,-2.9734,-2.9752,-2.9548,-2.9414,-2.9292,-2.9134,-2.8998,-2.8947,-2.8947,-2.9021,-2.8778,-2.8283,-2.886,-2.8474,-2.7449,-2.8471,-2.8492,-2.7869,-2.829,-2.881,-2.9268,-2.9073,-2.9379,-2.9841,-2.8725,-2.8328,-2.8115,-2.6996,-2.6017,-2.5013,-2.3422,-2.2631,-2.2118,-2.1151,-2.0906,-2.085,-2.0525,-2.045,-2.0644,-2.1595,-2.183,-2.1843,-2.2045,-2.1675,-2.1194,-2.1183,-2.0139,-1.9237,-1.937,-1.8943,-1.8648,-1.8938,-1.8932,-1.9108,-1.9672,-1.9396,-1.9186,-1.9328,-1.9158,-1.8999,-1.8905,-1.8334,-1.7962,-1.7962,-1.6641,-1.5834,-1.5854,-1.5615,-1.5523,-1.5538,-1.5133,-1.4973,-1.5046,-1.4277,-1.3838,-1.367,-1.3827,-1.3865,-1.369,-1.3412,-1.3098,-1.3629,-1.4471,-1.4994,-1.5038,-1.497,-1.4927,-1.5019,0.0,0.0,0.0,0.0,0.0,0.0,0.0,0.0,0.0,-1.5991,0.0,0.0,0.0,0.0,-2.6637,-2.8359,-2.9505,-2.9965,-2.9688,-2.9653,-3.0046,-2.9379,-2.91,-2.9434,-2.9472,-2.9472,-2.9453,-2.933,-2.9265,-2.92,-2.913,-2.9089,-2.9089,-2.9112,-2.8913,-2.8507,-2.9015,-2.8719,-2.7883,-2.8725,-2.8764,-2.8288,-2.8506,-2.9006,-2.9674,-2.9444,-2.9994,-3.0769,-2.933,-2.8885,-2.8862,-2.7382,-2.6437,-2.5647,-2.4425,-2.3886,-2.343,-2.1972,-2.1533,-2.1318,-2.0356,-1.9967,-1.9953,-2.048,-2.1048,-2.1441,-2.1524,-2.16,-2.1685,-2.1582,-2.0563,-1.9688,-1.9695,-1.9128,-1.884,-1.92,-1.9168,-1.9246,-1.9787,-1.9604,-1.9396,-1.946,-1.9263,-1.9117,-1.9064,-1.8694,-1.8378,-1.8127,-1.754,-1.6907,-1.628,-1.5949,-1.5747,-1.5688,-1.552,-1.5531,-1.5587,-1.4939,-1.4401,-1.3978,-1.4172,-1.4084,-1.366,-1.3678,-1.3438,-1.3259,-1.4022,-1.4591,-1.5197,-1.5502,-1.563,-1.5611,0.0,0.0,0.0,0.0,0.0,0.0,0.0,0.0,0.0,0.0,0.0,-2.0952,-2.2374,-2.4074,-2.6488,-2.7586,-2.8406,-2.9024,-2.8745,-2.8708,-2.9214,-2.8745,-2.8744,-2.9401,-2.9495,-2.9551,-2.9608,-2.9491,-2.9351,-2.9222,-2.9222,-2.924,-2.92,-2.9092,-2.9153,-2.9347,-2.9175,-2.9196,-2.9372,-2.9304,-2.924,-2.9175,-2.9009,-2.9319,-2.9826,-2.9825,-3.0505,-3.135,-2.973,-2.9372,-2.9425,-2.7681,-2.6757,-2.6251,-2.5898,-2.5664,-2.5146,-2.3426,-2.2645,-2.1987,-2.0546,-1.9766,-1.9317,-1.9065,-1.9926,-2.0819,-2.0699,-2.1481,-2.2175,-2.2049,-2.1208,-2.0354,-2.0043,-1.9428,-1.9053,-1.951,-1.9402,-1.9494,-1.9953,-1.9823,-1.9656,-1.9668,-1.9473,-1.9328,-1.942,-1.9125,-1.8827,-1.8401,-1.8367,-1.7982,-1.7013,-1.6409,-1.6114,-1.6065,-1.6223,-1.6345,-1.6234,-1.5871,-1.5243,-1.4478,-1.4597,-1.4246,-1.3543,-1.3816,-1.3687,-1.3766,-1.4614,-1.4509,-1.3902,-1.477,-1.5603,-1.4936,0.0,0.0,0.0,0.0,0.0,0.0,-1.3066,-1.4317,0.0,0.0,-2.0264,0.0,0.0,-2.4189,-2.601,-2.7469,-2.8164,-2.7672,-2.8742,-2.8968,-2.7746,-2.8229,-2.8623,-2.8755,-2.8702,-2.8985,-2.9662,-2.9551,-2.9453,-2.9372,-2.9368,-2.9344,-2.9283,-2.8584,-2.86,-2.9203,-2.8503,-2.8577,-2.9222,-2.9175,-2.9112,-2.9144,-2.9564,-2.9828,-3.0083,-3.1171,-3.129,-3.0801,-3.0345,-2.9726,-2.8912,-2.7526,-2.6516,-2.581,-2.543,-2.5175,-2.4818,-2.3708,-2.3099,-2.2713,-2.229,-2.0825,-1.9494,-1.9885,-2.0113,-2.0469,-2.137,-2.1441,-2.1455,-2.2038,-2.1316,-2.0678,-2.0941,-2.0193,-1.9745,-2.0237,-2.0051,-1.9859,-2.0143,-2.0131,-2.008,-1.9926,-1.9888,-1.9784,-1.9617,-1.9156,-1.893,-1.9209,-1.8663,-1.8385,-1.8462,-1.7337,-1.6563,-1.6287,-1.6227,-1.6146,-1.5968,-1.5624,-1.5256,-1.4934,-1.5157,-1.4993,-1.4452,-1.4063,-1.3691,-1.2258,-1.3436,-1.4026,-1.3659,-1.5431,-1.7281,-1.7393,0.0,0.0,0.0,0.0,0.0,0.0,0.0,-1.6421,-1.8896,0.0,-2.1286,-2.3417,-2.3701,-2.4312,-2.5962,-2.6755,-2.7213,-2.7336,-2.7568,-2.7625,-2.7406,-2.7311,-2.7463,-2.7967,-2.835,-2.8714,-2.9091,-2.9419,-2.9383,-2.8857,-2.8818,-2.8739,-2.8598,-2.7785,-2.7581,-2.7951,-2.7602,-2.792,-2.87,-2.8639,-2.8839,-2.9222,-2.9402,-2.996,-3.0768,-3.1284,-3.1526,-3.1369,-3.0237,-2.9124,-2.8119,-2.7431,-2.6897,-2.6429,-2.6117,-2.5797,-2.5421,-2.4608,-2.3997,-2.3469,-2.3052,-2.1327,-1.9752,-2.0271,-2.027,-2.0335,-2.1222,-2.1235,-2.1393,-2.2614,-2.1701,-2.0741,-2.1135,-2.037,-1.9692,-1.9724,-1.964,-1.9687,-2.0109,-2.0067,-2.0049,-2.0283,-2.0131,-1.9939,-1.9823,-1.9233,-1.8784,-1.8759,-1.8449,-1.8311,-1.8446,-1.7763,-1.7147,-1.6822,-1.6735,-1.6494,-1.6084,-1.5628,-1.531,-1.5249,-1.5021,-1.4725,-1.4382,-1.433,-1.4079,-1.1431,-1.2655,-1.3688,-1.3917,-1.5979,-1.8248,-1.9307,-1.8413,0.0,0.0,0.0,0.0,0.0,-1.6789,0.0,-2.0979,-2.1455,-2.2133,-2.3852,-2.3947,-2.4353,-2.5763,-2.6067,-2.6355,-2.682,-2.6567,-2.6544,-2.6911,-2.6451,-2.6569,-2.7452,-2.7858,-2.8241,-2.8638,-2.8974,-2.8849,-2.8197,-2.7919,-2.7774,-2.7729,-2.6932,-2.6766,-2.7195,-2.7047,-2.7606,-2.8596,-2.8558,-2.8836,-2.9353,-2.9428,-2.9991,-3.0821,-3.1071,-3.1392,-3.1465,-2.9546,-2.8255,-2.742,-2.7068,-2.6849,-2.6713,-2.6696,-2.6437,-2.6033,-2.5698,-2.5091,-2.4353,-2.3837,-2.2147,-2.0496,-2.0699,-2.0563,-2.0524,-2.1156,-2.1447,-2.1928,-2.3212,-2.2214,-2.1148,-2.1325,-2.0456,-1.9625,-1.9414,-1.9391,-1.9588,-2.0005,-2.0107,-2.0231,-2.0594,-2.0531,-2.037,-2.0191,-1.9515,-1.8882,-1.8384,-1.8485,-1.8498,-1.8275,-1.7873,-1.7521,-1.7207,-1.7159,-1.6917,-1.6401,-1.5636,-1.5328,-1.554,-1.5054,-1.472,-1.4395,-1.4621,-1.4492,-1.3083,-1.3592,-1.3868,-1.4625,-1.56,0.0,-1.8421,-1.8156,0.0,-1.7489,0.0,0.0,0.0,-1.8371,-2.0518,-2.2133,-2.244,-2.3103,-2.4777,-2.4362,-2.4221,-2.5082,-2.5825,-2.6021,-2.5336,-2.6612,-2.6873,-2.5378,-2.5952,-2.6713,-2.7466,-2.6839,-2.7181,-2.8726,-2.7998,-2.7566,-2.7557,-2.6706,-2.6502,-2.6971,-2.6154,-2.66,-2.809,-2.7345,-2.7905,-2.9495,-2.9495,-2.9495,-2.9528,-3.0213,-3.003,-2.9488,-3.0858,-3.0924,-3.0002,-2.8135,-2.7378,-2.714,-2.603,-2.5623,-2.5728,-2.6395,-2.6394,-2.623,-2.6916,-2.6373,-2.5443,-2.5213,-2.3819,-2.2232,-2.1444,-2.1182,-2.1292,-2.1873,-2.2678,-2.3403,-2.3716,-2.293,-2.2115,-2.1886,-2.0586,-1.9657,-2.0147,-1.9949,-1.9834,-1.9972,-2.0612,-2.1032,-2.0818,-2.1434,-2.1572,-2.0841,-2.0278,-1.9568,-1.8755,-1.931,-1.9346,-1.8541,-1.775,-1.7291,-1.7107,-1.7267,-1.7279,-1.704,-1.5448,-1.5105,-1.6051,-1.5921,-1.5683,-1.5314,-1.4938,-1.4817,-1.2101,-1.3022,-1.3895,-1.42,-1.573,0.0,0.0,-1.901,-1.9503,-2.0518,-2.0628,0.0,0.0,0.0,-2.0156,-2.2286,-2.264,-2.3254,-2.4927,-2.4471,-2.4271,-2.5133,-2.4985,-2.4916,-2.5198,-2.5757,-2.5834,-2.5217,-2.5466,-2.578,-2.6051,-2.6305,-2.6706,-2.7351,-2.7498,-2.7319,-2.677,-2.6401,-2.6039,-2.5637,-2.534,-2.5528,-2.6148,-2.6352,-2.7132,-2.8326,-2.8736,-2.9193,-2.9626,-2.979,-2.9909,-3.0061,-3.0572,-3.0509,-2.9966,-2.8688,-2.7773,-2.7112,-2.6647,-2.6454,-2.6411,-2.6549,-2.6795,-2.7098,-2.74,-2.7047,-2.6373,-2.5676,-2.4671,-2.3498,-2.2228,-2.1392,-2.1045,-2.1693,-2.2072,-2.2446,-2.3217,-2.2623,-2.1869,-2.169,-2.0609,-1.9707,-1.9643,-1.9425,-1.9534,-2.0498,-2.0401,-2.0529,-2.1455,-2.1254,-2.0969,-2.0751,-2.026,-1.9222,-1.7467,-1.7574,-1.7862,-1.8107,-1.8561,-1.8413,-1.7387,-1.7286,-1.6907,-1.6279,-1.5504,-1.5421,-1.614,-1.6077,-1.5955,-1.5823,-1.586,-1.571,-1.1472,-1.2445,-1.3445,0.0,0.0,0.0,-1.7965,-1.94,-2.0968,-2.2122,-2.1706,-2.1055,-2.0718,0.0,0.0,0.0,-2.2987,-2.3659,-2.5071,-2.4793,-2.4553,-2.487,-2.4351,-2.4216,-2.4861,-2.4879,-2.4869,-2.4889,-2.512,-2.5244,-2.5224,-2.5802,-2.6243,-2.6521,-2.6809,-2.6672,-2.6022,-2.6022,-2.57,-2.5056,-2.505,-2.5152,-2.5338,-2.5901,-2.6683,-2.7594,-2.8328,-2.8912,-2.9393,-2.9514,-2.981,-3.0169,-3.012,-2.9991,-2.9766,-2.8883,-2.788,-2.6982,-2.6947,-2.6693,-2.6476,-2.6834,-2.7219,-2.7571,-2.7844,-2.7678,-2.7152,-2.5893,-2.5137,-2.4356,-2.2801,-2.1873,-2.1472,-2.1919,-2.2104,-2.2356,-2.3023,-2.2452,-2.1799,-2.1842,-2.0844,-2.001,-1.9841,-1.9701,-1.9876,-2.0583,-2.0587,-2.0793,-2.1658,-2.141,-2.114,-2.1083,-2.0441,-1.9279,-1.7474,-1.7366,-1.7733,-1.8397,-1.8919,-1.875,-1.7822,-1.7634,-1.7304,-1.6822,-1.642,-1.644,-1.6853,-1.6599,-1.6521,-1.6567,-1.6631,-1.6417,-1.1646,-1.2035,0.0,0.0,0.0,0.0,-1.6527,-1.9155,-2.162,-2.161,-2.0986,-2.0696,-2.1551,-2.172,0.0,-2.2784,-2.3632,-2.4485,-2.5299,-2.5395,-2.505,-2.4205,-2.409,-2.4079,-2.4094,-2.4094,-2.4149,-2.4204,-2.4943,-2.537,-2.5303,-2.5312,-2.5687,-2.6554,-2.5809,-2.5401,-2.5401,-2.5401,-2.5404,-2.5398,-2.5398,-2.5674,-2.6192,-2.6269,-2.6817,-2.7758,-2.8542,-2.8822,-2.878,-2.9569,-2.9755,-2.9474,-2.9433,-2.9412,-2.928,-2.8336,-2.7458,-2.6716,-2.6636,-2.6062,-2.5596,-2.7273,-2.7629,-2.7562,-2.8352,-2.8353,-2.7715,-2.5914,-2.5302,-2.4788,-2.3055,-2.2697,-2.2777,-2.2699,-2.3227,-2.3618,-2.3331,-2.2678,-2.2181,-2.2452,-2.1377,-2.0559,-2.1023,-2.1176,-2.0941,-2.0147,-2.1372,-2.2105,-2.1301,-2.2003,-2.2419,-2.1931,-2.0895,-1.9894,-1.9176,-1.9302,-1.9487,-1.969,-1.8567,-1.8069,-1.8385,-1.8487,-1.8668,-1.9006,-1.8363,-1.8113,-1.8295,-1.7859,-1.7589,-1.7618,-1.7224,-1.6961,-1.1718,-1.2556,0.0,-1.2587,0.0,0.0,0.0,-1.9666,0.0,0.0,-2.2814,-2.2325,-2.2624,-2.2185,-2.2231,-2.365,-2.4064,-2.4508,-2.5356,-2.4455,-2.3836,-2.413,-2.3674,-2.3332,-2.332,-2.4397,-2.4842,-2.4244,-2.5033,-2.5517,-2.5449,-2.5498,-2.5614,-2.5824,-2.5594,-2.5464,-2.5464,-2.5472,-2.5456,-2.5397,-2.5451,-2.5532,-2.5657,-2.6303,-2.7033,-2.7849,-2.8046,-2.8753,-2.9756,-2.9858,-2.9448,-2.8856,-2.9401,-2.9175,-2.8611,-2.8928,-2.8497,-2.7751,-2.7675,-2.7485,-2.7329,-2.7684,-2.815,-2.8594,-2.859,-2.8164,-2.7378,-2.5888,-2.5051,-2.4331,-2.3023,-2.2706,-2.2694,-2.2541,-2.3212,-2.3653,-2.2751,-2.2834,-2.2844,-2.2086,-2.1826,-2.1579,-2.1094,-2.1972,-2.2417,-2.1462,-2.1906,-2.1991,-2.1038,-2.1274,-2.155,-2.1478,-2.0829,-2.0308,-2.01,-1.9782,-1.9508,-1.9288,-1.938,-1.9321,-1.8965,-1.8631,-1.8467,-1.8561,-1.8307,-1.8252,-1.8509,-1.8408,-1.8283,-1.81,-1.7993,-1.7682,-1.123,-1.2267,0.0,-1.3363,-1.6042,-1.8857,-1.9349,0.0,0.0,0.0,-2.3884,-2.3154,-2.3546,-2.3199,-2.3153,-2.4185,-2.4563,-2.4948,-2.546,-2.4665,-2.396,-2.3754,-2.3308,-2.2862,-2.2526,-2.3702,-2.4284,-2.3767,-2.4568,-2.5078,-2.5027,-2.5059,-2.522,-2.5525,-2.5531,-2.5538,-2.551,-2.5524,-2.5503,-2.5448,-2.548,-2.548,-2.5468,-2.5989,-2.6668,-2.747,-2.8063,-2.9032,-3.0163,-2.9713,-2.914,-2.8631,-2.9074,-2.8892,-2.8464,-2.9251,-2.9008,-2.8353,-2.8652,-2.8501,-2.8218,-2.8371,-2.8772,-2.913,-2.8881,-2.8439,-2.7707,-2.6236,-2.5412,-2.4668,-2.3257,-2.2842,-2.2712,-2.2487,-2.3055,-2.3445,-2.2685,-2.3045,-2.3339,-2.2636,-2.2442,-2.2264,-2.1746,-2.246,-2.2801,-2.1989,-2.2004,-2.1889,-2.1356,-2.1355,-2.1479,-2.1645,-2.1134,-2.0663,-2.0323,-2.0025,-1.9741,-1.9523,-1.9719,-1.9829,-1.9697,-1.9371,-1.9225,-1.917,-1.9092,-1.9081,-1.9144,-1.912,-1.9037,-1.8827,-1.8709,-1.829,-1.0463,0.0,0.0,-1.4004,-1.6189,0.0,-2.1245,-2.1797,-2.2491,-2.4957,0.0,-2.3456,-2.4243,-2.4393,-2.4427,-2.4508,-2.5126,-2.5615,-2.561,-2.5542,-2.4865,-2.3217,-2.2993,-2.2652,-2.1798,-2.2497,-2.3035,-2.31,-2.3869,-2.4341,-2.4405,-2.4418,-2.478,-2.5579,-2.5604,-2.5574,-2.5518,-2.5576,-2.5577,-2.5503,-2.5505,-2.5518,-2.5518,-2.5517,-2.5921,-2.6691,-2.8373,-2.9409,-2.9819,-2.9091,-2.8687,-2.8502,-2.8518,-2.8471,-2.8464,-2.925,-2.9099,-2.864,-2.9455,-2.9174,-2.8558,-2.9211,-2.939,-2.9304,-2.9156,-2.8943,-2.8372,-2.6759,-2.6056,-2.539,-2.3678,-2.3077,-2.2893,-2.2632,-2.2926,-2.3234,-2.3123,-2.3488,-2.3785,-2.3753,-2.3225,-2.2764,-2.2723,-2.2775,-2.2656,-2.2091,-2.1915,-2.1869,-2.2027,-2.1982,-2.1994,-2.2164,-2.1579,-2.0878,-2.0131,-2.0041,-2.0076,-2.0111,-1.9762,-1.9782,-2.0333,-2.0424,-2.0414,-2.0375,-2.0411,-2.0283,-2.0042,-1.9914,-1.9772,-1.955,-1.921,-1.8839,-1.0527,-1.2009,0.0,0.0,-1.7047,-1.9444,-2.1351,-2.1801,-2.2158,-2.3398,-2.3906,-2.4179,-2.437,-2.4408,-2.462,-2.53,-2.5577,-2.5683,-2.5675,-2.5087,-2.428,-2.3208,-2.3038,-2.2683,-2.1857,-2.2518,-2.327,-2.3976,-2.4239,-2.4647,-2.5282,-2.5323,-2.5401,-2.5587,-2.56,-2.5595,-2.5577,-2.5582,-2.5576,-2.5505,-2.5544,-2.557,-2.557,-2.559,-2.5661,-2.5964,-2.8212,-2.8521,-2.747,-2.7879,-2.762,-2.7031,-2.7586,-2.7366,-2.6892,-2.8403,-2.8863,-2.8867,-2.9726,-2.9851,-2.9626,-2.9643,-2.9664,-2.9664,-2.9412,-2.8762,-2.7853,-2.6753,-2.5756,-2.4784,-2.3702,-2.3313,-2.3199,-2.3206,-2.3831,-2.435,-2.4019,-2.467,-2.5053,-2.411,-2.4161,-2.396,-2.2767,-2.3665,-2.4328,-2.3615,-2.2683,-2.2101,-2.2298,-2.2158,-2.2027,-2.1965,-2.1507,-2.1023,-2.0577,-2.0441,-2.0308,-2.0204,-2.012,-2.0036,-1.9995,-1.9964,-2.0244,-2.082,-2.0733,-2.0549,-2.0309,-2.0309,-1.999,-1.9433,-1.9368,-1.9093,0.0,0.0,0.0,-1.5977,0.0,-1.9508,-2.083,-2.1446,-2.1757,-2.1795,-2.3201,-2.4403,-2.4393,-2.4394,-2.4687,-2.556,-2.5006,-2.461,-2.5027,-2.4339,-2.3452,-2.2585,-2.2824,-2.2563,-2.1305,-2.2317,-2.3246,-2.3688,-2.3755,-2.414,-2.4939,-2.4618,-2.4583,-2.5007,-2.502,-2.5211,-2.5595,-2.563,-2.56,-2.5543,-2.5579,-2.5593,-2.5621,-2.601,-2.6178,-2.6269,-2.7918,-2.8124,-2.731,-2.7324,-2.7036,-2.6631,-2.6973,-2.7105,-2.7163,-2.7962,-2.8811,-2.9564,-2.953,-2.978,-3.0083,-2.9902,-2.982,-2.9787,-2.9626,-2.9156,-2.8402,-2.7137,-2.6248,-2.5361,-2.4121,-2.3642,-2.3491,-2.3491,-2.3978,-2.4413,-2.4147,-2.4795,-2.5161,-2.4305,-2.441,-2.4305,-2.3256,-2.4141,-2.4916,-2.4607,-2.3519,-2.2955,-2.3598,-2.3102,-2.2634,-2.2537,-2.2119,-2.1715,-2.1352,-2.0991,-2.0667,-2.0361,-2.0481,-2.0548,-2.0579,-2.037,-2.0196,-2.0083,-2.0375,-2.0534,-2.0562,-2.0276,-1.9744,-1.9008,-1.9342,-1.9132,0.0,0.0,-1.289,-1.6894,-1.8387,0.0,-2.0175,-2.0822,-2.1068,-2.0496,-2.252,-2.4339,-2.4196,-2.4395,-2.4793,-2.539,-2.4374,-2.3672,-2.4116,-2.3662,-2.2937,-2.192,-2.2435,-2.2291,-2.0853,-2.1898,-2.2786,-2.3075,-2.2955,-2.3224,-2.4055,-2.3467,-2.3439,-2.4141,-2.4313,-2.47,-2.5363,-2.5431,-2.5425,-2.5379,-2.5391,-2.5442,-2.5615,-2.6295,-2.6598,-2.6644,-2.7435,-2.771,-2.7536,-2.6881,-2.6556,-2.6486,-2.6431,-2.6884,-2.7569,-2.7545,-2.8574,-2.9888,-2.9224,-2.9526,-3.0226,-3.0085,-2.9867,-2.9674,-2.9642,-2.9396,-2.8802,-2.732,-2.6693,-2.611,-2.456,-2.3983,-2.3821,-2.3783,-2.3947,-2.4155,-2.4196,-2.4761,-2.5112,-2.4597,-2.4569,-2.4454,-2.3883,-2.444,-2.4974,-2.5005,-2.4172,-2.3848,-2.4771,-2.3946,-2.3271,-2.3265,-2.2875,-2.2459,-2.2068,-2.1497,-2.1006,-2.0613,-2.099,-2.1348,-2.1595,-2.1258,-2.0635,-1.9651,-1.9958,-2.0274,-2.058,-2.0043,-1.9407,-1.8682,-1.9283,-1.9144,0.0,0.0,-1.4322,0.0,-1.7893,-1.8403,0.0,0.0,-1.9529,0.0,-2.2447,-2.4083,-2.3329,-2.443,-2.5258,-2.4676,-2.4963,-2.4807,-2.3454,-2.3766,-2.355,-2.1992,-2.1855,-2.1816,-2.164,-2.1152,-2.1465,-2.2985,-2.2397,-2.2354,-2.3203,-2.3166,-2.313,-2.3192,-2.3977,-2.4428,-2.4466,-2.4489,-2.4488,-2.4464,-2.4469,-2.4878,-2.5597,-2.5718,-2.5768,-2.5809,-2.6598,-2.6553,-2.5919,-2.5796,-2.5719,-2.5661,-2.5654,-2.5719,-2.5913,-2.6651,-2.7516,-2.8407,-2.9031,-2.9786,-3.0425,-3.0241,-2.9736,-2.9174,-2.9055,-2.8354,-2.738,-2.642,-2.6016,-2.568,-2.4715,-2.4386,-2.4334,-2.4435,-2.4373,-2.4411,-2.4917,-2.5699,-2.6093,-2.5395,-2.5166,-2.4908,-2.4244,-2.4754,-2.5024,-2.4427,-2.411,-2.3937,-2.4039,-2.3553,-2.3294,-2.343,-2.3003,-2.2563,-2.2272,-2.177,-2.1306,-2.0959,-2.1949,-2.2618,-2.2755,-2.2459,-2.2122,-2.1799,-2.0106,-1.9561,-2.0194,-1.9647,-1.9357,-1.9266,-1.9448,-1.9455,-0.7915,-1.0356,-1.3089,0.0,-1.6285,-1.6868,-1.9051,0.0,-1.9189,-2.0111,-2.1596,-2.2637,-2.2289,-2.2863,-2.3458,-2.3585,-2.3092,-2.2604,-2.2398,-2.2262,-2.1911,-2.1154,-2.1434,-2.1534,-2.11,-2.1165,-2.154,-2.2304,-2.2012,-2.1972,-2.234,-2.2379,-2.2362,-2.2324,-2.2734,-2.3398,-2.4355,-2.4354,-2.4588,-2.5038,-2.5039,-2.5234,-2.5605,-2.5605,-2.5599,-2.5609,-2.5976,-2.5925,-2.5593,-2.561,-2.56,-2.56,-2.5566,-2.5887,-2.6315,-2.6173,-2.6941,-2.8034,-2.7892,-2.8393,-2.9081,-2.9013,-2.8711,-2.8418,-2.8349,-2.7968,-2.7344,-2.6511,-2.6186,-2.5887,-2.5048,-2.4761,-2.47,-2.479,-2.4733,-2.4719,-2.503,-2.5241,-2.543,-2.5579,-2.5597,-2.543,-2.5152,-2.5929,-2.6256,-2.5299,-2.5429,-2.5592,-2.5474,-2.4252,-2.3522,-2.3946,-2.3592,-2.3218,-2.3007,-2.2855,-2.2922,-2.3217,-2.3824,-2.4155,-2.4228,-2.3381,-2.2746,-2.2435,-2.0861,-1.9867,-1.9544,-1.8975,-1.932,-2.05,-1.9964,-1.9499,0.0,0.0,-1.1219,-1.355,-1.4297,-1.5105,0.0,0.0,-1.8286,-1.9641,-2.0403,-2.0916,-2.1189,-2.1662,-2.2161,-2.261,-2.1741,-2.1119,-2.1414,-2.1064,-2.069,-2.0499,-2.1003,-2.1126,-2.0533,-2.1062,-2.145,-2.1474,-2.1479,-2.1482,-2.1484,-2.1484,-2.1462,-2.1471,-2.1672,-2.2414,-2.3735,-2.3946,-2.4452,-2.5269,-2.5254,-2.5375,-2.5593,-2.5577,-2.5579,-2.558,-2.5602,-2.5629,-2.5609,-2.5593,-2.5629,-2.5637,-2.5583,-2.6015,-2.6561,-2.584,-2.6521,-2.7688,-2.6961,-2.729,-2.8024,-2.8005,-2.7832,-2.7615,-2.7591,-2.7383,-2.7024,-2.641,-2.6159,-2.5953,-2.536,-2.5118,-2.5048,-2.5088,-2.5045,-2.4989,-2.4986,-2.4809,-2.4914,-2.5759,-2.5906,-2.5909,-2.5989,-2.6728,-2.6953,-2.5886,-2.6076,-2.6284,-2.6209,-2.4789,-2.4022,-2.4572,-2.4398,-2.4173,-2.4045,-2.4171,-2.4507,-2.5111,-2.5179,-2.5201,-2.519,-2.4193,-2.3474,-2.3119,-2.2078,-2.0924,-1.9737,-1.9244,-1.9712,-2.1128,-2.056,-1.984,0.0,-0.7612,0.0,-1.1061,-1.2071,0.0,0.0,0.0,-1.5893,-1.8383,-1.8952,-1.9298,-2.012,-2.1679,-2.2603,-2.1888,-2.232,-2.2224,-2.069,-2.1094,-2.1256,-2.0493,-2.0443,-2.0443,-2.0416,-2.0448,-2.0506,-2.0565,-2.0561,-2.0594,-2.0666,-2.0601,-2.057,-2.0568,-2.1377,-2.1838,-2.1936,-2.2682,-2.3514,-2.437,-2.4308,-2.4735,-2.559,-2.5537,-2.5518,-2.5511,-2.5638,-2.5661,-2.5604,-2.5605,-2.5565,-2.55,-2.5508,-2.5564,-2.5666,-2.5544,-2.6122,-2.6952,-2.6837,-2.7371,-2.8082,-2.8009,-2.7477,-2.6844,-2.6786,-2.6217,-2.5621,-2.5557,-2.5544,-2.5537,-2.5492,-2.5432,-2.5369,-2.5372,-2.5271,-2.515,-2.5024,-2.505,-2.5316,-2.611,-2.6218,-2.6262,-2.6494,-2.6507,-2.6181,-2.5357,-2.4985,-2.4823,-2.4789,-2.4698,-2.4804,-2.5203,-2.536,-2.5437,-2.5492,-2.5499,-2.5525,-2.5577,-2.535,-2.5209,-2.5203,-2.4943,-2.471,-2.4498,-2.3806,-2.2797,-2.146,-2.1248,-2.0879,-2.0377,-2.0998,-2.0698,0.0,0.0,0.0,-0.9155,-1.0199,-1.1345,-1.3342,-1.4418,-1.5413,-1.6846,-1.7594,-1.8269,-1.9144,-2.0365,-2.1143,-2.0843,-2.1048,-2.1015,-2.0411,-2.0578,-2.0667,-2.0359,-2.0346,-2.0347,-2.0404,-2.041,-2.0418,-2.0433,-2.0448,-2.0452,-2.0469,-2.0456,-2.0439,-2.0439,-2.0745,-2.1167,-2.1734,-2.3098,-2.3915,-2.4173,-2.4701,-2.5139,-2.5468,-2.5485,-2.5485,-2.5439,-2.5578,-2.5567,-2.5476,-2.5515,-2.5495,-2.5441,-2.5522,-2.5538,-2.5473,-2.5489,-2.5696,-2.5939,-2.5913,-2.6132,-2.6425,-2.6403,-2.6166,-2.5891,-2.5915,-2.57,-2.5445,-2.5447,-2.5448,-2.5448,-2.5497,-2.5458,-2.5403,-2.54,-2.5396,-2.5364,-2.5279,-2.5208,-2.5398,-2.6249,-2.6506,-2.66,-2.6665,-2.699,-2.6775,-2.5418,-2.527,-2.5282,-2.5107,-2.5205,-2.5346,-2.5544,-2.5593,-2.5601,-2.5536,-2.5613,-2.5654,-2.5654,-2.5568,-2.5471,-2.5398,-2.5244,-2.5003,-2.4676,-2.4595,-2.3988,-2.2755,-2.2382,-2.1985,-2.1575,-2.0723,-2.0304,-0.5634,0.0,0.0,0.0,0.0,-0.9532,-1.1518,-1.2647,-1.3755,-1.5383,-1.6223,-1.6989,-1.8118,-1.8875,-1.9523,-2.0127,-2.0227,-2.0238,-2.0254,-2.0273,-2.0273,-2.0273,-2.0277,-2.0294,-2.036,-2.0386,-2.0396,-2.041,-2.04,-2.0395,-2.0395,-2.0399,-2.0402,-2.041,-2.0402,-2.0828,-2.1694,-2.2785,-2.3598,-2.4134,-2.4706,-2.5123,-2.5404,-2.5418,-2.5406,-2.5371,-2.5459,-2.5467,-2.5376,-2.5157,-2.5201,-2.5387,-2.5154,-2.5193,-2.5368,-2.5123,-2.5172,-2.5333,-2.5091,-2.5223,-2.5506,-2.5492,-2.5464,-2.543,-2.5492,-2.5453,-2.54,-2.5408,-2.5402,-2.5402,-2.5437,-2.5382,-2.5325,-2.5339,-2.5366,-2.5391,-2.5375,-2.533,-2.5559,-2.6407,-2.6487,-2.6493,-2.68,-2.6935,-2.6627,-2.55,-2.5533,-2.5633,-2.5429,-2.5537,-2.5656,-2.5693,-2.5694,-2.5652,-2.5561,-2.5658,-2.5703,-2.5696,-2.5691,-2.5645,-2.5507,-2.5381,-2.5195,-2.4916,-2.5,-2.4667,-2.3911,-2.3329,-2.2779,-2.2259,-2.102,-2.087,0.0,0.0,0.0,0.0,0.0,0.0,-1.042,0.0,-1.0777,-1.4026,-1.4756,-1.5318,-1.7018,-1.734,-1.7937,-1.9725,-2.005,-2.0088,-2.0142,-2.0188,-2.0188,-2.0188,-2.0195,-2.0235,-2.0294,-2.036,-2.0402,-2.0395,-2.041,-2.041,-2.0395,-2.0383,-2.0385,-2.0385,-2.0385,-2.0791,-2.1649,-2.1617,-2.2455,-2.415,-2.4113,-2.4549,-2.5393,-2.5341,-2.5284,-2.5303,-2.5302,-2.5322,-2.5329,-2.4544,-2.4695,-2.5292,-2.4399,-2.4591,-2.5281,-2.4446,-2.462,-2.5195,-2.4465,-2.4785,-2.5482,-2.5483,-2.5492,-2.548,-2.5498,-2.5445,-2.5381,-2.5381,-2.5379,-2.5376,-2.5317,-2.5236,-2.5185,-2.5192,-2.5178,-2.5215,-2.5274,-2.5391,-2.5723,-2.6516,-2.6091,-2.5936,-2.6966,-2.6288,-2.5593,-2.5588,-2.5657,-2.5673,-2.5607,-2.5644,-2.5697,-2.5703,-2.5705,-2.5685,-2.5689,-2.5699,-2.5696,-2.5683,-2.569,-2.5637,-2.5507,-2.5441,-2.5365,-2.5292,-2.5097,-2.4982,-2.4896,-2.4103,-2.3237,-2.2321,-2.1988,-2.2465,-0.4986,0.0,0.0,0.0,0.0,0.0,-0.7984,0.0,-0.9473,-1.1546,-1.2507,-1.3465,-1.5198,-1.5957,-1.6718,-1.7956,-1.8688,-1.9116,-1.9173,-1.9678,-2.006,-2.0116,-2.0159,-2.0231,-2.0295,-2.0308,-2.0347,-2.0404,-2.0366,-2.0313,-2.026,-2.025,-2.0254,-2.0254,-2.0254,-2.0369,-2.0608,-2.1213,-2.207,-2.3122,-2.3688,-2.4385,-2.5184,-2.5209,-2.5168,-2.5091,-2.5192,-2.5203,-2.5171,-2.5003,-2.5009,-2.508,-2.4878,-2.4901,-2.5019,-2.4881,-2.4896,-2.4981,-2.4831,-2.4941,-2.5133,-2.5137,-2.5148,-2.5148,-2.5135,-2.5135,-2.5107,-2.5105,-2.5113,-2.5111,-2.5091,-2.5069,-2.5057,-2.5057,-2.5053,-2.5061,-2.5077,-2.5197,-2.5394,-2.577,-2.5667,-2.5621,-2.5925,-2.5687,-2.5441,-2.5381,-2.5479,-2.5585,-2.5651,-2.5561,-2.5542,-2.5684,-2.5665,-2.5565,-2.5418,-2.5453,-2.5505,-2.5556,-2.5512,-2.5496,-2.5498,-2.5449,-2.5398,-2.5378,-2.5371,-2.5236,-2.4966,-2.4264,-2.3672,-2.3228,-2.2596,-2.2195,0.0,0.0,0.0,0.0,0.0,0.0,-0.7769,-0.7984,-0.8424,-1.0339,-1.1177,-1.1985,-1.3289,-1.4201,-1.4921,-1.5506,-1.6605,-1.7652,-1.8485,-1.896,-1.9254,-1.9273,-1.929,-1.9324,-1.941,-1.9419,-1.96,-1.9991,-2.0003,-1.9954,-1.9905,-2.0022,-2.006,-2.0031,-2.0116,-2.0162,-2.0162,-2.0622,-2.1292,-2.2123,-2.2923,-2.3747,-2.4581,-2.4941,-2.505,-2.4968,-2.508,-2.5056,-2.498,-2.5032,-2.5013,-2.4962,-2.4607,-2.4664,-2.4902,-2.4626,-2.4682,-2.4842,-2.453,-2.4625,-2.4869,-2.4915,-2.4896,-2.4869,-2.4874,-2.4861,-2.4828,-2.4818,-2.4775,-2.4712,-2.4779,-2.479,-2.4785,-2.4771,-2.4799,-2.4861,-2.479,-2.4904,-2.5061,-2.5284,-2.5335,-2.5437,-2.5735,-2.5447,-2.5341,-2.5779,-2.558,-2.5626,-2.6269,-2.5777,-2.568,-2.6481,-2.5917,-2.5385,-2.5182,-2.522,-2.5253,-2.5281,-2.5313,-2.551,-2.5939,-2.5629,-2.559,-2.5931,-2.5679,-2.5467,-2.5298,-2.4652,-2.412,-2.3682,-2.3165,-2.2677,0.0,0.0,0.0,0.0,-0.6945,0.0,-0.8743,-0.8049,-0.7584,-0.9778,-1.0276,-1.0558,-1.1394,-1.2249,-1.2873,-1.2982,-1.4247,-1.5885,-1.7725,-1.8037,-1.8042,-1.7955,-1.7923,-1.7977,-1.8174,-1.8199,-1.8566,-1.94,-1.9382,-1.9375,-1.9452,-1.9599,-1.9711,-1.9722,-1.9901,-1.9982,-1.9982,-1.9912,-2.0329,-2.1236,-2.195,-2.2816,-2.3795,-2.4505,-2.4845,-2.4874,-2.4921,-2.4865,-2.4764,-2.4764,-2.4832,-2.4879,-2.4047,-2.4223,-2.4831,-2.4071,-2.4233,-2.4728,-2.3936,-2.4082,-2.4637,-2.4678,-2.4663,-2.4629,-2.4617,-2.4588,-2.4559,-2.4559,-2.4441,-2.4318,-2.4425,-2.4461,-2.4461,-2.4391,-2.451,-2.461,-2.4495,-2.4575,-2.4727,-2.4943,-2.503,-2.5263,-2.5914,-2.5374,-2.5197,-2.6222,-2.5685,-2.5606,-2.6868,-2.6197,-2.6073,-2.7355,-2.6318,-2.5458,-2.5279,-2.508,-2.4987,-2.5008,-2.5198,-2.5657,-2.641,-2.6054,-2.6124,-2.6718,-2.5987,-2.5638,-2.5697,-2.5144,-2.4561,-2.3921,-2.3725,-2.3764,0.0,0.0,0.0,0.0,-0.7933,0.0,-0.8259,-0.7449,-0.7036,-0.8312,-0.816,-0.8254,-0.9757,-1.0703,-1.1479,-1.2179,-1.3007,-1.4156,-1.5817,-1.6686,-1.7137,-1.7137,-1.7225,-1.7496,-1.8049,-1.8217,-1.8553,-1.9221,-1.8656,-1.8541,-1.9147,-1.8726,-1.8697,-1.9214,-1.9271,-1.9304,-1.9308,-1.9181,-1.9693,-2.0816,-2.0924,-2.1892,-2.3559,-2.3681,-2.4084,-2.4745,-2.4695,-2.4645,-2.4561,-2.451,-2.4556,-2.4666,-2.4538,-2.45,-2.4495,-2.4393,-2.4381,-2.4373,-2.4099,-2.41,-2.4174,-2.4043,-2.4099,-2.4229,-2.4229,-2.4248,-2.4284,-2.4284,-2.4284,-2.4284,-2.4192,-2.4211,-2.4248,-2.4172,-2.4229,-2.4302,-2.4266,-2.4321,-2.4374,-2.4301,-2.4567,-2.4832,-2.4969,-2.4746,-2.4682,-2.5013,-2.4913,-2.4964,-2.5389,-2.6548,-2.6857,-2.5672,-2.6517,-2.7067,-2.687,-2.5607,-2.491,-2.5065,-2.5666,-2.5818,-2.5409,-2.707,-2.7653,-2.6964,-2.601,-2.5573,-2.5697,-2.5537,-2.5216,-2.4768,-2.4445,-2.5382,0.0,0.0,0.0,-0.9089,-0.8798,0.0,0.0,-0.7881,-0.743,-0.8572,-0.8369,-0.8319,-0.9358,-1.0341,-1.1015,-1.1087,-1.2002,-1.2904,-1.3431,-1.49,-1.5912,-1.5951,-1.594,-1.6095,-1.6508,-1.6922,-1.7439,-1.8103,-1.8108,-1.8091,-1.8056,-1.7896,-1.8104,-1.8785,-1.857,-1.863,-1.9002,-1.8904,-1.9153,-1.9772,-2.0122,-2.0811,-2.1791,-2.2689,-2.3301,-2.3674,-2.4225,-2.4356,-2.4248,-2.4211,-2.4174,-2.4174,-2.4338,-2.4321,-2.421,-2.4192,-2.4173,-2.4077,-2.3959,-2.386,-2.378,-2.3678,-2.3738,-2.3837,-2.3801,-2.3858,-2.3917,-2.3979,-2.3978,-2.3935,-2.3919,-2.3901,-2.3901,-2.3937,-2.4018,-2.4058,-2.4096,-2.4172,-2.419,-2.3937,-2.408,-2.4394,-2.4819,-2.4487,-2.4561,-2.5782,-2.5801,-2.6003,-2.6879,-2.7809,-2.7996,-2.6915,-2.65,-2.6862,-2.8273,-2.6164,-2.4972,-2.5518,-2.6314,-2.6696,-2.6598,-2.7573,-2.7877,-2.7412,-2.6141,-2.554,-2.5609,-2.5492,-2.5425,-2.5388,-2.6727,-2.7904,0.0,0.0,0.0,0.0,0.0,-0.9067,0.0,0.0,0.0,-0.9089,-0.8837,-0.8605,-0.9227,-0.9989,-1.0335,-0.9755,-1.0995,-1.1809,-1.1172,-1.2987,-1.4366,-1.4344,-1.4512,-1.4654,-1.4765,-1.5383,-1.6079,-1.6806,-1.7171,-1.7166,-1.6797,-1.7046,-1.7471,-1.8099,-1.7932,-1.8071,-1.8646,-1.8573,-1.8572,-1.8699,-1.9326,-1.9758,-2.0029,-2.1534,-2.2244,-2.2348,-2.3435,-2.38,-2.3619,-2.3821,-2.3771,-2.3566,-2.3737,-2.3724,-2.3626,-2.356,-2.3449,-2.3358,-2.3476,-2.328,-2.3021,-2.3257,-2.3422,-2.3463,-2.3427,-2.3468,-2.3549,-2.3646,-2.3638,-2.3567,-2.3642,-2.3584,-2.358,-2.371,-2.3756,-2.3798,-2.3855,-2.3974,-2.3992,-2.3721,-2.3642,-2.3887,-2.4711,-2.423,-2.4371,-2.6263,-2.631,-2.6756,-2.8512,-2.881,-2.8737,-2.844,-2.6739,-2.6596,-2.9029,-2.6878,-2.5467,-2.5727,-2.6651,-2.7541,-2.8311,-2.8051,-2.7994,-2.8255,-2.6997,-2.6245,-2.6018,-2.6008,-2.6232,-2.6714,-2.9142,-3.0155,0.0,0.0,0.0,0.0,-1.0521,-1.0484,-0.8886,0.0,-0.8281,-0.8563,0.0,-0.7109,-0.854,0.0,0.0,-0.8155,-0.9777,-1.0707,-0.9701,-1.1265,-1.2373,-1.2023,-1.318,-1.3979,-1.3926,-1.455,-1.5245,-1.5989,-1.4899,-1.4726,-1.586,-1.604,-1.6312,-1.68,-1.7463,-1.7786,-1.776,-1.7608,-1.7788,-1.8273,-1.8301,-1.8891,-1.9917,-2.0075,-2.0521,-2.1223,-2.2067,-2.2361,-2.2305,-2.3182,-2.3389,-2.3056,-2.2787,-2.2563,-2.2396,-2.2247,-2.1843,-2.1473,-2.2489,-2.21,-2.1375,-2.2449,-2.2927,-2.3052,-2.3052,-2.3151,-2.3265,-2.3247,-2.3336,-2.3407,-2.343,-2.3365,-2.3383,-2.3499,-2.3463,-2.3359,-2.3389,-2.3476,-2.3585,-2.3539,-2.3247,-2.3199,-2.384,-2.3714,-2.3683,-2.4121,-2.4145,-2.5041,-2.7543,-2.8091,-2.8164,-2.7847,-2.7807,-2.7985,-2.8317,-2.8012,-2.6968,-2.4968,-2.6061,-2.7525,-2.9187,-2.8981,-2.9194,-2.9907,-2.9588,-2.8896,-2.7897,-2.8347,-2.9117,-3.014,-3.0419,-3.0594,0.0,0.0,0.0,-1.0633,-1.0617,-1.0448,-0.8973,-0.8738,-0.8936,-0.9297,0.0,0.0,0.0,0.0,0.0,0.0,-0.9544,-0.9762,-0.8652,-0.9521,-1.0625,-1.1541,-1.2232,-1.2908,-1.3671,-1.3962,-1.4383,-1.5034,-1.459,-1.447,-1.4903,-1.5363,-1.5896,-1.6502,-1.6825,-1.7177,-1.7549,-1.7455,-1.7532,-1.7783,-1.7805,-1.809,-1.8641,-1.9113,-1.9477,-1.9772,-2.0622,-2.1184,-2.1562,-2.1915,-2.197,-2.1781,-2.1174,-2.1301,-2.1785,-2.1214,-2.0808,-2.0593,-2.1026,-2.1129,-2.1253,-2.2254,-2.2349,-2.2151,-2.2626,-2.2495,-2.2166,-2.2163,-2.2206,-2.2143,-2.1666,-2.1795,-2.2185,-2.2863,-2.2985,-2.296,-2.2952,-2.273,-2.2456,-2.2248,-2.2096,-2.2068,-2.2307,-2.2857,-2.3313,-2.3394,-2.3394,-2.4385,-2.7143,-2.7604,-2.7526,-2.7164,-2.7448,-2.7665,-2.7665,-2.7665,-2.7243,-2.6269,-2.7346,-2.7955,-2.7847,-2.7954,-2.8049,-2.8167,-2.8327,-2.8174,-2.7665,-2.7893,-2.8031,-2.8117,-2.9452,-3.0213,-1.2163,-1.2173,-1.2056,-1.0664,-1.0303,-1.0029,-0.8981,-0.9026,-0.9458,-1.0112,-0.9939,0.0,0.0,0.0,-0.9511,0.0,0.0,-0.9338,-0.8024,-0.8428,-0.9315,-1.0589,-1.1097,-1.1781,-1.2907,-1.2823,-1.2938,-1.3514,-1.351,-1.3529,-1.3678,-1.4543,-1.5391,-1.6153,-1.6386,-1.6792,-1.7375,-1.7264,-1.7224,-1.7368,-1.7384,-1.7432,-1.7542,-1.8121,-1.8356,-1.8268,-1.9177,-1.9824,-2.0284,-2.0495,-2.0559,-2.04,-1.9615,-1.9805,-2.0484,-1.9916,-1.9688,-1.9656,-1.9773,-2.0327,-2.1086,-2.1542,-2.1603,-2.1542,-2.1895,-2.1596,-2.1153,-2.119,-2.1097,-2.0892,-2.0576,-2.0797,-2.131,-2.2099,-2.2031,-2.1834,-2.1881,-2.1688,-2.1724,-2.2329,-2.2391,-2.2358,-2.2458,-2.2458,-2.251,-2.2581,-2.3357,-2.466,-2.6587,-2.6942,-2.6876,-2.6572,-2.6825,-2.6992,-2.6992,-2.6909,-2.6876,-2.6992,-2.766,-2.7578,-2.6453,-2.6892,-2.6892,-2.64,-2.6691,-2.6876,-2.6992,-2.6992,-2.6606,-2.5917,-2.812,-2.94,-1.2852,-1.2531,-1.196,-1.0103,-0.958,-0.9364,-0.8755,-0.9054,-0.9748,-1.0687,-1.0753,-1.0777,-1.1131,0.0,0.0,0.0,0.0,0.0,0.0,-0.8288,-0.8599,-0.8337,-0.9582,-1.065,-1.1227,-1.0756,-1.063,-1.1175,-1.0668,-1.0881,-1.2104,-1.3433,-1.4519,-1.5309,-1.6273,-1.6885,-1.7109,-1.6789,-1.6763,-1.7018,-1.6892,-1.6892,-1.7018,-1.6968,-1.6892,-1.6811,-1.7773,-1.8054,-1.799,-1.9094,-1.9389,-1.9102,-1.8346,-1.7952,-1.7848,-1.8156,-1.8219,-1.8264,-1.8896,-1.9723,-2.0414,-1.9876,-2.0605,-2.1529,-2.0705,-2.0504,-2.0558,-2.0694,-2.0304,-2.0068,-2.1011,-2.1189,-2.1149,-2.1217,-2.0414,-1.9654,-1.9775,-2.0342,-2.1736,-2.4862,-2.5166,-2.4996,-2.5395,-2.2914,-2.0974,-2.1309,-2.4066,-2.598,-2.5675,-2.5987,-2.6256,-2.622,-2.6256,-2.6256,-2.6256,-2.5877,-2.584,-2.6203,-2.5897,-2.5675,-2.5654,-2.633,-2.64,-2.5637,-2.5654,-2.584,-2.6256,-2.6256,-2.5824,-2.5084,-2.6903,-2.8183,-1.2511,-1.2623,-1.254,-1.1253,-1.0869,-1.0574,-0.9612,-0.9933,-1.0433,-1.0384,-1.0649,-1.1002,-1.134,0.0,0.0,0.0,0.0,0.0,0.0,-0.734,-0.7454,-0.7346,-0.8477,-0.9582,-1.0391,-1.0085,-1.0132,-1.086,-1.0246,-1.0425,-1.171,-1.2576,-1.3396,-1.4152,-1.5454,-1.6118,-1.6037,-1.6302,-1.6538,-1.6686,-1.6496,-1.6549,-1.6799,-1.6644,-1.6512,-1.6436,-1.6573,-1.6931,-1.7439,-1.7786,-1.7836,-1.7688,-1.7527,-1.7219,-1.6939,-1.7578,-1.7745,-1.7813,-1.8569,-1.8665,-1.8477,-1.8683,-1.8747,-1.8795,-1.8914,-1.9069,-1.9167,-1.8744,-1.8933,-1.9174,-1.9072,-1.9624,-2.0101,-1.9875,-1.9622,-1.9448,-1.9492,-1.9603,-2.0661,-2.4099,-2.463,-2.4589,-2.4726,-2.3826,-2.3241,-2.3655,-2.4708,-2.5355,-2.5201,-2.5317,-2.541,-2.541,-2.5146,-2.4934,-2.4934,-2.4517,-2.4338,-2.4461,-2.4655,-2.4766,-2.4766,-2.4688,-2.4688,-2.4751,-2.4766,-2.4791,-2.4934,-2.4934,-2.4791,-2.4508,-2.4199,-2.5024,-1.2877,-1.299,-1.2914,-1.1926,-1.1574,-1.124,-1.0366,-1.062,-1.1006,-1.0787,-1.1066,-1.1474,-1.1894,-1.0699,0.0,0.0,0.0,0.0,0.0,-0.6747,-0.6757,-0.6757,-0.7827,-0.8776,-0.9321,-0.9085,-0.9144,-0.9751,-0.9119,-0.9358,-1.088,-1.1543,-1.2432,-1.3713,-1.4836,-1.5438,-1.5509,-1.575,-1.5978,-1.6105,-1.5907,-1.5963,-1.627,-1.6133,-1.6022,-1.5953,-1.5784,-1.6038,-1.6518,-1.6502,-1.6428,-1.6323,-1.6428,-1.6188,-1.5881,-1.6663,-1.6879,-1.6916,-1.7959,-1.7775,-1.7105,-1.7792,-1.7884,-1.7777,-1.7944,-1.8114,-1.8161,-1.7523,-1.7621,-1.7924,-1.8029,-1.858,-1.9168,-1.9356,-1.9562,-1.966,-1.9407,-1.9169,-1.9612,-2.1758,-2.332,-2.4177,-2.3882,-2.3653,-2.3809,-2.463,-2.463,-2.4492,-2.4492,-2.463,-2.4766,-2.4766,-2.4177,-2.3739,-2.3551,-2.3595,-2.3508,-2.3348,-2.361,-2.3739,-2.3551,-2.3246,-2.3334,-2.3797,-2.3967,-2.3967,-2.3797,-2.3797,-2.3696,-2.3508,-2.2632,-2.2981]},{"header":{"parameterUnit":"m.s-1","parameterCategory":1,"la1":30.6,"la2":29.2853,"lo1":-89.7004,"lo2":-87.6739,"dy":0.0162,"dx":0.0183,"nx":112,"ny":82,"refTime":"2023-08-23T18:00:00:Z","depth":0,"parameterNumber":3,"parameterNumberName":"V-component_of_WINDS"},"data":[0.0,0.0,0.0,0.0,0.0,0.0,0.0,0.0,0.0,0.0,0.0,0.0,0.0,0.0,0.0,0.0,0.0,0.0,0.0,0.0,0.0,0.0,0.0,0.0,0.0,0.0,0.0,0.0,0.0,0.0,0.0,0.0,0.0,0.0,0.0,0.0,0.0,0.0,0.0,0.0,0.0,0.0,0.0,0.0,0.0,0.0,0.0,0.0,0.0,0.0,0.0,0.0,0.0,0.0,0.0,0.0,0.0,0.0,0.0,0.0,0.0,0.0,0.0,0.0,0.0,0.0,0.0,0.0,0.0,0.0,0.0,0.0,0.0,0.0,0.0,0.0,0.0,0.0,0.0,0.0,0.0,0.0,0.0,0.0,0.0,0.0,0.0,0.0,0.0,0.0,-1.623,-1.8096,-2.012,-2.0987,-2.0119,-2.0065,-1.8386,-1.4381,0.0,0.0,0.0,0.0,0.0,0.0,0.0,0.0,0.0,0.0,0.0,0.0,0.0,0.0,0.0,0.0,0.0,0.0,0.0,0.0,0.0,0.0,0.0,0.0,0.0,0.0,0.0,0.0,0.0,0.0,0.0,0.0,0.0,0.0,0.0,0.0,0.0,0.0,0.0,0.0,0.0,0.0,0.0,0.0,0.0,0.0,0.0,0.0,0.0,0.0,0.0,0.0,0.0,0.0,0.0,0.0,0.0,0.0,0.0,0.0,0.0,0.0,0.0,0.0,0.0,0.0,0.0,0.0,0.0,0.0,0.0,0.0,0.0,0.0,0.0,0.0,0.0,0.0,0.0,0.0,0.0,0.0,0.0,0.0,0.0,0.0,0.0,0.0,0.0,0.0,0.0,0.0,0.0,0.0,0.0,0.0,0.0,0.0,0.0,0.0,0.0,0.0,0.0,0.0,-1.5876,-1.8809,-1.9455,-1.9588,-1.9451,-1.9302,-1.7758,-1.4405,0.0,0.0,0.0,0.0,0.0,0.0,0.0,0.0,0.0,0.0,0.0,0.0,0.0,0.0,0.0,0.0,0.0,0.0,0.0,0.0,0.0,0.0,0.0,0.0,0.0,0.0,0.0,0.0,0.0,0.0,0.0,0.0,0.0,0.0,0.0,0.0,0.0,0.0,0.0,0.0,0.0,0.0,0.0,0.0,0.0,0.0,0.0,0.0,0.0,0.0,0.0,0.0,0.0,0.0,0.0,0.0,0.0,0.0,0.0,0.0,0.0,0.0,0.0,0.0,0.0,0.0,0.0,0.0,0.0,0.0,0.0,0.0,0.0,0.0,0.0,0.0,0.0,0.0,0.0,0.0,0.0,0.0,0.0,0.0,0.0,0.0,0.0,0.0,0.0,0.0,0.0,0.0,0.0,0.0,0.0,0.0,0.0,0.0,0.0,0.0,0.0,0.0,0.0,-1.5947,-1.7518,-2.0354,-2.0613,-2.0763,-2.1168,-2.028,-1.833,-1.5062,-1.3186,0.0,0.0,0.0,0.0,0.0,0.0,0.0,0.0,0.0,0.0,0.0,0.0,0.0,0.0,0.0,0.0,0.0,0.0,0.0,0.0,0.0,0.0,0.0,0.0,0.0,0.0,0.0,0.0,0.0,0.0,0.0,0.0,0.0,0.0,0.0,0.0,0.0,0.0,0.0,0.0,0.0,0.0,0.0,0.0,0.0,0.0,0.0,0.0,0.0,0.0,0.0,0.0,0.0,0.0,0.0,0.0,0.0,0.0,0.0,0.0,0.0,0.0,0.0,0.0,0.0,0.0,0.0,0.0,0.0,0.0,0.0,0.0,0.0,0.0,0.0,0.0,0.0,0.0,0.0,0.0,0.0,0.0,0.0,0.0,0.0,0.0,0.0,0.0,0.0,0.0,0.0,0.0,0.0,0.0,0.0,0.0,0.0,0.0,0.0,0.0,0.0,0.0,-1.7343,-1.8904,-2.1236,-2.1292,-2.1423,-2.2173,-2.0534,-1.8234,-1.5296,-1.2579,0.0,0.0,0.0,0.0,0.0,0.0,0.0,0.0,0.0,0.0,0.0,0.0,0.0,0.0,0.0,0.0,0.0,0.0,0.0,0.0,0.0,0.0,0.0,0.0,0.0,0.0,0.0,0.0,0.0,0.0,0.0,0.0,0.0,0.0,0.0,0.0,0.0,0.0,0.0,0.0,0.0,0.0,0.0,0.0,0.0,0.0,0.0,0.0,0.0,0.0,0.0,0.0,0.0,0.0,0.0,0.0,0.0,0.0,0.0,0.0,0.0,0.0,0.0,0.0,0.0,0.0,0.0,0.0,0.0,0.0,0.0,0.0,0.0,0.0,0.0,0.0,0.0,0.0,0.0,0.0,0.0,0.0,0.0,0.0,0.0,0.0,0.0,0.0,0.0,0.0,0.0,0.0,0.0,0.0,0.0,0.0,0.0,0.0,0.0,0.0,0.0,0.0,-1.6643,-1.873,-2.0416,-1.9923,-1.9778,-2.0514,-1.8401,-1.6268,-1.4396,-1.1365,0.0,0.0,0.0,0.0,0.0,0.0,0.0,0.0,0.0,0.0,0.0,0.0,0.0,0.0,0.0,0.0,0.0,0.0,0.0,0.0,0.0,0.0,0.0,0.0,0.0,0.0,0.0,0.0,0.0,0.0,0.0,0.0,0.0,0.0,0.0,0.0,0.0,0.0,0.0,0.0,0.0,0.0,0.0,0.0,0.0,0.0,0.0,0.0,0.0,0.0,0.0,0.0,0.0,0.0,0.0,0.0,0.0,0.0,0.0,0.0,0.0,0.0,0.0,0.0,0.0,0.0,0.0,0.0,0.0,0.0,0.0,0.0,0.0,0.0,0.0,0.0,0.0,0.0,0.0,0.0,0.0,0.0,0.0,0.0,0.0,0.0,0.0,0.0,0.0,0.0,0.0,0.0,0.0,0.0,0.0,0.0,0.0,0.0,0.0,0.0,0.0,0.0,-1.6028,-1.8011,-2.0202,-1.9674,-1.9694,-2.1024,-1.937,-1.7324,-1.5162,0.0,0.0,0.0,0.0,0.0,0.0,0.0,0.0,0.0,0.0,0.0,0.0,0.0,0.0,0.0,0.0,0.0,0.0,0.0,0.0,0.0,0.0,0.0,0.0,0.0,0.0,0.0,0.0,0.0,0.0,0.0,0.0,0.0,0.0,0.0,0.0,0.0,0.0,0.0,0.0,0.0,0.0,0.0,0.0,0.0,0.0,0.0,0.0,0.0,0.0,0.0,0.0,0.0,0.0,0.0,0.0,0.0,0.0,0.0,0.0,0.0,0.0,0.0,0.0,0.0,0.0,0.0,0.0,0.0,0.0,0.0,0.0,0.0,0.0,0.0,0.0,0.0,0.0,0.0,0.0,0.0,0.0,0.0,0.0,0.0,0.0,0.0,0.0,0.0,0.0,0.0,0.0,0.0,0.0,0.0,0.0,0.0,0.0,0.0,0.0,0.0,0.0,-1.4174,-1.589,-1.7846,-2.0098,-1.9591,-1.9628,-2.1007,-1.9176,-1.7149,-1.5203,0.0,0.0,0.0,0.0,0.0,0.0,0.0,0.0,0.0,0.0,0.0,0.0,0.0,0.0,0.0,0.0,0.0,0.0,0.0,0.0,0.0,0.0,0.0,0.0,0.0,0.0,0.0,0.0,0.0,0.0,0.0,0.0,0.0,0.0,0.0,0.0,0.0,0.0,0.0,0.0,0.0,0.0,0.0,0.0,0.0,0.0,0.0,0.0,0.0,0.0,0.0,0.0,0.0,0.0,0.0,0.0,0.0,0.0,0.0,0.0,0.0,0.0,0.0,0.0,0.0,0.0,0.0,0.0,0.0,0.0,0.0,0.0,0.0,0.0,0.0,0.0,0.0,0.0,0.0,0.0,0.0,0.0,0.0,0.0,0.0,0.0,0.0,0.0,0.0,0.0,0.0,0.0,0.0,0.0,0.0,0.0,0.0,0.0,0.0,0.0,0.0,0.0,-1.4192,-1.636,-1.8407,-2.0011,-1.947,-1.929,-2.0011,-1.7287,-1.5153,0.0,0.0,0.0,0.0,0.0,0.0,0.0,0.0,0.0,0.0,0.0,0.0,0.0,0.0,0.0,0.0,0.0,0.0,0.0,0.0,0.0,0.0,0.0,0.0,0.0,0.0,0.0,0.0,0.0,0.0,0.0,0.0,0.0,0.0,0.0,0.0,0.0,0.0,0.0,0.0,0.0,0.0,0.0,0.0,0.0,0.0,0.0,0.0,0.0,0.0,0.0,0.0,0.0,0.0,0.0,0.0,0.0,0.0,0.0,0.0,0.0,0.0,0.0,0.0,0.0,0.0,0.0,0.0,0.0,0.0,0.0,0.0,0.0,0.0,0.0,0.0,0.0,0.0,0.0,0.0,0.0,0.0,0.0,0.0,0.0,0.0,0.0,0.0,0.0,0.0,0.0,0.0,0.0,0.0,0.0,0.0,0.0,0.0,0.0,0.0,0.0,0.0,0.0,-1.4192,-1.6848,-1.8838,-1.9378,-1.9215,-1.8908,-1.8515,-1.7648,-1.6045,-1.3513,0.0,0.0,0.0,0.0,0.0,0.0,0.0,0.0,0.0,0.0,0.0,0.0,0.0,0.0,0.0,0.0,0.0,0.0,0.0,0.0,0.0,0.0,0.0,0.0,0.0,0.0,0.0,0.0,0.0,0.0,0.0,0.0,0.0,0.0,0.0,0.0,0.0,0.0,0.0,0.0,0.0,0.0,0.0,0.0,0.0,0.0,0.0,0.0,0.0,0.0,0.0,0.0,0.0,0.0,0.0,0.0,0.0,0.0,0.0,0.0,0.0,0.0,0.0,0.0,0.0,0.0,0.0,0.0,0.0,0.0,0.0,0.0,0.0,0.0,0.0,0.0,0.0,0.0,0.0,0.0,0.0,0.0,0.0,0.0,0.0,0.0,0.0,0.0,0.0,0.0,0.0,0.0,0.0,0.0,0.0,0.0,0.0,0.0,0.0,0.0,0.0,0.0,-1.4192,-1.6775,-1.8658,-1.9017,-1.9053,-1.8802,-1.8282,-1.7619,-1.6291,-1.41,0.0,0.0,0.0,0.0,0.0,0.0,0.0,0.0,0.0,0.0,0.0,0.0,0.0,0.0,0.0,0.0,0.0,0.0,0.0,0.0,0.0,0.0,0.0,0.0,0.0,0.0,0.0,0.0,0.0,0.0,0.0,0.0,0.0,0.0,0.0,0.0,0.0,0.0,0.0,0.0,0.0,0.0,0.0,0.0,0.0,0.0,0.0,0.0,0.0,0.0,0.0,0.0,0.0,0.0,0.0,0.0,0.0,0.0,0.0,0.0,0.0,0.0,0.0,0.0,0.0,0.0,0.0,0.0,0.0,0.0,0.0,0.0,0.0,0.0,0.0,0.0,0.0,0.0,0.0,0.0,0.0,0.0,0.0,0.0,0.0,0.0,0.0,0.0,0.0,0.0,0.0,0.0,0.0,0.0,0.0,0.0,0.0,0.0,0.0,0.0,0.0,0.0,-1.4192,-1.6399,-1.819,-1.8912,-1.8948,-1.886,-1.8788,-1.7392,-1.6176,-1.5336,0.0,0.0,0.0,0.0,0.0,0.0,0.0,0.0,0.0,0.0,0.0,0.0,0.0,0.0,0.0,0.0,0.0,0.0,0.0,0.0,0.0,0.0,0.0,0.0,0.0,0.0,0.0,0.0,0.0,0.0,0.0,0.0,0.0,0.0,0.0,0.0,0.0,0.0,0.0,0.0,0.0,0.0,0.0,0.0,0.0,0.0,0.0,0.0,0.0,0.0,0.0,0.0,0.0,0.0,0.0,0.0,0.0,0.0,0.0,0.0,-0.7905,-0.7338,0.0,0.0,0.0,0.0,0.0,0.0,0.0,0.0,0.0,0.0,0.0,0.0,0.0,0.0,0.0,0.0,0.0,0.0,0.0,0.0,0.0,0.0,0.0,0.0,0.0,0.0,0.0,0.0,0.0,0.0,0.0,0.0,0.0,0.0,0.0,0.0,0.0,0.0,0.0,0.0,-1.4121,-1.6828,-1.8734,-1.8895,-1.8913,-1.8679,-1.8085,-1.7709,-1.6633,-1.4585,-1.2633,0.0,0.0,0.0,0.0,0.0,0.0,0.0,0.0,0.0,0.0,0.0,0.0,0.0,0.0,0.0,0.0,0.0,0.0,0.0,0.0,0.0,0.0,0.0,0.0,0.0,0.0,0.0,0.0,0.0,0.0,0.0,0.0,0.0,0.0,0.0,0.0,0.0,0.0,0.0,0.0,0.0,0.0,0.0,0.0,0.0,0.0,0.0,0.0,0.0,0.0,0.0,0.0,0.0,0.0,0.0,0.0,0.0,0.0,0.0,-0.9633,-0.9243,0.0,0.0,0.0,0.0,0.0,0.0,0.0,0.0,0.0,0.0,0.0,0.0,0.0,0.0,0.0,0.0,0.0,0.0,0.0,0.0,0.0,0.0,0.0,0.0,0.0,0.0,0.0,0.0,0.0,0.0,0.0,0.0,0.0,0.0,0.0,0.0,0.0,0.0,0.0,0.0,-1.4544,-1.6801,-1.8449,-1.8807,-1.8843,-1.8538,-1.7767,-1.7695,-1.6853,-1.4848,-1.3615,0.0,0.0,0.0,0.0,0.0,0.0,0.0,0.0,0.0,0.0,0.0,0.0,0.0,0.0,0.0,0.0,0.0,0.0,0.0,0.0,0.0,0.0,0.0,0.0,0.0,0.0,0.0,0.0,0.0,0.0,0.0,0.0,0.0,0.0,0.0,0.0,0.0,0.0,0.0,0.0,0.0,0.0,0.0,0.0,0.0,0.0,0.0,0.0,0.0,0.0,0.0,0.0,0.0,-1.0957,-1.1172,-1.1536,-1.1948,-1.2104,-1.2076,-1.1263,-1.1215,-1.1629,-1.0897,0.0,0.0,0.0,0.0,0.0,0.0,0.0,0.0,0.0,0.0,0.0,0.0,0.0,0.0,0.0,0.0,0.0,0.0,0.0,0.0,0.0,0.0,-1.4238,-1.6407,-1.6448,-1.5573,-1.407,0.0,0.0,0.0,0.0,0.0,0.0,0.0,0.0,0.0,0.0,0.0,-1.5208,-1.6843,-1.8092,-1.8698,-1.8788,-1.852,-1.786,-1.7824,-1.7216,-1.5801,-1.4886,-1.3455,0.0,0.0,0.0,0.0,0.0,0.0,0.0,0.0,0.0,0.0,0.0,0.0,0.0,0.0,0.0,0.0,0.0,0.0,0.0,0.0,0.0,0.0,0.0,0.0,0.0,0.0,0.0,0.0,0.0,0.0,0.0,0.0,-1.1394,-1.2095,0.0,0.0,0.0,0.0,0.0,0.0,0.0,0.0,0.0,0.0,0.0,0.0,0.0,-1.2609,-1.2664,-1.3805,-1.4333,-1.4198,-1.4642,-1.4843,-1.4784,-1.4886,-1.4961,-1.4935,-1.4414,0.0,-1.2359,-1.2416,0.0,0.0,0.0,0.0,0.0,0.0,0.0,0.0,0.0,0.0,0.0,0.0,0.0,0.0,0.0,0.0,0.0,0.0,0.0,0.0,0.0,0.0,-1.6361,-1.7543,-1.7657,-1.7652,-1.8202,-1.6381,-1.4397,-1.3578,-1.2822,-1.2091,0.0,0.0,0.0,0.0,0.0,0.0,-1.602,-1.7524,-1.8513,-1.8622,-1.8678,-1.8698,-1.8645,-1.8699,-1.8341,-1.7443,-1.604,-1.4806,-1.3853,-1.1822,0.0,0.0,0.0,0.0,0.0,0.0,0.0,0.0,0.0,0.0,0.0,0.0,0.0,0.0,0.0,0.0,0.0,0.0,0.0,0.0,0.0,0.0,0.0,0.0,0.0,0.0,0.0,0.0,0.0,-1.0409,-1.2274,-1.2463,-1.4108,-1.4507,0.0,0.0,0.0,0.0,0.0,0.0,0.0,0.0,0.0,-1.3136,-1.3782,-1.406,-1.3926,-1.4725,-1.5095,-1.5095,-1.5207,-1.5298,-1.5349,-1.5387,-1.5387,-1.5336,-1.5225,-1.4796,-1.4179,-1.4076,-1.4051,-1.4066,0.0,0.0,0.0,0.0,-1.3487,-1.2516,-1.4815,-1.5366,-1.5111,-1.519,0.0,0.0,0.0,0.0,0.0,0.0,0.0,-1.6017,-1.6475,-1.7186,-1.8088,-1.9344,-1.9335,-1.9401,-2.0696,-1.9326,-1.7511,-1.6383,-1.5556,-1.4674,-1.3606,-1.3089,0.0,0.0,0.0,-1.6007,-1.6765,-1.7856,-1.8505,-1.843,-1.8526,-1.8444,-1.8056,-1.852,-1.8127,-1.646,-1.6214,-1.5356,-1.3636,-1.2673,-1.1369,0.0,0.0,0.0,0.0,0.0,0.0,0.0,0.0,0.0,0.0,0.0,0.0,0.0,0.0,0.0,0.0,0.0,0.0,0.0,0.0,0.0,0.0,0.0,0.0,0.0,0.0,0.0,0.0,-1.1677,-1.3154,-1.3104,-1.5195,-1.5886,0.0,0.0,0.0,0.0,0.0,0.0,-1.4137,-1.4607,-1.4802,-1.4706,-1.5096,-1.5293,-1.5155,-1.5402,-1.5607,-1.5711,-1.5476,-1.5489,-1.5659,-1.562,-1.5593,-1.5541,-1.5595,-1.5724,-1.5865,-1.5442,-1.5492,-1.5843,-1.5843,-1.5182,-1.4443,-1.6122,-1.571,-1.4674,-1.7013,-1.77,-1.7463,-1.709,-1.7182,-1.7097,-1.5043,0.0,0.0,0.0,0.0,-1.7699,-1.8515,-1.8842,-1.9302,-2.0615,-2.0579,-2.0625,-2.2078,-2.153,-2.037,-1.8932,-1.8044,-1.7136,-1.5902,-1.528,0.0,-1.5191,-1.6115,-1.7081,-1.7776,-1.8198,-1.8408,-1.831,-1.8408,-1.8276,-1.7752,-1.8376,-1.7968,-1.6018,-1.6376,-1.5753,-1.3707,-1.3575,-1.2613,-1.0591,0.0,0.0,0.0,0.0,0.0,0.0,0.0,0.0,0.0,0.0,0.0,0.0,0.0,0.0,0.0,0.0,0.0,0.0,0.0,0.0,0.0,0.0,0.0,0.0,0.0,0.0,0.0,0.0,0.0,-1.5214,-1.6785,0.0,0.0,0.0,0.0,-1.4041,-1.5063,-1.5595,-1.5155,-1.5573,-1.5982,-1.6271,-1.6245,-1.6439,-1.6873,-1.6815,-1.6786,-1.6841,-1.6574,-1.6519,-1.6634,-1.6519,-1.6434,-1.6409,-1.61,-1.6327,-1.6866,-1.6308,-1.6104,-1.619,-1.6375,-1.6487,-1.6543,-1.6746,-1.6738,-1.6793,-1.7818,-1.7792,-1.7573,-1.9036,-1.8961,-1.8145,-1.7616,-1.7119,0.0,0.0,-1.7915,-1.8339,-1.9072,-1.9361,-1.9723,-2.0738,-2.096,-2.12,-2.2113,-2.2354,-2.1951,-2.0489,-1.9636,-1.8891,-1.7992,0.0,-1.8232,-1.9005,-1.8593,-1.8492,-1.9303,-1.8763,-1.831,-1.831,-1.8408,-1.8505,-1.8526,-1.8696,-1.8431,-1.7538,-1.6922,-1.6211,-1.5324,-1.4629,-1.3884,-1.3127,-1.1544,0.0,0.0,0.0,0.0,0.0,0.0,0.0,0.0,0.0,0.0,0.0,0.0,0.0,0.0,0.0,0.0,0.0,0.0,0.0,0.0,0.0,0.0,0.0,0.0,0.0,0.0,0.0,0.0,-1.6612,-1.7979,0.0,-1.7163,-1.6878,-1.6866,-1.693,-1.6802,-1.6885,-1.725,-1.7036,-1.6877,-1.6775,-1.6747,-1.6671,-1.6693,-1.6534,-1.6479,-1.6497,-1.6349,-1.6548,-1.703,-1.661,-1.6635,-1.6916,-1.6441,-1.6473,-1.6795,-1.6619,-1.693,-1.7501,-1.7588,-1.7613,-1.762,-1.7961,-1.7978,-1.7952,-1.8695,-1.8561,-1.8229,-1.9034,-1.8796,-1.8253,-1.8687,-1.8372,-1.8066,-1.8851,-1.9569,-2.021,-2.0573,-2.0845,-2.1026,-2.0883,-2.1329,-2.1731,-2.1606,-2.1983,-2.2224,-2.1752,-2.1097,-2.0401,-1.9624,-1.951,-1.9333,-1.8733,-1.9304,-1.9517,-1.8758,-1.8866,-1.8818,-1.8291,-1.8319,-1.842,-1.8522,-1.8142,-1.7613,-1.693,-1.6174,-1.5429,-1.4724,-1.4436,-1.3944,-1.3194,-1.2628,-1.1324,0.0,0.0,0.0,0.0,0.0,0.0,0.0,0.0,0.0,0.0,0.0,0.0,0.0,0.0,0.0,0.0,0.0,0.0,0.0,0.0,0.0,0.0,0.0,0.0,0.0,-1.5591,-1.7101,-1.7716,-1.8757,-1.9204,-1.8634,-1.8031,-1.7955,-1.8635,-1.786,-1.7557,-1.7962,-1.7534,-1.7248,-1.7188,-1.7114,-1.703,-1.703,-1.6831,-1.6729,-1.6749,-1.6455,-1.6577,-1.6999,-1.6434,-1.6397,-1.6683,-1.6379,-1.6362,-1.6547,-1.665,-1.7144,-1.7935,-1.8121,-1.8222,-1.8352,-1.8655,-1.8677,-1.8585,-1.8856,-1.8723,-1.8451,-1.8649,-1.8551,-1.8539,-1.9196,-1.9138,-1.8999,-1.9814,-2.04,-2.083,-2.1213,-2.1509,-2.1619,-2.1213,-2.1669,-2.2,-2.1568,-2.191,-2.2293,-2.2276,-2.198,-2.1592,-2.1105,-2.1045,-2.0683,-1.9493,-2.0016,-2.0056,-1.8706,-1.878,-1.8767,-1.8262,-1.8256,-1.8342,-1.8445,-1.7822,-1.7152,-1.6504,-1.5714,-1.4988,-1.4288,-1.4008,-1.3757,-1.3497,-1.3056,-1.192,-1.0098,0.0,0.0,0.0,0.0,0.0,0.0,0.0,0.0,0.0,0.0,0.0,0.0,0.0,0.0,0.0,0.0,0.0,0.0,0.0,0.0,0.0,0.0,0.0,-1.4809,-1.6802,-1.8339,-1.8604,-1.9159,-1.9507,-1.9695,-1.8959,-1.8597,-1.8877,-1.8166,-1.7584,-1.7251,-1.7041,-1.7114,-1.7473,-1.742,-1.7593,-1.7977,-1.7821,-1.7677,-1.7557,-1.6906,-1.656,-1.656,-1.6032,-1.576,-1.5739,-1.5925,-1.6044,-1.62,-1.6318,-1.6778,-1.7434,-1.7828,-1.8254,-1.8673,-1.8673,-1.8721,-1.8707,-1.8238,-1.8164,-1.8238,-1.7957,-1.8362,-1.9007,-1.9304,-1.9434,-1.9622,-2.0291,-2.0223,-2.0083,-2.0895,-2.1246,-2.1479,-2.1688,-2.1866,-2.1982,-2.1965,-2.213,-2.2237,-2.2027,-2.2203,-2.2405,-2.2487,-2.2569,-2.2348,-2.1618,-2.0879,0.0,-1.9327,-1.8572,-1.8147,-1.8224,-1.8281,-1.8328,-1.8385,-1.7823,-1.7151,-1.6457,-1.5696,-1.4952,-1.4239,-1.3453,-1.3443,-1.4295,-1.289,-1.1807,-1.1135,0.0,0.0,0.0,0.0,0.0,0.0,0.0,0.0,0.0,0.0,0.0,0.0,0.0,0.0,0.0,0.0,0.0,0.0,0.0,0.0,0.0,-1.5581,-1.6961,-1.7415,-1.7989,-1.8698,-1.9656,-1.9299,-1.9104,-1.9359,-1.8948,-1.8821,-1.9229,-1.8358,-1.7922,-1.8067,-1.744,-1.7206,-1.7577,-1.7196,-1.7105,-1.7424,-1.6666,-1.6416,-1.6728,-1.6111,-1.6063,-1.656,-1.5999,-1.5963,-1.6344,-1.6005,-1.5969,-1.62,-1.6013,-1.6392,-1.7044,-1.7199,-1.776,-1.8397,-1.824,-1.8156,-1.81,-1.7658,-1.7563,-1.75,-1.7143,-1.746,-1.8119,-1.8803,-1.9089,-1.9308,-2.0153,-2.0335,-2.0459,-2.1023,-2.1262,-2.1272,-2.0973,-2.14,-2.172,-2.1188,-2.1545,-2.2015,-2.1998,-2.2056,-2.2158,-2.2321,-2.2405,-2.2231,-2.1541,-2.1343,-2.0956,-2.0052,-1.9361,-1.896,-1.8932,-1.8521,-1.8301,-1.8445,-1.7219,-1.643,-1.6469,-1.5181,-1.4369,-1.4208,-1.4031,-1.4076,-1.4375,-1.345,-1.2641,0.0,0.0,0.0,0.0,0.0,0.0,0.0,0.0,0.0,0.0,0.0,0.0,0.0,0.0,0.0,0.0,0.0,0.0,0.0,0.0,0.0,0.0,-1.69,-1.8215,-1.917,-1.9424,-1.9739,-2.0338,-1.9772,-1.9501,-1.9806,-1.8992,-1.8555,-1.8724,-1.7847,-1.7403,-1.7566,-1.6963,-1.6809,-1.7265,-1.6914,-1.6918,-1.7228,-1.6681,-1.6467,-1.6669,-1.6103,-1.6054,-1.6432,-1.5897,-1.5825,-1.6133,-1.5835,-1.5792,-1.5981,-1.5836,-1.61,-1.662,0.0,0.0,0.0,0.0,-1.7813,-1.7537,-1.7245,-1.693,-1.6615,-1.6259,-1.6586,-1.7223,-1.7822,-1.8286,-1.8763,-1.9636,-2.0007,-2.0285,-2.091,-2.1183,-2.1243,-2.0986,-2.1394,-2.1694,-2.1193,-2.1512,-2.1882,-2.1899,-2.1899,0.0,-2.2106,-2.2265,-2.2122,-2.1411,-2.1413,-2.1165,-2.0286,-1.9833,-1.9504,-1.9236,-1.8891,-1.8603,-1.848,-1.7306,0.0,0.0,0.0,-1.432,-1.3718,-1.4072,0.0,0.0,0.0,-1.3618,-1.3354,-1.3221,0.0,0.0,-1.2499,-1.2492,0.0,0.0,0.0,0.0,0.0,0.0,0.0,0.0,0.0,0.0,0.0,0.0,0.0,0.0,0.0,0.0,-1.7576,-1.8584,-2.0217,-2.0755,-2.0868,-2.067,-2.0202,-2.0048,-2.0378,-1.8985,-1.8052,-1.7946,-1.7093,-1.656,-1.6579,-1.6254,0.0,0.0,0.0,-1.6907,-1.7312,-1.7145,-1.7061,-1.7044,-1.6468,-1.6139,-1.6127,-1.5692,-1.5468,-1.5468,-1.5513,-1.5614,-1.5715,-1.5715,-1.5893,-1.6188,-1.6637,-1.6993,-1.7325,-1.7774,-1.7526,-1.703,-1.693,0.0,0.0,-1.5599,-1.6031,-1.6635,-1.6919,-1.7573,-1.8383,-1.9175,-1.9542,-1.9893,-2.0702,-2.1071,-2.1309,-2.1355,-2.1631,-2.1781,-2.1603,-2.1774,-2.191,-2.1741,-2.1804,-2.191,-2.1869,-2.2106,-2.209,-2.1414,-2.1307,-2.1062,-2.045,-2.0204,-1.993,-1.9504,-1.935,0.0,-1.8578,-1.7835,-1.7417,-1.7507,-1.6223,-1.4848,-1.3473,-1.41,-1.4257,-1.3735,-1.4359,-1.4829,-1.5066,-1.5787,-1.624,-1.6394,-1.4063,-1.4143,0.0,0.0,0.0,0.0,0.0,0.0,0.0,0.0,0.0,0.0,0.0,0.0,0.0,0.0,0.0,-1.9031,-1.9804,-2.0271,-2.072,-2.0775,-2.064,-2.0285,-1.9341,-1.8869,-1.9199,-1.8422,-1.8151,-1.8872,-1.7718,-1.7161,-1.7513,-1.6783,-1.6515,-1.6953,-1.6634,-1.6787,-1.7552,-1.6325,-1.6103,-1.6849,-1.5834,0.0,-1.5349,-1.5347,-1.5345,-1.5345,-1.5582,-1.5703,-1.5792,-1.5715,-1.576,-1.5925,-1.662,-1.6905,-1.7031,-1.7434,-1.7143,-1.6598,-1.6927,-1.6647,-1.6138,-1.638,-1.7053,-1.783,-1.814,-1.8891,0.0,-2.0005,-2.019,-2.0407,-2.0797,-2.1007,-2.1151,-2.1277,-2.1371,-2.1402,-2.1388,-2.1889,-2.2213,-2.1718,-2.2141,-2.2448,-2.1927,-2.2032,-2.2186,-2.2107,-2.1603,-2.1392,-2.1885,-2.0883,-2.0331,-2.0926,-1.9962,-1.929,-1.929,-1.8093,-1.7381,-1.7577,-1.6817,-1.624,-1.5986,-1.6196,-1.6297,-1.6275,-1.641,-1.6571,-1.6735,-1.6839,-1.7291,-1.802,-1.6939,-1.6686,0.0,0.0,0.0,0.0,0.0,0.0,0.0,0.0,0.0,0.0,0.0,-1.6068,0.0,0.0,-1.8413,-1.9631,-1.9993,-2.0279,-2.0639,-2.0495,-2.0373,-2.0405,-1.9719,-1.9231,-1.9256,-1.8721,-1.8352,-1.8277,-1.7441,-1.6959,-1.7003,-1.6574,-1.6314,-1.6379,-1.6487,-1.6567,-1.6635,-1.613,-1.5992,-1.6244,-1.5847,-1.5626,-1.5626,-1.5734,-1.5597,-1.5405,-1.5591,-1.5636,-1.557,-1.5703,-1.5703,-1.5691,-1.6318,-1.662,-1.6735,-1.7073,-1.6833,-1.6428,-1.6858,-1.6603,-1.6145,-1.6529,-1.6952,-1.7419,-1.7837,-1.8569,-1.9351,-1.9611,-2.0076,-2.0494,-2.0728,-2.0893,-2.1007,-2.1071,-2.1214,-2.1294,-2.1199,-2.16,-2.1857,-2.1577,-2.2194,-2.2582,-2.187,-2.2215,-2.2497,-2.2214,-2.1927,-2.1898,-2.2315,-2.1759,-2.1156,-2.0849,-2.0237,-1.9601,-1.8993,-1.8325,-1.7859,-1.7611,-1.7251,-1.6922,-1.6667,-1.6649,-1.674,-1.694,-1.6908,-1.697,-1.7089,-1.7504,-1.795,-1.8447,-1.8519,-1.8554,0.0,0.0,0.0,0.0,0.0,0.0,0.0,0.0,-1.5699,-1.7396,-1.7666,-1.7963,-1.8997,-1.9285,-1.9473,-1.9827,-1.9817,-2.0005,-2.0658,-2.0218,-2.0104,-2.0759,-2.0368,-1.9843,-1.9533,-1.9067,-1.8462,-1.7786,-1.7074,-1.6667,-1.649,-1.6267,-1.6054,-1.5918,-1.6318,-1.6386,-1.5932,-1.6214,-1.6214,-1.5883,-1.6087,-1.6182,-1.6131,-1.6031,-1.5813,-1.5471,-1.5525,-1.5452,-1.5255,-1.557,-1.5558,-1.5468,-1.5881,-1.6175,-1.638,-1.6748,-1.6635,-1.6386,-1.6771,-1.6619,-1.6305,-1.6674,-1.6892,-1.7022,-1.7464,-1.814,-1.8847,-1.9171,-1.9805,-2.0423,-2.0592,-2.0728,-2.0877,-2.0877,-2.1055,-2.1167,-2.1087,-2.1295,-2.1486,-2.1388,-2.2115,-2.2519,-2.181,-2.2278,-2.2582,-2.2024,-2.2118,-2.2265,-2.2282,-2.2377,-2.1949,-2.0593,-2.0426,-1.986,-1.8545,-1.8506,-1.8357,-1.7843,-1.779,-1.7556,-1.7077,-1.701,-1.7122,-1.7361,-1.7296,-1.7335,-1.7496,-1.8189,-1.8557,-1.8653,-1.9376,-1.9701,-1.3146,-1.2902,-1.3411,-1.579,-1.5632,-1.5904,0.0,0.0,-1.8972,-2.0429,-2.0636,-2.0481,-2.0373,-2.0583,-2.0766,-2.0833,-2.0624,-2.0723,-2.148,-2.0278,-1.987,-2.1249,-2.0388,-1.9484,-1.9119,-1.8387,-1.8166,-1.8799,-1.7276,-1.6679,-1.738,-1.642,-1.5987,-1.6294,-1.6373,-1.6514,-1.677,-1.6412,-1.6372,-1.6583,-1.6309,-1.6081,-1.5815,-1.5549,-1.5355,-1.5304,-1.5094,-1.5063,-1.5108,-1.5153,-1.5153,-1.5153,-1.5468,-1.5635,-1.5768,-1.6448,-1.6625,-1.6506,-1.6857,-1.7027,-1.7126,-1.7478,-1.7824,-1.8187,-1.8607,-1.9023,-1.9462,-1.9798,-2.0104,-2.0339,-2.0423,-2.0592,-2.0744,-2.0794,-2.0777,-2.081,-2.0909,-2.1453,-2.1791,-2.1327,-2.1924,-2.2344,-2.1704,-2.179,-2.191,-2.1827,-2.194,-2.2101,-2.2282,-2.231,-2.2071,-2.1422,-2.0776,-1.9866,-1.8605,-1.8505,-1.8547,-1.8555,-1.8681,-1.8717,-1.8644,-1.8747,-1.8883,-1.9026,-1.8909,-1.8968,-1.9226,-1.9265,-1.9345,-1.9465,-1.9617,-1.9725,-1.5739,-1.5389,0.0,0.0,-1.7759,-1.8172,-1.9735,-2.0304,-2.0607,-2.1143,-2.1614,-2.1769,-2.1199,-2.1191,-2.1248,0.0,-2.0807,-2.0667,-2.1133,-2.0335,-1.9864,-2.0321,-1.9902,-1.9522,-1.9383,-1.8816,-1.8437,-1.831,-1.7525,-1.702,-1.6933,-1.6667,-1.6537,-1.6543,-1.6886,-1.6933,-1.6674,-1.6655,-1.6612,-1.6493,-1.6515,-1.6504,-1.6396,-1.6245,-1.5987,-1.5693,-1.5012,-1.4853,-1.504,-1.5085,-1.5028,-1.4949,-1.5255,-1.539,-1.5525,-1.6156,-1.6448,-1.6565,-1.6863,-1.7073,-1.7253,-1.7597,-1.7895,-1.8187,-1.8592,-1.8974,-1.9362,-1.9669,-1.9884,-2.0025,-2.0045,-2.02,-2.0392,-2.0543,-2.0577,-2.0628,-2.0811,-2.1466,-2.2031,-2.1858,-2.2523,-2.2899,-2.2246,-2.232,-2.2294,-2.1804,-2.1945,-2.2147,-2.2282,-2.2366,-2.2053,-2.1088,-1.9968,-1.9087,-1.8598,-1.8565,-1.862,-1.8752,-1.877,-1.8825,-1.8896,-1.8948,-1.9052,-1.917,-1.9168,-1.9198,-1.9326,-1.9405,-1.9719,-2.0233,-2.0308,-2.0671,-1.6851,0.0,0.0,-1.8371,-1.93,-1.9972,-2.0027,-2.0874,-2.1667,-2.1742,-2.2137,-2.2232,-2.1524,-2.1355,-2.125,-2.0991,-2.0502,-2.0309,-2.0658,-2.0162,-1.9731,-1.9723,-1.9494,-1.9356,-1.9356,-1.9146,-1.8672,-1.7926,-1.763,-1.7237,-1.6688,-1.6785,-1.6804,-1.6678,-1.7071,-1.7082,-1.6504,-1.6783,-1.6682,-1.6318,-1.6536,-1.6637,-1.657,-1.6511,-1.6195,-1.5615,-1.4898,-1.4681,-1.4893,-1.4804,-1.4754,-1.4673,-1.4937,-1.5074,-1.521,-1.576,-1.6144,-1.6436,-1.6735,-1.6947,-1.7157,-1.7461,-1.7693,-1.7948,-1.8358,-1.8669,-1.895,-1.9339,-1.956,-1.9705,-1.9741,-1.9904,-2.0115,-2.025,-2.0339,-2.046,-2.0628,-2.1189,-2.1688,-2.1821,-2.2457,-2.2768,-2.22,-2.2374,-2.2349,-2.1699,-2.1886,-2.2135,-2.2254,-2.2235,-2.1773,-2.0651,-1.9656,-1.8921,-1.86,-1.8759,-1.8852,-1.8806,-1.8984,-1.902,-1.8914,-1.9129,-1.9308,-1.943,-1.9263,-1.9421,-1.9908,-1.985,-2.0237,-2.1022,-2.1116,-2.167,-1.5347,0.0,-1.7428,-1.8839,-1.9826,-2.0819,-2.2166,-2.2339,-2.2341,-2.2842,-2.2587,-2.1988,-2.126,-2.0985,-2.0741,-2.0156,-1.9836,-1.9815,-2.0441,-1.9658,-1.9286,-1.9982,-1.9192,-1.8667,0.0,-1.8946,-1.8774,-1.8116,-1.7573,-1.7238,-1.7268,-1.6689,-1.6427,-1.6595,-1.674,-1.6751,-1.6606,-1.6627,-1.6524,-1.641,-1.6353,-1.6228,-1.6093,-1.5842,-1.5344,-1.4734,-1.4561,-1.4552,-1.456,-1.4201,-1.4104,-1.4222,-1.4373,-1.4558,-1.4754,-1.5176,-1.5715,-1.6231,-1.6281,-1.6595,-1.6918,-1.7157,-1.7352,-1.7598,-1.8069,-1.8254,-1.8422,-1.8988,-1.9265,-1.945,-1.9574,-1.9792,-1.999,-2.0005,-2.0045,-2.0185,-2.0388,-2.0491,-2.0592,-2.0724,-2.1037,-2.1247,-2.1167,-2.1466,-2.165,-2.1448,-2.1631,-2.1915,-2.2163,-2.1749,-2.1156,-2.0481,-2.0431,-1.9904,-1.8608,-1.917,-1.9356,-1.8841,-1.9594,-1.9702,-1.8932,-1.9705,-2.0192,-2.0263,-1.9502,-1.9969,-2.1712,-2.0935,-2.1002,-2.1877,-2.2009,-2.2536,-1.6995,0.0,-1.8128,-2.0056,-2.0776,-2.1122,-2.178,-2.2284,-2.2493,-2.1996,-2.1967,-2.1709,-2.0511,-2.0281,-2.0114,-1.9731,-1.9537,-1.9621,-2.0189,-1.973,-1.9302,-1.9144,-1.9027,0.0,0.0,0.0,-1.7897,-1.7762,-1.7232,-1.6955,-1.6884,-1.6808,-1.6693,-1.6627,-1.6534,-1.6477,-1.6285,-1.6192,-1.6134,-1.6087,-1.6029,-1.5961,-1.5816,-1.5239,-1.4984,-1.5017,-1.4459,-1.444,-1.477,-1.4447,-1.437,-1.4424,-1.4305,-1.4501,-1.4903,-1.5382,-1.5881,-1.6339,-1.6254,-1.6392,-1.6705,-1.6905,-1.7489,-1.8131,-1.8438,-1.8769,-1.9107,-1.9401,-1.9397,-1.9339,-1.9376,-1.9596,-1.9797,-1.9854,-1.994,-2.0096,-2.027,-2.1155,-2.176,-2.1377,-2.1887,-2.2269,-2.1839,-2.1616,-2.1526,-2.1587,-2.1751,-2.1957,-2.2163,-2.1725,-2.1164,-2.0528,-2.0152,-1.9584,-1.8647,-1.8788,-1.8863,-1.8677,-1.8943,-1.9246,-1.9553,-1.9416,-1.983,-2.0891,-2.0246,-2.0463,-2.1589,-2.1404,-2.1765,-2.2642,-2.273,-2.3258,-1.8047,-1.868,-1.9147,-2.0712,-2.1404,-2.1789,-2.1849,-2.248,-2.2708,-2.1868,-2.1592,-2.1199,-1.9972,-1.942,-1.912,-1.9074,-1.9101,-1.93,-1.9769,-1.9491,-1.9169,-1.8907,-1.8885,-1.8714,0.0,0.0,0.0,-1.755,-1.7122,-1.6798,-1.6678,-1.6749,-1.6627,-1.6296,-1.6306,-1.6124,-1.5874,-1.5846,-1.5798,-1.573,-1.5614,-1.5566,-1.5488,-1.5031,-1.4912,-1.5099,-1.4602,-1.459,-1.4818,-1.4592,-1.4509,-1.4471,-1.4371,-1.4468,-1.4787,-1.5518,-1.5997,-1.6315,-1.6541,-1.6811,-1.7067,-1.7346,-1.793,-1.8614,-1.8919,-1.922,-1.9489,-1.9569,-1.9666,-1.9657,-1.9284,-1.9538,-1.9864,-1.9698,-1.9833,-2.0041,-2.0166,-2.1219,-2.1952,-2.1268,-2.1886,-2.235,-2.1754,-2.1504,-2.1464,-2.1634,-2.1768,-2.1869,-2.2061,-2.1864,-2.1481,-2.0901,-2.0808,-2.0425,-1.9453,-1.9653,-1.9712,-1.9471,-1.9469,-1.9719,-2.0296,-1.9912,-2.031,-2.1639,-2.1022,-2.1261,-2.2387,-2.2228,-2.2593,-2.3419,-2.3455,-2.384,-1.8397,-1.9437,-2.0299,-2.0793,-2.1801,-2.2604,-2.2384,-2.2652,-2.2815,-2.2201,-2.1267,-2.0273,0.0,0.0,-1.7849,-1.8073,-1.8482,-1.8934,-1.9244,-1.9044,-1.8988,0.0,0.0,0.0,0.0,0.0,0.0,-1.7545,-1.719,-1.6877,-1.657,-1.6477,-1.6202,-1.573,-1.5951,-1.5884,-1.541,-1.5556,-1.5566,-1.5381,-1.5176,-1.5126,-1.5185,-1.5166,-1.5088,-1.501,-1.498,-1.4907,-1.471,-1.4562,-1.4449,-1.4345,-1.4474,-1.4483,-1.4565,-1.5574,-1.6018,-1.6325,-1.717,-1.7702,-1.8024,-1.8248,-1.8588,-1.8996,-1.9346,-1.9557,-1.9625,-1.9517,-1.9964,-2.0287,-1.9276,-1.9662,-2.0132,-1.9538,-1.9705,-1.997,-1.997,-2.0696,-2.1132,-2.0454,-2.1116,-2.1576,-2.0968,-2.1183,-2.1497,-2.1589,-2.1664,-2.1768,-2.1899,-2.2135,-2.2061,-2.1473,-2.2194,-2.2208,-2.0898,-2.1497,-2.1653,-2.1033,-2.098,-2.104,-2.1156,-2.1123,-2.1563,-2.2527,-2.1835,-2.2295,-2.3996,-2.3287,-2.3381,-2.4192,-2.4192,-2.4266,-1.8774,-1.9493,-2.0198,-2.1074,-2.1483,-2.1744,-2.168,-2.1331,-2.0701,-1.9531,-1.851,-1.7468,0.0,0.0,0.0,-1.7187,-1.8036,0.0,-1.9077,-1.9084,0.0,-1.8676,0.0,-1.862,-1.8427,-1.7787,0.0,-1.7807,-1.6984,-1.6435,-1.6389,-1.6363,-1.6202,-1.573,-1.5788,-1.5614,-1.5264,-1.5323,-1.5419,-1.5537,-1.5607,-1.5495,-1.5242,-1.5043,-1.4893,-1.4756,-1.4734,-1.4857,-1.5071,-1.4916,-1.4797,-1.4718,-1.4539,-1.4735,-1.5178,-1.6011,-1.6731,-1.7338,-1.8163,-1.8186,-1.7784,-1.7517,-1.835,-1.9378,-1.9206,-1.964,-2.0316,-2.0481,-2.0496,-2.0344,-1.9698,-1.9889,-2.0132,-1.9486,-1.9545,-1.9762,-1.9762,-2.0864,-2.1652,-2.1069,-2.1889,-2.2515,-2.2067,-2.2167,-2.2162,-2.179,-2.184,-2.194,-2.1969,-2.2118,-2.1989,-2.1395,-2.1686,-2.1576,-2.0714,-2.0893,-2.0995,-2.0868,-2.085,-2.1163,-2.1878,-2.139,-2.181,-2.3307,-2.2682,-2.2854,-2.385,-2.3755,-2.3873,-2.4133,-2.4133,-2.4172,-1.9316,-1.9894,-2.034,-2.1003,-2.1112,-2.0938,-2.0393,-1.9989,-1.9197,-1.7581,-1.6817,0.0,-1.4969,-1.5473,0.0,0.0,0.0,0.0,-1.8706,-1.8725,-1.8631,0.0,-1.8416,0.0,-1.8352,-1.7947,-1.7657,-1.7653,-1.6726,-1.6223,-1.6272,-1.6062,-1.5788,-1.5381,-1.5498,-1.5518,-1.5484,-1.5425,-1.5572,-1.587,-1.5798,-1.5579,-1.5278,-1.4906,-1.4703,-1.4597,-1.4473,-1.4694,-1.5137,-1.5061,-1.5093,-1.5085,-1.5007,-1.515,-1.5537,-1.6418,-1.6996,-1.7578,-1.8395,-1.8602,-1.84,-1.8252,-1.8991,-1.9941,-1.9773,-2.0239,-2.082,-2.0748,-2.0886,-2.0904,-2.0175,-2.0396,-2.0741,-2.0196,-2.0215,-2.0355,-2.0198,-2.1363,-2.2391,-2.2202,-2.2545,-2.283,-2.2673,-2.2831,-2.2867,-2.2619,-2.2742,-2.2895,-2.2926,-2.255,-2.2152,-2.182,-2.1953,-2.1909,-2.1552,-2.1614,-2.1685,-2.1709,-2.1458,-2.1691,-2.2605,-2.1963,-2.2228,-2.3567,-2.3328,-2.3394,-2.3789,-2.3894,-2.3958,-2.4054,-2.4054,-2.4113,-1.9673,-2.0107,-2.0431,-2.0557,-2.0535,-2.0185,-1.9034,-1.862,-1.7938,-1.6008,0.0,-1.5187,-1.4089,-1.457,-1.5255,-1.5667,0.0,-1.8056,-1.8206,-1.8121,-1.8163,-1.848,-1.7957,-1.7787,-1.8352,-1.8067,-1.7686,-1.7337,-1.6525,-1.6088,-1.6176,-1.5703,-1.5332,-1.5056,-1.533,-1.5523,-1.5785,-1.5705,-1.5854,-1.6177,-1.591,-1.556,-1.5247,-1.4908,-1.4595,-1.4446,-1.4372,-1.4543,-1.497,-1.5156,-1.5233,-1.5375,-1.5495,-1.5583,-1.5708,-1.6594,-1.707,-1.7353,-1.8247,-1.8827,-1.9226,-1.9426,-1.9863,-2.0359,-2.0432,-2.0756,-2.1073,-2.0705,-2.1103,-2.1434,-2.0606,-2.0895,-2.1369,-2.1009,-2.1114,-2.1197,-2.0846,-2.1958,-2.3132,-2.3474,-2.328,-2.3028,-2.3151,-2.3366,-2.356,-2.36,-2.3819,-2.4,-2.4114,-2.3203,-2.253,-2.253,-2.2566,-2.2605,-2.2659,-2.279,-2.2868,-2.2893,-2.2342,-2.2387,-2.3182,-2.2652,-2.2731,-2.3585,-2.3718,-2.3786,-2.3774,-2.3883,-2.3964,-2.3976,-2.4085,-2.4145,-1.8586,-1.8875,-1.9104,-1.9019,-1.9178,-1.9138,-1.8115,-1.7436,0.0,0.0,-1.3714,-1.3135,-1.1952,-1.2865,-1.4132,-1.5126,0.0,0.0,0.0,0.0,-1.7643,0.0,0.0,0.0,-1.7755,-1.7069,0.0,0.0,-1.643,-1.587,-1.5718,-1.5763,-1.5603,-1.5247,-1.5501,-1.5642,-1.5716,-1.5716,-1.5789,-1.606,-1.6136,-1.5794,-1.4945,-1.5327,-1.4976,-1.4088,-1.4662,-1.486,-1.4775,-1.5088,-1.5128,-1.4988,-1.5174,-1.5399,-1.5664,-1.6246,-1.6852,-1.7522,-1.8224,-1.8679,-1.902,-1.8841,-1.9358,-2.0004,-1.9718,-2.0195,-2.0894,-2.1046,-2.0989,-2.0868,-2.0799,-2.072,-2.0656,-2.0599,-2.0893,-2.1097,-2.1035,-2.2058,-2.327,-2.4213,-2.4524,-2.449,-2.4163,-2.4229,-2.4178,-2.3817,-2.3786,-2.3918,-2.4161,-2.3611,-2.3236,-2.3236,-2.279,-2.2515,-2.2525,-2.2623,-2.2712,-2.2893,-2.2797,-2.2905,-2.3265,-2.3165,-2.3236,-2.3517,-2.3634,-2.3678,-2.3652,-2.437,-2.4422,-2.3855,-2.4523,-2.4572,-1.8269,-1.8462,-1.8609,-1.841,-1.8187,-1.7652,-1.6385,0.0,0.0,0.0,-1.1923,-1.1627,-1.0463,0.0,0.0,0.0,0.0,0.0,0.0,0.0,0.0,0.0,0.0,0.0,0.0,-1.6693,-1.6298,-1.6483,-1.6012,-1.5713,-1.579,-1.5578,-1.5458,-1.5531,-1.566,-1.5728,-1.5878,-1.5945,-1.5977,-1.6035,-1.6174,-1.5891,-1.5189,-1.5379,-1.5143,-1.4622,-1.4871,-1.4988,-1.5042,-1.5181,-1.5214,-1.5221,-1.5449,-1.5618,-1.5843,-1.6367,-1.6894,-1.7412,-1.7865,-1.841,-1.891,-1.8894,-1.9405,-1.9991,-1.9862,-2.0328,-2.0898,-2.101,-2.1089,-2.1178,-2.1131,-2.1204,-2.1299,-2.1358,-2.1441,-2.1668,-2.223,-2.2584,-2.3152,-2.4261,-2.4605,-2.4736,-2.4662,-2.4804,-2.4857,-2.4648,-2.4778,-2.4954,-2.5076,-2.4679,-2.4284,-2.3958,-2.3367,-2.3039,-2.3039,-2.2737,-2.2579,-2.2685,-2.279,-2.2919,-2.3028,-2.3144,-2.3241,-2.3336,-2.3476,-2.3759,-2.4188,-2.4203,-2.4275,-2.4364,-2.4371,-2.4236,-1.7726,-1.791,-1.8063,-1.7891,-1.7244,-1.6318,-1.4894,-1.4003,0.0,0.0,-1.0632,-1.0487,-0.946,0.0,-1.1452,0.0,-1.3195,0.0,0.0,0.0,0.0,0.0,0.0,0.0,-1.6533,-1.6062,0.0,-1.5591,-1.5385,-1.5366,-1.5766,-1.5331,-1.5207,-1.5622,-1.5735,-1.5872,-1.6017,-1.6102,-1.6102,-1.6026,-1.6111,-1.583,-1.5265,-1.5384,-1.5186,-1.4789,-1.4867,-1.4897,-1.4903,-1.4964,-1.5074,-1.5177,-1.5526,-1.57,-1.5816,-1.6285,-1.6722,-1.7123,-1.7357,-1.7924,-1.859,-1.9004,-1.946,-1.9914,-1.9991,-2.0408,-2.0762,-2.0729,-2.1005,-2.1308,-2.1348,-2.1568,-2.1829,-2.2156,-2.2169,-2.2294,-2.3216,-2.3108,-2.3152,-2.4085,-2.4359,-2.4564,-2.4886,-2.5123,-2.524,-2.5355,-2.5584,-2.5787,-2.5824,-2.5551,-2.5229,-2.4811,-2.3958,-2.3435,-2.3405,-2.2802,-2.246,-2.2487,-2.2659,-2.2764,-2.2816,-2.2944,-2.3052,-2.3168,-2.3448,-2.3951,-2.467,-2.4432,-2.4598,-2.5103,-2.4703,-2.4462,-1.6013,-1.6401,-1.678,-1.6711,-1.6182,-1.5534,-1.471,0.0,0.0,-1.0682,-1.0284,-0.9896,-0.9005,-0.9358,-1.0097,-1.1065,0.0,-1.2443,0.0,0.0,0.0,0.0,0.0,0.0,-1.5613,-1.4681,-1.4287,-1.4956,-1.4587,-1.4527,-1.4981,-1.492,-1.5077,-1.551,-1.5887,-1.6079,-1.6079,-1.5781,-1.5781,-1.6079,-1.5773,-1.5317,-1.4788,-1.5435,-1.5027,-1.3772,-1.456,-1.4421,-1.3683,-1.3994,-1.4156,-1.4369,-1.4647,-1.502,-1.5274,-1.5309,-1.5914,-1.6676,-1.6678,-1.7059,-1.7676,-1.8525,-1.921,-1.962,-1.9519,-1.9922,-2.0382,-2.0167,-2.0213,-2.0462,-2.1046,-2.1016,-2.107,-2.2136,-2.2466,-2.2665,-2.3024,-2.3275,-2.355,-2.4021,-2.4219,-2.4426,-2.4782,-2.4926,-2.5045,-2.5107,-2.5278,-2.541,-2.5616,-2.5668,-2.5733,-2.5829,-2.4295,-2.3194,-2.3134,-2.2572,-2.231,-2.2487,-2.2579,-2.2659,-2.279,-2.2816,-2.2893,-2.302,-2.3821,-2.4335,-2.4622,-2.6007,-2.6387,-2.581,-2.6498,-2.6507,-1.5842,-1.6246,-1.6459,-1.5894,-1.5259,-1.4526,-1.3251,0.0,-1.1257,-0.994,-0.945,-0.9057,-0.8319,-0.8446,-0.8824,-0.9373,-0.99,0.0,0.0,0.0,0.0,0.0,0.0,0.0,0.0,0.0,-1.395,-1.3974,-1.3478,-1.3475,-1.4217,-1.4445,-1.479,-1.5215,-1.5231,-1.5068,-1.4765,-1.4765,-1.4647,-1.4629,-1.4647,-1.4504,-1.4032,-1.4404,-1.4195,-1.3648,-1.3891,-1.3946,-1.3845,-1.3865,-1.401,-1.4249,-1.4478,-1.4715,-1.4932,-1.5349,-1.5904,-1.6394,-1.6428,-1.6937,-1.7611,-1.7629,-1.8327,-1.9101,-1.9133,-1.9116,-1.9108,-1.9248,-1.9357,-1.9661,-2.0401,-2.0975,-2.1503,-2.2021,-2.2324,-2.2601,-2.2994,-2.3172,-2.3436,-2.3994,-2.4135,-2.4234,-2.4589,-2.471,-2.4806,-2.4886,-2.5139,-2.5333,-2.541,-2.5567,-2.5738,-2.5917,-2.4614,-2.3758,-2.3742,-2.2731,-2.2163,-2.231,-2.2394,-2.246,-2.2569,-2.3133,-2.3509,-2.3615,-2.4453,-2.5217,-2.5853,-2.6074,-2.6346,-2.6684,-2.6523,-2.6345,-1.4897,-1.5526,-1.5863,-1.5248,-1.4418,-1.348,0.0,0.0,-1.0292,-0.9203,-0.869,-0.8319,-0.7803,-0.7787,-0.7899,-0.802,-0.8539,-0.9257,-1.0143,0.0,0.0,0.0,0.0,-1.3535,0.0,-1.3729,-1.3392,-1.3042,-1.2572,-1.2684,-1.3453,-1.3839,-1.4186,-1.4745,-1.4676,-1.4375,-1.3866,-1.3893,-1.3892,-1.3679,-1.3835,-1.3811,-1.377,-1.3727,-1.3667,-1.3518,-1.3348,-1.333,-1.353,-1.3333,-1.3519,-1.389,-1.4112,-1.441,-1.4756,-1.5225,-1.5783,-1.6224,-1.6221,-1.6613,-1.7131,-1.7037,-1.7447,-1.8037,-1.8203,-1.8323,-1.8427,-1.8711,-1.9185,-1.9713,-2.0313,-2.1111,-2.1746,-2.1949,-2.2184,-2.2509,-2.2904,-2.3083,-2.3245,-2.3625,-2.383,-2.3991,-2.4178,-2.4384,-2.4564,-2.4701,-2.4926,-2.5123,-2.5139,-2.5301,-2.5492,-2.5621,-2.4587,-2.3918,-2.4032,-2.2748,-2.2057,-2.2383,-2.2488,-2.2659,-2.2965,-2.3676,-2.4035,-2.3877,-2.4743,-2.545,-2.5948,-2.595,-2.6339,-2.7074,-2.6795,-2.6709,-1.2655,-1.3695,-1.4692,-1.4724,-1.3571,-1.2364,0.0,0.0,-0.9073,-0.8522,-0.8138,-0.7821,-0.7539,-0.749,-0.7442,-0.7243,-0.7432,-0.816,-0.9771,0.0,0.0,0.0,0.0,-1.257,-1.252,-1.2407,-1.2323,-1.2323,-1.2112,-1.2253,-1.2791,-1.2938,-1.3359,-1.4194,-1.4332,-1.4163,-1.3741,-1.351,-1.3575,-1.3916,-1.3364,-1.3491,-1.4093,-1.3819,-1.3467,-1.3124,-1.2959,-1.2617,-1.2127,-1.2127,-1.249,-1.3042,-1.339,-1.3992,-1.4718,-1.4772,-1.5342,-1.6099,-1.5925,-1.586,-1.5975,-1.692,-1.6715,-1.6185,-1.6502,-1.7653,-1.8783,-1.878,-1.9786,-2.0924,-2.1131,-2.1326,-2.152,-2.1902,-2.2184,-2.2463,-2.2663,-2.3038,-2.3171,-2.2802,-2.3318,-2.367,-2.3295,-2.383,-2.4359,-2.4498,-2.4564,-2.4686,-2.4782,-2.4822,-2.4862,-2.5021,-2.3994,-2.3428,-2.3669,-2.2486,-2.2021,-2.2841,-2.3029,-2.3452,-2.4252,-2.443,-2.4215,-2.3625,-2.4517,-2.475,-2.4235,-2.5968,-2.6774,-2.6836,-2.7762,-2.8246,-1.0861,-1.1685,-1.2207,-1.1584,-1.1029,-1.0404,-0.9587,-0.8726,-0.7887,-0.7135,-0.7106,-0.7093,-0.6633,-0.6848,-0.7068,-0.6991,-0.719,-0.7518,0.0,0.0,0.0,0.0,-1.158,-1.2236,0.0,-1.22,-1.2119,-1.2119,-1.172,-1.1734,-1.2253,-1.1995,-1.2183,-1.3006,-1.3361,-1.3017,-1.2059,-1.2327,-1.246,-1.2307,-1.2264,-1.214,-1.2062,-1.1936,-1.1689,-1.1277,-1.138,-1.1624,-1.1895,-1.2007,-1.239,-1.305,-1.3294,-1.3709,-1.4282,-1.4625,-1.5187,-1.5833,-1.5714,-1.5783,-1.585,-1.5778,-1.6025,-1.6244,-1.5927,-1.6604,-1.7501,-1.7781,-1.8681,-1.9685,-2.0114,-2.0836,-2.1471,-2.1664,-2.1996,-2.2356,-2.2663,-2.26,-2.251,-2.267,-2.2514,-2.2505,-2.2991,-2.3244,-2.3575,-2.409,-2.4482,-2.4726,-2.4686,-2.4871,-2.5045,-2.5201,-2.392,-2.3131,-2.3345,-2.2296,-2.1732,-2.2009,-2.2609,-2.3114,-2.3393,-2.4205,-2.4586,-2.4418,-2.489,-2.5077,-2.4943,-2.6096,-2.701,-2.7698,-2.7974,-2.8209,0.0,-1.0043,-1.0531,-0.9891,-0.9595,-0.9203,-0.8342,-0.7759,-0.7173,-0.6219,-0.6298,-0.6406,-0.6085,-0.6293,-0.655,-0.6666,-0.6677,0.0,0.0,0.0,0.0,0.0,0.0,0.0,0.0,-1.1434,-1.1349,-1.1593,-1.1162,-1.1076,-1.1458,-1.127,-1.133,-1.1734,-1.2276,-1.2159,-1.1122,-1.1498,-1.1622,-1.1435,-1.1435,-1.1329,-1.1195,-1.1149,-1.0912,-1.0546,-1.073,-1.107,0.0,-1.1677,-1.2103,-1.2797,-1.305,-1.3561,-1.4153,-1.4533,-1.5174,-1.5792,-1.5802,-1.586,-1.5945,-1.5682,-1.602,-1.6436,-1.6373,-1.6648,-1.7078,-1.7318,-1.8131,-1.9028,-1.9475,-2.0226,-2.0941,-2.1179,-2.1688,-2.2217,-2.254,-2.2366,-2.2159,-2.2174,-2.1883,-2.1814,-2.234,-2.2748,-2.3208,-2.3834,-2.4317,-2.4564,-2.4482,-2.467,-2.4831,-2.4886,-2.384,-2.3222,-2.3353,-2.2115,-2.1454,-2.1729,-2.236,-2.3012,-2.3669,-2.4439,-2.4913,-2.5036,-2.5249,-2.5259,-2.5086,-2.6004,-2.6863,-2.7571,-2.7929,-2.7966,0.0,-0.8715,0.0,-0.9244,-0.8911,-0.8452,-0.7946,-0.7408,0.0,-0.5716,-0.566,-0.5779,-0.5779,-0.5807,-0.5917,-0.6221,-0.6052,0.0,0.0,0.0,0.0,0.0,-1.0203,0.0,-1.0744,-1.0263,-1.0251,-1.0903,-1.0447,-1.0309,-1.0633,-1.0824,-1.0776,-1.0447,-1.1224,-1.1346,-1.0744,-1.0933,-1.1059,-1.1066,-1.087,-1.0944,-1.1249,-1.1114,-1.0944,-1.0764,-1.0782,-1.0793,-1.0836,-1.117,-1.1755,-1.2344,-1.2838,-1.3554,-1.4336,-1.4611,-1.5185,-1.5955,-1.6035,-1.6042,-1.6094,-1.6342,-1.6484,-1.6654,-1.734,-1.7449,-1.7375,-1.7428,-1.8047,-1.8819,-1.9205,-1.9675,-2.0133,-2.0628,-2.1365,-2.1988,-2.231,-2.2263,-2.1942,-2.1439,-2.1429,-2.1495,-2.1579,-2.2329,-2.3167,-2.3691,-2.4094,-2.4276,-2.4166,-2.4234,-2.4276,-2.4223,-2.3838,-2.36,-2.36,-2.1957,-2.1259,-2.1945,-2.2212,-2.3028,-2.4538,-2.4876,-2.5113,-2.5296,-2.5524,-2.536,-2.4791,-2.5789,-2.6435,-2.6778,-2.7579,-2.7564,-0.5807,0.0,-0.6906,-0.6456,-0.6453,-0.6446,0.0,-0.5638,-0.5093,0.0,0.0,0.0,-0.4489,-0.4784,-0.5271,-0.5909,0.0,0.0,0.0,0.0,0.0,-0.8902,-0.9854,-1.0419,-1.0214,-1.0089,-1.0054,-1.0249,-0.9801,-0.9621,-0.9744,-0.9805,-0.9811,-0.9744,-1.02,-1.0373,-1.0174,-1.0555,-1.0751,-1.0751,-1.0491,-1.0474,-1.0575,-1.0362,-1.0223,-1.0127,-1.0574,-1.0795,-1.0838,-1.1574,-1.2155,-1.2575,-1.302,-1.3621,-1.4154,-1.4479,-1.4825,-1.5265,-1.5508,-1.5479,-1.5403,-1.5429,-1.5554,-1.5776,-1.5939,-1.6481,-1.7111,-1.753,-1.7856,-1.8345,-1.9274,-1.9743,-2.0192,-2.0919,-2.1023,-2.1287,-2.2225,-2.1786,-2.1365,-2.1797,-2.1601,-2.1547,-2.2174,-2.2562,-2.2975,-2.3548,-2.3952,-2.412,-2.4082,-2.4193,-2.4317,-2.4416,-2.3894,-2.3514,-2.3514,-2.2285,-2.1594,-2.1821,-2.1993,-2.2273,-2.2713,-2.3753,-2.4314,-2.4315,-2.4729,-2.5223,-2.5846,-2.6006,-2.6493,-2.7308,-2.69,-2.6707,-0.4927,-0.541,-0.5793,-0.5622,-0.5746,-0.5805,-0.5504,0.0,0.0,0.0,0.0,0.0,0.0,0.0,0.0,0.0,-0.586,0.0,0.0,0.0,0.0,-0.8719,-0.942,-0.9872,-0.9664,-0.9503,-0.9421,-0.9473,-0.9052,-0.8897,-0.9139,-0.9081,-0.9081,-0.9145,-0.953,-0.9792,-0.9983,-1.0244,-1.0301,-1.0301,-1.0238,-1.0097,-0.9955,-0.992,-0.9819,-0.9669,-1.0101,-1.0398,-1.0506,-1.1301,-1.194,-1.2367,-1.2956,-1.359,-1.4104,-1.4226,-1.4638,-1.5025,-1.51,-1.5264,-1.5563,-1.5786,-1.6036,-1.6254,-1.6111,-1.6598,-1.7186,-1.7156,-1.7281,-1.7653,-1.844,-1.9035,-1.9647,-2.0248,-2.0678,-2.1124,-2.1866,-2.1575,-2.1298,-2.1873,-2.162,-2.1483,-2.2283,-2.2542,-2.2835,-2.3477,-2.3782,-2.3952,-2.3925,-2.4109,-2.425,-2.4291,-2.4035,-2.3736,-2.3412,-2.2755,-2.2133,-2.1604,-2.1752,-2.1874,-2.1893,-2.3009,-2.4031,-2.4944,-2.5361,-2.5715,-2.6014,-2.6375,-2.6488,-2.638,-2.67,-2.6516,-0.4566,-0.4931,-0.5311,-0.5531,-0.5719,-0.5766,-0.5414,0.0,0.0,0.0,0.0,0.0,0.0,0.0,0.0,0.0,0.0,0.0,-0.6356,-0.7108,-0.7822,-0.8479,-0.883,-0.9024,-0.9012,-0.8788,-0.864,-0.8584,-0.831,-0.8242,-0.8639,-0.8458,-0.8474,-0.87,-0.9087,-0.9466,-0.9919,-0.9919,-0.9926,-0.9983,-0.9875,-0.9755,-0.9606,-0.9691,-0.9627,-0.9402,-0.9734,-0.9926,-1.0117,-1.0918,-1.1475,-1.205,-1.2814,-1.3502,-1.3958,-1.4022,-1.4405,-1.4912,-1.4796,-1.5138,-1.5773,-1.6419,-1.6746,-1.6961,-1.6633,-1.691,-1.7255,-1.6712,-1.6734,-1.7015,-1.747,-1.8179,-1.891,-1.9471,-2.0207,-2.0952,-2.1479,-2.1301,-2.1262,-2.1873,-2.1483,-2.1347,-2.2247,-2.2418,-2.2623,-2.3362,-2.3625,-2.3739,-2.3754,-2.394,-2.4082,-2.3982,-2.4044,-2.3882,-2.3446,-2.3299,-2.2707,-2.1581,-2.1579,-2.1678,-2.1909,-2.2639,-2.4007,-2.6106,-2.6283,-2.6269,-2.5985,-2.6745,-2.6513,-2.5338,-2.6541,-2.6432,-0.434,-0.4573,-0.4644,-0.4618,-0.4978,-0.5258,-0.5034,0.0,0.0,0.0,0.0,0.0,0.0,-0.3532,-0.4207,0.0,0.0,-0.5858,0.0,0.0,-0.6765,-0.7213,-0.7941,-0.8209,-0.787,-0.8106,-0.817,-0.7825,-0.7762,-0.7804,-0.784,-0.796,-0.8106,-0.8296,-0.8753,-0.9145,-0.9402,-0.9542,-0.9676,-0.9798,-0.9425,-0.95,-0.9913,-0.9606,-0.9631,-0.9919,-1.0117,-1.0238,-1.0321,-1.1274,-1.1674,-1.1774,-1.2991,-1.3362,-1.3313,-1.3669,-1.394,-1.4101,-1.4713,-1.4849,-1.4827,-1.5431,-1.5808,-1.604,-1.5916,-1.6249,-1.6654,-1.6797,-1.6864,-1.7021,-1.767,-1.803,-1.8511,-1.9668,-1.9561,-1.9574,-2.1097,-2.0495,-2.0143,-2.1971,-2.1279,-2.0898,-2.2673,-2.2367,-2.2251,-2.3172,-2.3363,-2.3407,-2.3538,-2.3596,-2.3683,-2.3797,-2.3341,-2.3273,-2.3827,-2.3463,-2.301,-2.2596,-2.1698,-2.1683,-2.2833,-2.3067,-2.4165,-2.6315,-2.5747,-2.5899,-2.6804,-2.6791,-2.6771,-2.6756,-2.5634,-2.548,-0.366,-0.3948,-0.4088,-0.3949,-0.4571,-0.5201,-0.5235,0.0,0.0,0.0,0.0,0.0,0.0,0.0,-0.4592,-0.524,0.0,-0.5604,-0.5947,-0.6019,-0.6231,-0.6714,-0.7231,-0.7483,-0.7325,-0.7516,-0.7531,-0.7215,-0.719,-0.723,-0.7233,-0.7464,-0.7694,-0.7795,-0.8297,-0.8634,-0.8823,-0.8948,-0.9199,-0.9569,-0.9229,-0.9161,-0.9285,-0.9035,-0.9004,-0.9256,-0.9444,-0.9649,-0.9919,-1.0701,-1.1276,-1.1734,-1.256,-1.2898,-1.3074,-1.3383,-1.3658,-1.3943,-1.4432,-1.4604,-1.4725,-1.5231,-1.5731,-1.604,-1.5753,-1.6186,-1.6741,-1.6519,-1.6513,-1.6721,-1.7466,-1.7854,-1.831,-1.9192,-1.912,-1.9178,-2.0361,-1.9885,-1.9683,-2.1043,-2.0729,-2.057,-2.1715,-2.1528,-2.1485,-2.2236,-2.2484,-2.2761,-2.3128,-2.3363,-2.3553,-2.3625,-2.3125,-2.2787,-2.2757,-2.2884,-2.302,-2.3086,-2.2132,-2.1947,-2.2734,-2.3353,-2.3999,-2.465,-2.5011,-2.5481,-2.6017,-2.6149,-2.6026,-2.5681,-2.5329,-2.5268,-0.3143,-0.348,-0.37,-0.3599,-0.4282,-0.5018,-0.5219,-0.4934,0.0,0.0,0.0,0.0,0.0,-0.4031,0.0,-0.5621,-0.5499,-0.5365,-0.5562,-0.5584,-0.5734,-0.6304,-0.662,-0.6755,-0.6749,-0.6871,-0.6803,-0.6461,-0.6534,-0.6624,-0.6717,-0.6946,-0.7107,-0.7207,-0.7628,-0.7865,-0.7952,-0.8072,-0.8491,-0.9211,-0.8946,-0.8826,-0.8771,-0.8593,-0.8506,-0.8606,-0.8731,-0.9023,-0.9396,-0.9918,-1.0621,-1.137,-1.1927,-1.2287,-1.2633,-1.277,-1.3026,-1.3374,-1.3644,-1.3902,-1.4203,-1.4646,-1.5186,-1.5642,-1.5365,-1.5831,-1.6426,-1.6003,-1.587,-1.6086,-1.6987,-1.7485,-1.792,-1.8472,-1.8644,-1.8894,-1.9737,-1.931,-1.9041,-2.006,-1.9754,-1.9625,-2.0458,-2.0345,-2.0373,-2.1081,-2.1468,-2.1886,-2.2376,-2.2802,-2.3024,-2.2922,-2.245,-2.1913,-2.1336,-2.2325,-2.2945,-2.2873,-2.2369,-2.2126,-2.2223,-2.3189,-2.3607,-2.3423,-2.3963,-2.453,-2.5112,-2.5429,-2.524,-2.4683,-2.5071,-2.5101,-0.3232,-0.3452,-0.3554,-0.3748,-0.4034,0.0,-0.4508,-0.4275,0.0,-0.4038,0.0,0.0,0.0,-0.3446,-0.4268,-0.511,-0.5078,-0.5069,-0.555,-0.5345,-0.5259,-0.5618,-0.5962,-0.6067,-0.5733,-0.6022,-0.6019,-0.5452,-0.5753,-0.6106,-0.6404,-0.6258,-0.6338,-0.6764,-0.6786,-0.6745,-0.6616,-0.6721,-0.7412,-0.8764,-0.8498,-0.8515,-0.8857,-0.8622,-0.8531,-0.8527,-0.8527,-0.8737,-0.9098,-0.9526,-0.9903,-1.0226,-1.1155,-1.1485,-1.1442,-1.1439,-1.148,-1.159,-1.2069,-1.229,-1.2341,-1.2802,-1.3376,-1.3947,-1.4236,-1.4544,-1.4838,-1.5149,-1.4956,-1.4925,-1.6232,-1.6699,-1.6937,-1.7555,-1.7798,-1.8202,-1.9377,-1.8485,-1.7909,-1.9534,-1.8293,-1.7544,-1.9371,-1.9014,-1.8822,-1.9885,-2.0433,-2.0758,-2.1,-2.1434,-2.1572,-2.1115,-2.0545,-2.0175,-2.0112,-2.2214,-2.2954,-2.1613,-2.2017,-2.2033,-2.1506,-2.2101,-2.293,-2.4,-2.2372,-2.2606,-2.4835,-2.4872,-2.4977,-2.5113,-2.4496,-2.466,-0.2435,-0.2709,-0.2922,-0.3083,-0.3308,0.0,0.0,-0.4128,-0.3968,-0.4268,-0.3916,0.0,0.0,0.0,-0.3781,-0.4686,-0.4709,-0.4731,-0.5128,-0.4923,-0.4828,-0.4999,-0.514,-0.5183,-0.5069,-0.5358,-0.5373,-0.5073,-0.5123,-0.5245,-0.5478,-0.5412,-0.5494,-0.5751,-0.5908,-0.5994,-0.6119,-0.6156,-0.6492,-0.717,-0.7147,-0.72,-0.7374,-0.737,-0.7333,-0.7326,-0.7834,-0.8233,-0.8565,-0.9179,-0.9646,-1.0058,-1.0676,-1.1029,-1.1204,-1.1156,-1.1291,-1.1508,-1.1794,-1.1986,-1.2175,-1.2663,-1.3141,-1.3584,-1.3811,-1.4155,-1.4544,-1.4824,-1.4532,-1.4399,-1.5348,-1.5614,-1.5787,-1.6421,-1.6632,-1.6914,-1.7416,-1.6971,-1.6705,-1.7408,-1.6913,-1.6683,-1.7764,-1.78,-1.8057,-1.9115,-1.9275,-1.9481,-2.0007,-2.0615,-2.0877,-2.057,-2.026,-1.9992,-1.983,-2.0667,-2.0729,-1.9674,-2.1828,-2.2536,-2.1281,-2.1538,-2.1738,-2.1702,-2.1736,-2.2438,-2.3816,-2.3835,-2.4221,-2.4957,-2.454,-2.4659,-0.1971,-0.2194,-0.2371,0.0,0.0,0.0,-0.3492,-0.3683,-0.3792,-0.4,-0.3535,-0.3147,-0.3281,0.0,0.0,0.0,-0.4157,-0.4278,-0.459,-0.4483,-0.4385,-0.4497,-0.4513,-0.4488,-0.444,-0.4555,-0.4609,-0.4501,-0.4542,-0.4622,-0.4732,-0.4724,-0.4805,-0.4915,-0.4969,-0.5064,-0.5235,-0.5235,-0.5346,-0.5555,-0.5668,-0.5922,-0.6317,-0.6398,-0.6406,-0.6371,-0.6997,-0.7477,-0.7876,-0.8533,-0.9114,-0.973,-1.0005,-1.0327,-1.0614,-1.0584,-1.0702,-1.0902,-1.1093,-1.1193,-1.1307,-1.1807,-1.2333,-1.2783,-1.2984,-1.3425,-1.3909,-1.3913,-1.3791,-1.371,-1.4041,-1.4478,-1.4896,-1.5348,-1.5694,-1.5947,-1.6121,-1.6015,-1.5984,-1.6385,-1.6212,-1.6132,-1.6797,-1.705,-1.7355,-1.7971,-1.8055,-1.8235,-1.8579,-1.9363,-1.98,-1.9575,-1.9061,-1.878,-1.8903,-1.8869,-1.8525,-1.7922,-2.0466,-2.1665,-2.0867,-2.1203,-2.1273,-2.0959,-2.1889,-2.2627,-2.3196,-2.3378,-2.3815,-2.4446,-2.4426,-2.4571,-0.2001,-0.2041,0.0,0.0,0.0,0.0,-0.2102,-0.2777,-0.3328,-0.3133,-0.2484,-0.2084,-0.236,-0.2427,0.0,-0.3202,-0.3479,-0.3714,-0.395,-0.3965,-0.4024,-0.4105,-0.4085,-0.4029,-0.3816,-0.3816,-0.3717,-0.3617,-0.3951,-0.4245,-0.4405,-0.4236,-0.4241,-0.4265,-0.3972,-0.3796,-0.3796,-0.3796,-0.391,-0.4193,-0.4193,-0.4874,-0.6107,-0.5944,-0.5822,-0.5711,-0.6067,-0.6522,-0.7042,-0.751,-0.8182,-0.9011,-0.921,-0.9274,-0.9302,-0.955,-0.9522,-0.9395,-0.9563,-0.9486,-0.9506,-0.9927,-1.0537,-1.1136,-1.1527,-1.2182,-1.2704,-1.236,-1.2546,-1.2698,-1.2388,-1.3303,-1.4302,-1.4461,-1.494,-1.5485,-1.5811,-1.5659,-1.5822,-1.6842,-1.6255,-1.5846,-1.6648,-1.6769,-1.6657,-1.6242,-1.6773,-1.7039,-1.6642,-1.7581,-1.8154,-1.7918,-1.6621,-1.6182,-1.7115,-1.7002,-1.6791,-1.6522,-1.7774,-1.9041,-2.024,-2.0988,-2.1762,-2.2551,-2.2778,-2.2977,-2.3207,-2.3593,-2.377,-2.37,-2.4036,-2.4223,-0.118,-0.1237,0.0,-0.1323,0.0,0.0,0.0,-0.198,0.0,0.0,-0.2096,-0.1855,-0.2029,-0.1892,-0.2043,-0.2747,-0.3061,-0.3281,-0.3564,-0.3382,-0.3297,-0.3445,-0.3327,-0.3227,-0.3174,-0.3374,-0.3436,-0.3192,-0.3185,-0.3246,-0.3463,-0.3244,-0.3258,-0.3457,-0.3256,-0.3352,-0.3635,-0.358,-0.3691,-0.4079,-0.386,-0.4101,-0.4755,-0.4697,-0.4828,-0.5036,-0.5261,-0.5719,-0.6461,-0.7237,-0.7822,-0.8206,-0.857,-0.885,-0.9021,-0.9121,-0.9122,-0.9017,-0.9126,-0.9263,-0.9477,-0.9939,-1.0315,-1.0691,-1.1406,-1.1522,-1.148,-1.2003,-1.2083,-1.1999,-1.2113,-1.2457,-1.284,-1.3145,-1.4155,-1.4852,-1.401,-1.4829,-1.5554,-1.4897,-1.5071,-1.5321,-1.5326,-1.5745,-1.6064,-1.5881,-1.577,-1.5686,-1.5568,-1.5742,-1.5729,-1.5462,-1.5554,-1.5724,-1.5988,-1.638,-1.6735,-1.6989,-1.7993,-1.8904,-1.9725,-2.0333,-2.1057,-2.1828,-2.1914,-2.2339,-2.3061,-2.3142,-2.3613,-2.4461,-2.454,-2.4789,-0.0662,-0.067,0.0,-0.0642,-0.063,-0.0617,-0.0507,0.0,0.0,0.0,-0.1409,-0.1163,-0.1492,-0.1419,-0.1518,-0.2116,-0.2473,-0.2732,-0.2901,-0.281,-0.2783,-0.2864,-0.281,-0.2756,-0.2766,-0.2963,-0.3035,-0.2918,-0.2799,-0.2802,-0.2907,-0.28,-0.2762,-0.2852,-0.2796,-0.291,-0.3302,-0.319,-0.3357,-0.3747,-0.3524,-0.3524,-0.3749,-0.3826,-0.4045,-0.4351,-0.4948,-0.5512,-0.6137,-0.6655,-0.7131,-0.7471,-0.7858,-0.8148,-0.8364,-0.8803,-0.873,-0.8466,-0.8692,-0.885,-0.9033,-0.9631,-0.9907,-1.0244,-1.087,-1.0988,-1.0984,-1.1272,-1.1447,-1.1569,-1.1659,-1.1828,-1.2076,-1.2529,-1.3581,-1.4297,-1.363,-1.4681,-1.5448,-1.456,-1.4714,-1.4877,-1.4599,-1.4936,-1.5163,-1.4832,-1.4633,-1.4488,-1.4337,-1.4269,-1.4082,-1.3789,-1.4525,-1.522,-1.5736,-1.6144,-1.6491,-1.6748,-1.7446,-1.817,-1.8938,-2.0147,-2.0981,-2.1478,-2.1963,-2.2539,-2.3224,-2.3194,-2.3614,-2.4426,-2.4492,-2.4831,-0.0343,0.0,0.0,-0.0031,0.0247,0.0,0.0464,-0.0048,-0.0638,-0.109,0.0,-0.0205,-0.0847,-0.1012,-0.112,-0.1445,-0.1867,-0.2128,-0.2184,-0.2291,-0.2394,-0.2389,-0.2467,-0.2531,-0.2435,-0.2513,-0.2624,-0.2734,-0.272,-0.2719,-0.2673,-0.2728,-0.2659,-0.2519,-0.2465,-0.2575,-0.2907,-0.2745,-0.2914,-0.3357,-0.3188,-0.3077,-0.3077,-0.3246,-0.347,-0.3751,-0.4875,-0.5517,-0.5864,-0.5919,-0.6229,-0.6777,-0.7044,-0.7231,-0.7494,-0.8249,-0.8207,-0.7741,-0.8168,-0.8228,-0.8324,-0.9,-0.9408,-0.9734,-1.011,-1.0534,-1.0891,-1.0406,-1.0793,-1.1304,-1.1104,-1.1318,-1.1728,-1.2224,-1.3103,-1.3892,-1.3963,-1.4748,-1.5372,-1.506,-1.4725,-1.4432,-1.413,-1.4231,-1.4089,-1.3405,-1.343,-1.3467,-1.317,-1.3208,-1.315,-1.2861,-1.3747,-1.4824,-1.6013,-1.6156,-1.6113,-1.6069,-1.6436,-1.7046,-1.7989,-1.9983,-2.1231,-2.1565,-2.2569,-2.3231,-2.3466,-2.3523,-2.3668,-2.3927,-2.4151,-2.4441,0.0046,0.0262,0.0,0.0,0.0893,0.1062,0.0839,0.0809,0.0677,0.0,0.0156,0.0211,-0.0479,-0.0533,-0.0645,-0.1271,-0.1564,-0.174,-0.1852,-0.1864,-0.1911,-0.2081,-0.2218,-0.2234,-0.2056,-0.2317,-0.2446,-0.2256,-0.2174,-0.2211,-0.2546,-0.2327,-0.2334,-0.2633,-0.2296,-0.2352,-0.2914,-0.2689,-0.2745,-0.3188,-0.3023,-0.297,-0.297,-0.2972,-0.3037,-0.3131,-0.4279,-0.4581,-0.4351,-0.4979,-0.5306,-0.5561,-0.6053,-0.6318,-0.6456,-0.6688,-0.6863,-0.693,-0.6863,-0.7098,-0.7524,-0.8221,-0.8436,-0.8506,-0.9274,-0.9693,-0.9932,-0.987,-1.0341,-1.0841,-1.0677,-1.0871,-1.1065,-1.1006,-1.2339,-1.3359,-1.257,-1.3465,-1.4103,-1.3023,-1.3255,-1.3418,-1.275,-1.2983,-1.3072,-1.2623,-1.2899,-1.3084,-1.2745,-1.2987,-1.317,-1.3198,-1.3967,-1.472,-1.5435,-1.5614,-1.5724,-1.5856,-1.5932,-1.6225,-1.6704,-1.8455,-2.0332,-2.2326,-2.2725,-2.3023,-2.326,-2.326,-2.3509,-2.3997,-2.4024,-2.4219,0.0,0.0,0.0,0.1363,0.0,0.1792,0.1685,0.1829,0.1856,0.1333,0.1013,0.0746,0.0266,0.0213,0.0054,-0.0558,-0.0819,-0.0967,-0.1257,-0.1329,-0.1434,-0.153,-0.1746,-0.1825,-0.163,-0.1952,-0.2085,-0.1968,-0.187,-0.1953,-0.2237,-0.21,-0.2043,-0.2133,-0.1969,-0.2039,-0.2352,-0.2186,-0.2296,-0.2685,-0.2519,-0.2577,-0.2693,-0.2906,-0.2983,-0.3051,-0.3861,-0.4078,-0.3838,-0.4145,-0.4343,-0.4516,-0.4938,-0.5085,-0.5096,-0.5689,-0.5927,-0.5948,-0.6209,-0.6534,-0.6876,-0.7386,-0.7712,-0.7912,-0.8425,-0.8914,-0.9228,-0.8948,-0.9489,-1.0118,-0.9746,-1.0035,-1.0336,-1.0336,-1.1565,-1.2574,-1.2105,-1.277,-1.3168,-1.2052,-1.2104,-1.2052,-1.1217,-1.145,-1.1685,-1.1606,-1.179,-1.195,-1.1894,-1.1962,-1.2098,-1.2236,-1.2899,-1.3569,-1.4133,-1.463,-1.5084,-1.5623,-1.5433,-1.5344,-1.5367,-1.6495,-1.8026,-1.9995,-2.0915,-2.1924,-2.3037,-2.2717,-2.2613,-2.2753,-2.3568,-2.3838,0.0,0.0,0.1241,0.2,0.2339,0.0,0.2522,0.2695,0.2774,0.2471,0.1871,0.1329,0.1056,0.0958,0.0757,0.0222,0.016,0.0,-0.0474,-0.0671,-0.0751,-0.0765,-0.1078,-0.1217,-0.1047,-0.1243,-0.1444,-0.1512,-0.1555,-0.1624,-0.1788,-0.1795,-0.1639,-0.1371,-0.1434,-0.1511,-0.1551,-0.1388,-0.1499,-0.1886,-0.172,-0.1835,-0.2128,-0.2416,-0.2737,-0.3036,-0.349,-0.3648,-0.3625,-0.336,-0.3437,-0.3663,-0.3773,-0.3778,-0.3813,-0.4733,-0.4974,-0.4935,-0.5548,-0.594,-0.6218,-0.6601,-0.7033,-0.733,-0.7459,-0.8014,-0.8532,-0.7963,-0.848,-0.9118,-0.8697,-0.9026,-0.9444,-0.9488,-1.0413,-1.1328,-1.1606,-1.201,-1.2045,-1.121,-1.0939,-1.057,-0.971,-0.9999,-1.0344,-1.0421,-1.0385,-1.0493,-1.0771,-1.085,-1.0913,-1.0972,-1.1592,-1.2258,-1.287,-1.3695,-1.4505,-1.5322,-1.4562,-1.3996,-1.3758,-1.4204,-1.5061,-1.6416,-1.8288,-2.0274,-2.2361,-2.1873,-2.1554,-2.1491,-2.2879,-2.3224,0.0,0.0,0.179,0.0,0.2634,0.2791,0.0,0.0,0.3049,0.0,0.2607,0.216,0.1529,0.1441,0.1324,0.0754,0.0926,0.092,0.0358,0.0415,0.0462,0.0144,0.0095,0.0048,0.0094,0.0092,-0.0047,-0.0401,-0.0489,-0.0634,-0.0962,-0.091,-0.0808,-0.0709,-0.0576,-0.0533,-0.0587,-0.0374,-0.0427,-0.0641,-0.0427,-0.0489,-0.067,-0.0505,-0.1294,-0.277,-0.3089,-0.3143,-0.301,-0.2882,-0.2873,-0.3037,-0.2923,-0.2873,-0.2895,-0.2978,-0.3318,-0.374,-0.408,-0.4584,-0.516,-0.5947,-0.5982,-0.5803,-0.6375,-0.6807,-0.7081,-0.6894,-0.7337,-0.779,-0.7674,-0.7806,-0.7906,-0.7587,-0.8037,-0.8825,-0.9752,-1.0059,-1.0016,-0.9432,-0.9597,-0.9561,-0.8884,-0.9194,-0.9419,-0.8951,-0.9075,-0.9309,-0.953,-1.0241,-1.0677,-1.0616,-1.1469,-1.2187,-1.2473,-1.3406,-1.4236,-1.4744,-1.2608,-1.1277,-1.1221,-1.1505,-1.2262,-1.3358,-1.6137,-1.8401,-2.0106,-2.0613,-2.1125,-2.1681,-2.1885,-2.2087,0.1218,0.1663,0.2249,0.0,0.2908,0.3088,0.3188,0.0,0.3427,0.3365,0.3228,0.298,0.2441,0.2201,0.1898,0.1494,0.1564,0.1531,0.1027,0.1021,0.1005,0.0877,0.0702,0.0611,0.0737,0.0554,0.0329,0.0097,0.0,-0.0192,-0.039,-0.0391,-0.0244,0.0,-0.005,0.0,0.0106,0.0213,0.0268,0.0219,0.0109,0.0,-0.0056,-0.0112,-0.0559,-0.1342,-0.1759,-0.1927,-0.1902,-0.2184,-0.2296,-0.2296,-0.2237,-0.2151,-0.2187,-0.2463,-0.2832,-0.3256,-0.361,-0.399,-0.4411,-0.4595,-0.4869,-0.5075,-0.5126,-0.5563,-0.6062,-0.5756,-0.6046,-0.6454,-0.6187,-0.6288,-0.6445,-0.6411,-0.6627,-0.6972,-0.7236,-0.8019,-0.8571,-0.8435,-0.8503,-0.8571,-0.8233,-0.8865,-0.9233,-0.8835,-0.8818,-0.9,-0.9272,-1.0045,-1.0167,-0.9013,-0.9953,-1.0889,-1.1283,-1.1458,-1.1056,-1.0035,-0.8378,-0.75,-0.7465,-0.9387,-1.0971,-1.2055,-1.4405,-1.6523,-1.8305,-1.8728,-2.0007,-2.1983,-2.1787,-2.1656,0.0,0.0,0.2359,0.2757,0.3006,0.3245,0.0,0.0,0.3679,0.3773,0.3735,0.3641,0.3309,0.29,0.2525,0.2177,0.2237,0.2173,0.1732,0.1704,0.1719,0.1658,0.1469,0.1385,0.1481,0.115,0.0796,0.0656,0.0469,0.0328,0.0141,0.0187,0.0375,0.075,0.0568,0.0587,0.0829,0.0941,0.1014,0.1103,0.0992,0.0886,0.0782,0.067,0.0614,0.0558,-0.0447,-0.0895,-0.0894,-0.1285,-0.1343,-0.1175,-0.1061,-0.1022,-0.1044,-0.1411,-0.1796,-0.2179,-0.2834,-0.323,-0.3503,-0.3501,-0.3912,-0.4312,-0.3939,-0.4276,-0.4765,-0.442,-0.4613,-0.4869,-0.4643,-0.4769,-0.4925,-0.482,-0.5039,-0.5311,-0.5597,-0.6416,-0.7144,-0.7386,-0.7367,-0.7429,-0.7575,-0.8172,-0.8434,-0.7852,-0.8097,-0.8477,-0.8706,-0.9268,-0.8922,-0.6988,-0.7576,-0.8205,-0.8515,-0.8088,-0.7143,-0.5395,-0.5066,-0.4956,-0.5011,-0.7512,-0.9365,-1.0354,-1.2301,-1.4314,-1.6343,-1.6951,-1.8382,-2.0492,-2.1198,-2.1183,0.0,0.1757,0.0,0.2351,0.2759,0.0,0.0,0.0,0.3742,0.416,0.4028,0.3795,0.3865,0.3579,0.3227,0.2833,0.2988,0.2975,0.2495,0.273,0.2846,0.2652,0.2737,0.2737,0.2642,0.2375,0.202,0.1573,0.1348,0.1124,0.0857,0.099,0.1213,0.1528,0.1448,0.1575,0.1823,0.2034,0.2161,0.2239,0.2662,0.2709,0.2408,0.274,0.2907,0.2794,0.0559,-0.0392,-0.0223,0.0,0.0279,0.0612,0.1002,0.106,0.0952,0.1059,0.0741,0.0176,-0.0996,-0.1674,-0.2148,-0.3129,-0.3313,-0.3177,-0.2993,-0.2813,-0.2693,-0.2912,-0.2854,-0.274,-0.313,-0.3292,-0.3171,-0.222,-0.2656,-0.3759,-0.5605,-0.5668,-0.5554,-0.6028,-0.5993,-0.6063,-0.6606,-0.6793,-0.6406,-0.4871,-0.6114,-0.7177,-0.7225,-0.7257,-0.6588,-0.4842,-0.4187,-0.3688,-0.313,-0.3074,-0.3021,-0.2914,-0.4128,-0.5014,-0.5242,-0.5873,-0.6563,-0.7315,-0.9377,-1.1616,-1.4003,-1.558,-1.6166,-1.5921,-1.9495,-2.0429,0.0,0.0,0.0,0.2432,0.2685,0.2934,0.3326,0.3528,0.3736,0.4044,0.4102,0.4134,0.4157,0.3728,0.3349,0.3115,0.3193,0.3281,0.3096,0.3167,0.3227,0.3179,0.3132,0.2996,0.2732,0.2687,0.2462,0.1967,0.2014,0.1969,0.1791,0.1925,0.2103,0.2284,0.218,0.2271,0.2476,0.2581,0.2831,0.3129,0.3307,0.3421,0.3466,0.3186,0.3186,0.3236,0.1845,0.1396,0.1614,0.1281,0.128,0.1556,0.1505,0.1562,0.167,0.1392,0.1178,0.0962,0.0509,0.0171,-0.0173,-0.0403,-0.0571,-0.0621,-0.0396,-0.0393,-0.0444,-0.0333,-0.0278,-0.0278,-0.0723,-0.0722,-0.061,-0.0721,-0.0831,-0.1163,-0.2156,-0.3039,-0.3683,-0.3806,-0.4555,-0.5231,-0.5304,-0.5063,-0.4601,-0.3685,-0.3327,-0.3666,-0.5222,-0.4728,-0.3901,-0.2854,-0.2577,-0.2691,-0.3249,-0.2579,-0.2132,-0.2132,-0.2631,-0.3297,-0.4193,-0.4622,-0.5429,-0.6612,-0.7052,-0.8731,-1.1783,-1.3184,-1.4414,-1.5461,-1.7235,-1.7963,0.1536,0.0,0.0,0.0,0.0,0.2756,0.3194,0.3359,0.3525,0.4014,0.412,0.4197,0.435,0.4012,0.3662,0.3504,0.3612,0.366,0.3571,0.3575,0.3575,0.3575,0.3439,0.3214,0.2907,0.2865,0.264,0.219,0.2279,0.2324,0.2324,0.246,0.2595,0.2687,0.2595,0.265,0.2808,0.2899,0.3159,0.3553,0.3692,0.3811,0.391,0.3685,0.3627,0.3735,0.3239,0.3014,0.2947,0.2422,0.2371,0.2668,0.2644,0.2648,0.2666,0.2364,0.2258,0.2216,0.181,0.1598,0.1448,0.1336,0.1112,0.0999,0.1336,0.1334,0.122,0.1443,0.1554,0.1554,0.1277,0.1552,0.1826,0.1273,0.1496,0.172,0.133,-0.0332,-0.1843,-0.202,-0.2667,-0.3312,-0.3528,-0.289,-0.2213,-0.1839,-0.0836,-0.0783,-0.2449,-0.2347,-0.185,-0.1234,-0.1572,-0.1906,-0.2068,-0.1513,-0.101,-0.0617,-0.0785,-0.14,-0.2456,-0.3229,-0.4103,-0.5183,-0.5257,-0.6494,-0.894,-1.1065,-1.2888,-1.4386,-1.5625,-1.6305,0.0,0.0,0.0,0.0,0.0,0.0,0.2988,0.0,0.309,0.4088,0.4092,0.4033,0.4401,0.4404,0.4265,0.4148,0.4216,0.4224,0.3961,0.3924,0.3924,0.3924,0.3788,0.3568,0.3214,0.2907,0.2595,0.2324,0.219,0.219,0.2324,0.2593,0.2729,0.2729,0.2729,0.2783,0.285,0.2942,0.3156,0.3448,0.3819,0.3943,0.3852,0.4298,0.4515,0.4519,0.4632,0.4294,0.3616,0.3449,0.3636,0.4119,0.4467,0.4391,0.4061,0.4201,0.423,0.4103,0.3004,0.2605,0.251,0.2062,0.1671,0.1558,0.2119,0.2282,0.2332,0.2332,0.2556,0.2779,0.2773,0.3434,0.4045,0.3877,0.4326,0.4673,0.457,0.2221,-0.0056,-0.0636,-0.0342,-0.0226,-0.1177,-0.0229,0.0782,0.0949,0.1176,0.1233,0.095,-0.0056,-0.0561,0.0,-0.0954,-0.0953,0.0841,0.0449,0.0617,0.174,0.129,0.0615,-0.0223,-0.1556,-0.2498,-0.2826,-0.3975,-0.4856,-0.5462,-0.9313,-1.1523,-1.2183,-1.4623,-1.5657,0.1717,0.0,0.0,0.0,0.0,0.0,0.273,0.0,0.3078,0.3779,0.3914,0.3988,0.4251,0.4651,0.4833,0.4519,0.4487,0.4457,0.4295,0.4363,0.4355,0.4184,0.3873,0.3476,0.3078,0.299,0.286,0.2732,0.2998,0.3217,0.33,0.348,0.3571,0.3571,0.3571,0.3592,0.3587,0.3645,0.3842,0.4285,0.4551,0.4851,0.5238,0.5014,0.512,0.5391,0.4897,0.4842,0.5007,0.4747,0.4918,0.5445,0.5175,0.535,0.5719,0.5345,0.5462,0.571,0.5108,0.4961,0.4999,0.4772,0.4604,0.4604,0.4886,0.4886,0.4824,0.4937,0.4995,0.5109,0.5105,0.5214,0.5269,0.5269,0.5382,0.5441,0.5273,0.433,0.3287,0.2368,0.1964,0.1792,0.1927,0.2417,0.2899,0.3229,0.2734,0.2014,0.1288,0.2068,0.2291,0.1402,0.1401,0.2012,0.3403,0.3125,0.285,0.2742,0.24,0.1895,0.1225,0.0111,-0.0776,-0.1274,-0.2443,-0.3434,-0.429,-0.7072,-0.8909,-0.986,-1.2332,-1.3869,0.0,0.0,0.0,0.0,0.0,0.0,0.3139,0.3125,0.3234,0.3969,0.4068,0.4127,0.4479,0.489,0.5138,0.4926,0.5077,0.5187,0.504,0.508,0.5114,0.5119,0.4899,0.4595,0.4126,0.4083,0.4077,0.4113,0.4343,0.4561,0.4687,0.4439,0.4355,0.4395,0.4184,0.4056,0.4056,0.4149,0.438,0.4702,0.4977,0.5319,0.5618,0.5529,0.5668,0.5937,0.5445,0.5555,0.6055,0.5837,0.5832,0.5878,0.5681,0.5864,0.6209,0.5855,0.604,0.6367,0.6002,0.6026,0.6258,0.6154,0.615,0.6258,0.6317,0.6372,0.6421,0.6534,0.6696,0.6853,0.6756,0.6642,0.6583,0.6637,0.6529,0.6372,0.6411,0.6036,0.5441,0.4401,0.3843,0.3688,0.4191,0.4373,0.4525,0.4952,0.4051,0.3317,0.3517,0.3795,0.3781,0.3251,0.3354,0.3907,0.4952,0.4959,0.468,0.4061,0.3727,0.3302,0.2841,0.168,0.0894,0.0566,-0.0504,-0.1446,-0.238,-0.5296,-0.7547,-0.921,-1.0864,-1.2058,0.0,0.0,0.0,0.0,0.3577,0.0,0.3893,0.3626,0.3516,0.4353,0.4283,0.4212,0.4749,0.498,0.5103,0.5146,0.5612,0.5979,0.5931,0.586,0.5906,0.6226,0.6259,0.6102,0.5687,0.5607,0.5676,0.5885,0.5879,0.597,0.618,0.5481,0.5144,0.5331,0.487,0.4613,0.4613,0.4826,0.4928,0.5,0.5371,0.553,0.5548,0.594,0.6195,0.6317,0.6213,0.6431,0.681,0.681,0.648,0.5973,0.6163,0.6264,0.6249,0.6225,0.638,0.6568,0.6358,0.6565,0.6832,0.6902,0.6956,0.7004,0.7117,0.7283,0.745,0.745,0.7765,0.8078,0.7877,0.783,0.783,0.7984,0.761,0.7348,0.7723,0.7396,0.6799,0.5873,0.5492,0.5428,0.5745,0.5742,0.5817,0.6235,0.5226,0.4919,0.6388,0.5152,0.4422,0.5132,0.4937,0.5064,0.5894,0.6137,0.5941,0.5316,0.5069,0.4755,0.442,0.3199,0.2573,0.2514,0.1589,0.0559,-0.0561,-0.3926,-0.6811,-0.9242,-0.9888,-1.0394,0.0,0.0,0.0,0.0,0.4696,0.0,0.414,0.3836,0.3741,0.3987,0.3569,0.3293,0.3794,0.4109,0.4321,0.4343,0.4863,0.5469,0.5992,0.595,0.5901,0.5901,0.5514,0.5433,0.5821,0.5613,0.5717,0.6385,0.6288,0.6384,0.678,0.6266,0.6165,0.671,0.6542,0.6506,0.6554,0.6745,0.6637,0.6265,0.6447,0.6485,0.6478,0.6623,0.6849,0.7095,0.7198,0.73,0.7509,0.761,0.7391,0.7015,0.7036,0.7374,0.7723,0.7458,0.7629,0.8037,0.818,0.8298,0.8442,0.8751,0.8652,0.8402,0.8402,0.8408,0.8362,0.8362,0.8362,0.8362,0.8567,0.8514,0.8468,0.8738,0.8521,0.8309,0.8415,0.8256,0.8096,0.8131,0.7219,0.648,0.6574,0.6804,0.6961,0.6937,0.6559,0.6282,0.6271,0.5582,0.5342,0.5927,0.6,0.6311,0.6949,0.6682,0.6095,0.5328,0.5867,0.5901,0.5112,0.4956,0.4566,0.391,0.3078,0.1284,-0.1515,-0.274,-0.456,-0.6869,-0.7943,-0.9743,0.0,0.0,0.0,0.6189,0.5851,0.0,0.0,0.4782,0.4509,0.5074,0.452,0.4193,0.4949,0.5128,0.5078,0.4821,0.5501,0.6017,0.5945,0.6286,0.655,0.6607,0.6481,0.6462,0.6586,0.6708,0.7046,0.7638,0.7826,0.7913,0.7992,0.7322,0.7223,0.7829,0.7268,0.7058,0.7342,0.759,0.7545,0.7294,0.7473,0.7523,0.7503,0.7592,0.7796,0.8094,0.7988,0.815,0.8468,0.8514,0.856,0.8501,0.8203,0.8256,0.8573,0.8567,0.8679,0.8942,0.9197,0.9399,0.9547,0.9747,0.9651,0.951,0.9496,0.9458,0.9361,0.9145,0.9204,0.9368,0.9302,0.9295,0.9295,0.9309,0.9099,0.8935,0.889,0.8738,0.8745,0.9309,0.8764,0.8221,0.8304,0.8372,0.8517,0.8752,0.8383,0.8136,0.8346,0.8171,0.8226,0.881,0.7349,0.6822,0.8041,0.7317,0.6867,0.7017,0.6989,0.6842,0.6508,0.6113,0.5419,0.4464,0.3732,0.2516,0.0894,0.089,-0.0499,-0.3174,-0.5864,-0.8398,0.0,0.0,0.0,0.0,0.0,0.629,0.0,0.0,0.0,0.6189,0.5576,0.517,0.6194,0.6091,0.5729,0.5324,0.6189,0.6614,0.5693,0.6475,0.7124,0.7035,0.7355,0.7507,0.7241,0.7754,0.8281,0.8702,0.8891,0.8984,0.8931,0.8222,0.8147,0.8827,0.7984,0.7764,0.8156,0.8415,0.8464,0.8277,0.8453,0.8489,0.8399,0.8428,0.865,0.8973,0.8762,0.8958,0.9423,0.9444,0.9725,1.0064,0.9231,0.9047,0.9247,0.9519,0.9533,0.9497,1.0026,1.0183,1.019,1.0477,1.049,1.0446,1.0431,1.0387,1.03,0.9976,1.0095,1.0308,1.0035,1.0072,1.0131,0.9821,0.9658,0.9555,0.9517,0.9323,0.933,0.9947,1.0035,0.9956,0.9796,0.979,0.9909,1.0279,0.9772,0.9805,1.1016,1.1059,1.1247,1.1926,0.9272,0.8068,0.9572,0.8733,0.8275,0.8484,0.8021,0.7832,0.8051,0.7451,0.6463,0.4982,0.4578,0.4687,0.5352,0.5588,0.392,0.0525,-0.2806,-0.5114,0.0,0.0,0.0,0.0,0.8073,0.7864,0.6309,0.0,0.588,0.5885,0.0,0.4617,0.5388,0.0,0.0,0.4382,0.5645,0.6182,0.4837,0.6021,0.6683,0.5735,0.6393,0.6893,0.6868,0.7453,0.8021,0.8412,0.7714,0.7666,0.8611,0.8439,0.8719,0.9651,0.983,1.0012,1.0254,1.0475,1.0167,0.931,0.9426,0.9163,0.866,0.8885,0.9083,0.9283,0.9595,0.9897,1.0165,1.0261,1.0659,1.1183,0.9849,0.9577,0.9913,1.0197,0.9954,0.9729,1.1274,1.0959,1.0081,1.1438,1.1619,1.1368,1.1368,1.1167,1.0972,1.0964,1.082,1.0667,1.0616,1.071,1.0718,1.0462,1.0446,1.0584,1.0659,1.0514,1.0316,1.0419,1.0964,1.1065,0.9814,1.0066,1.0236,0.9746,0.9633,1.0436,1.2844,1.2728,1.2613,1.3208,1.2453,1.1951,1.2166,1.2035,1.0623,0.7514,0.8405,0.9143,0.9273,0.9838,0.8856,0.6221,0.6763,0.8559,1.1555,1.0458,0.7463,0.2836,0.2996,0.2341,0.0,0.0,0.0,0.8962,0.883,0.8574,0.7105,0.6675,0.6673,0.7005,0.0,0.0,0.0,0.0,0.0,0.0,0.6139,0.6012,0.4528,0.5223,0.5769,0.5382,0.5704,0.6192,0.6854,0.7229,0.7688,0.8248,0.7798,0.7856,0.8561,0.8781,0.9224,0.9965,1.011,1.0321,1.0649,1.0802,1.0639,1.0215,1.0176,1.0028,0.9704,0.9897,1.0085,1.0238,1.0507,1.091,1.1284,1.1408,1.1682,1.195,1.114,1.0853,1.0802,1.0809,1.0659,1.0606,1.1416,1.1472,1.1241,1.202,1.2009,1.1716,1.1778,1.1648,1.1477,1.1354,1.1314,1.1222,1.1039,1.1045,1.1182,1.1399,1.146,1.151,1.1569,1.1959,1.2384,1.2716,1.3016,1.3064,1.2492,1.1584,1.0871,1.06,1.06,1.1436,1.3756,1.3838,1.395,1.4519,1.4061,1.3718,1.3718,1.3718,1.3067,1.149,1.0566,1.0941,1.2838,1.2887,1.2488,1.1667,1.1589,1.2251,1.3718,1.3155,1.2188,1.0793,0.803,0.6836,1.0389,1.0676,1.0808,0.9435,0.9076,0.8796,0.7739,0.7474,0.7625,0.8152,0.7835,0.0,0.0,0.0,0.6879,0.0,0.0,0.6239,0.454,0.4817,0.511,0.4882,0.5086,0.5651,0.6719,0.6711,0.6952,0.7646,0.7412,0.7499,0.8218,0.8825,0.9386,0.9899,1.0339,1.0646,1.0857,1.1105,1.1132,1.0905,1.0916,1.084,1.0697,1.0835,1.0975,1.1195,1.1352,1.1677,1.2128,1.2193,1.2353,1.2501,1.2138,1.19,1.1708,1.1441,1.1367,1.1463,1.1764,1.2093,1.2421,1.2375,1.2347,1.2375,1.2388,1.2281,1.2151,1.1928,1.1815,1.17,1.1464,1.1469,1.1752,1.2503,1.2464,1.2416,1.3148,1.3684,1.4243,1.5061,1.5317,1.5366,1.5219,1.3628,1.2286,1.2197,1.2485,1.332,1.5042,1.5088,1.5205,1.5652,1.5254,1.5039,1.5039,1.5147,1.5205,1.5039,1.3416,1.3451,1.5816,1.5137,1.5137,1.5941,1.5488,1.5205,1.5039,1.5039,1.5672,1.6751,1.2081,1.0123,1.1026,1.1038,1.0769,0.8978,0.8625,0.8543,0.7848,0.8188,0.8701,0.8928,0.9063,0.9003,0.8658,0.0,0.0,0.0,0.0,0.0,0.0,0.5054,0.4989,0.3888,0.4545,0.5427,0.6255,0.5689,0.5593,0.6387,0.5853,0.6032,0.7273,0.8394,0.9161,0.952,1.0976,1.1605,1.1271,1.1811,1.1847,1.1479,1.1664,1.1664,1.1479,1.1553,1.1664,1.1881,1.1931,1.2178,1.248,1.234,1.2531,1.2824,1.2374,1.2396,1.2614,1.2131,1.2002,1.2146,1.2746,1.3055,1.3068,1.242,1.2875,1.3716,1.3446,1.3252,1.3097,1.2806,1.2321,1.188,1.1887,1.2049,1.2583,1.3911,1.332,1.3194,1.5801,1.568,1.5504,1.6928,1.7622,1.7829,1.7291,1.597,1.4823,1.4373,1.5405,1.6472,1.7155,1.6715,1.6327,1.6384,1.6327,1.6327,1.6327,1.6885,1.6941,1.6374,1.6818,1.7155,1.7222,1.6056,1.5941,1.7211,1.7222,1.6941,1.6327,1.6327,1.6931,1.7975,1.4836,1.2328,1.2403,1.2733,1.276,1.1204,1.0869,1.0667,0.9612,0.9761,1.0031,0.9599,0.9887,1.0081,0.9728,0.0,0.0,0.0,0.0,0.0,0.0,0.5481,0.5391,0.5001,0.5119,0.5394,0.5789,0.5852,0.6118,0.6688,0.6156,0.6388,0.7751,0.8563,0.9164,0.9546,1.0721,1.1339,1.1386,1.1953,1.2126,1.1957,1.2151,1.2079,1.1763,1.1982,1.2162,1.233,1.2602,1.2874,1.3141,1.3101,1.3198,1.3329,1.3088,1.3332,1.3717,1.2889,1.2657,1.2764,1.3184,1.3252,1.3179,1.3327,1.3372,1.3406,1.3742,1.3728,1.3421,1.3003,1.2831,1.2751,1.2445,1.2744,1.3368,1.4111,1.4853,1.5678,1.6574,1.6595,1.688,1.816,1.856,1.8614,1.8464,1.8036,1.7514,1.6951,1.7221,1.759,1.781,1.7645,1.7545,1.7545,1.7854,1.8116,1.8116,1.8643,1.8845,1.8685,1.8494,1.841,1.841,1.8352,1.8352,1.8398,1.841,1.8344,1.8116,1.8116,1.8344,1.8721,1.8737,1.7038,1.3277,1.3629,1.3728,1.2295,1.2038,1.1844,1.0734,1.095,1.12,1.0647,1.078,1.1033,1.1043,0.9977,0.0,0.0,0.0,0.0,0.0,0.5814,0.5771,0.5771,0.5609,0.5564,0.5796,0.5732,0.5966,0.6639,0.618,0.6522,0.8051,0.8698,0.9368,1.0101,1.1078,1.1739,1.2063,1.2641,1.2824,1.2696,1.2881,1.2812,1.2484,1.2661,1.2801,1.2918,1.3185,1.3398,1.3616,1.3543,1.3602,1.3697,1.3602,1.3887,1.4237,1.3313,1.3069,1.3276,1.378,1.3763,1.3667,1.4216,1.4225,1.4077,1.4338,1.428,1.3998,1.3385,1.3158,1.3143,1.3099,1.3437,1.399,1.4719,1.6126,1.7394,1.7705,1.819,1.8857,1.9677,1.9395,1.9146,1.9512,1.9759,1.954,1.856,1.856,1.8709,1.8709,1.856,1.841,1.841,1.9146,1.9656,1.985,1.9798,1.9901,2.0118,1.9811,1.9656,1.985,2.0207,2.0105,1.9617,1.9408,1.9408,1.9617,1.9617,1.9708,1.9901,2.0921,2.0154]}]]